[[{"header":{"parameterUnit":"m.s-1","parameterCategory":1,"la1":31.0,"la2":29.5877,"lo1":-88.7671,"lo2":-86.6584,"dy":0.0162,"dx":0.0185,"nx":115,"ny":88,"refTime":"2024-07-28T12:00:00:Z","depth":0,"parameterNumber":2,"parameterNumberName":"U-component_of_WINDS"},"data":[0.0,0.0,0.0,0.0,0.0,0.0,0.0,0.0,0.0,0.0,0.0,0.0,0.0,0.0,0.0,0.0,0.0,0.0,0.0,0.0,0.0,0.0,0.0,0.0,0.0,0.0,0.0,0.0,0.0,0.0,0.0,0.0,0.0,0.0,0.0,0.0,0.0,0.0,0.0,0.0,0.0,0.0,0.0,0.0,0.0,0.0,0.0,0.0,0.0,0.0,0.0,0.0,0.0,0.0,0.0,0.0,0.0,0.0,0.0,0.0,0.0,0.0,0.0,0.0,0.0,0.0,0.0,0.0,0.0,0.0,0.0,0.0,0.0,0.0,0.0,0.0,0.0,0.0,0.0,0.0,0.0,0.0,0.0,0.0,0.0,0.0,0.0,0.0,0.0,0.0,0.0,0.0,0.0,0.0,0.0,0.0,0.0,0.0,0.0,0.0,0.0,0.0,0.0,0.0,0.0,0.0,0.0,0.0,0.0,0.0,0.0,0.0,0.0,0.0,0.0,0.0,0.0,0.0,0.0,0.0,0.0,0.0,0.0,0.0,0.0,0.0,0.0,0.0,0.0,0.0,0.0,0.0,0.0,0.0,0.0,0.0,0.0,0.0,0.0,0.0,0.0,0.0,0.0,0.0,0.0,0.0,0.0,0.0,0.0,0.0,0.0,0.0,0.0,0.0,0.0,0.0,0.0,0.0,0.0,0.0,0.0,0.0,0.0,0.0,0.0,0.0,0.0,0.0,0.0,0.0,0.0,0.0,0.0,0.0,0.0,0.0,0.0,0.0,0.0,0.0,0.0,0.0,0.0,0.0,0.0,0.0,0.0,0.0,0.0,0.0,0.0,0.0,0.0,0.0,0.0,0.0,0.0,0.0,0.0,0.0,0.0,0.0,0.0,0.0,0.0,0.0,0.0,0.0,0.0,0.0,0.0,0.0,0.0,0.0,0.0,0.0,0.0,0.0,0.0,0.0,0.0,0.0,0.0,0.0,0.0,0.0,0.0,0.0,0.0,0.0,0.0,0.0,0.0,0.0,0.0,0.0,0.0,0.0,0.0,0.0,0.0,0.0,0.0,0.0,0.0,0.0,0.0,0.0,0.0,0.0,0.0,0.0,0.0,0.0,0.0,0.0,0.0,0.0,0.0,0.0,0.0,0.0,0.0,0.0,0.0,0.0,0.0,0.0,0.0,0.0,0.0,0.0,0.0,0.0,0.0,0.0,0.0,0.0,0.0,0.0,0.0,0.0,0.0,0.0,0.0,0.0,0.0,0.0,0.0,0.0,0.0,0.0,0.0,0.0,0.0,0.0,0.0,0.0,0.0,0.0,0.0,0.0,0.0,0.0,0.0,0.0,0.0,0.0,0.0,0.0,0.0,0.0,0.0,0.0,0.0,0.0,0.0,0.0,0.0,0.0,0.0,0.0,0.0,0.0,0.0,0.0,0.0,0.0,0.0,0.0,0.0,0.0,0.0,0.0,0.0,0.0,0.0,0.0,0.0,0.0,0.0,0.0,0.0,0.0,0.0,0.0,0.0,0.0,0.0,0.0,0.0,0.0,0.0,0.0,0.0,0.0,0.0,0.0,0.0,0.0,0.0,0.0,0.0,0.0,0.0,0.0,0.0,0.0,0.0,0.0,0.0,0.0,0.0,0.0,0.0,0.0,0.0,0.0,0.0,0.0,0.0,0.0,0.0,0.0,0.0,0.0,0.0,0.0,0.0,0.0,0.0,0.0,0.0,0.0,0.0,0.0,0.0,0.0,0.0,0.0,0.0,0.0,0.0,0.0,0.0,0.0,0.0,0.0,0.0,0.0,0.0,0.0,0.0,0.0,0.0,0.0,0.0,0.0,0.0,0.0,0.0,0.0,0.0,0.0,0.0,0.0,0.0,0.0,0.0,0.0,0.0,0.0,0.0,0.0,0.0,0.0,0.0,0.0,0.0,0.0,0.0,0.0,0.0,0.0,0.0,0.0,0.0,0.0,0.0,0.0,0.0,0.0,0.0,0.0,0.0,0.0,0.0,0.0,0.0,0.0,0.0,0.0,0.0,0.0,0.0,0.0,0.0,0.0,0.0,0.0,0.0,0.0,0.0,0.0,0.0,0.0,0.0,0.0,0.0,0.0,0.0,0.0,0.0,0.0,0.0,0.0,0.0,0.0,0.0,0.0,0.0,0.0,0.0,0.0,0.0,0.0,0.0,0.0,0.0,0.0,0.0,0.0,0.0,0.0,0.0,0.0,0.0,0.0,0.0,0.0,0.0,0.0,0.0,0.0,0.0,0.0,0.0,0.0,0.0,0.0,0.0,0.0,0.0,0.0,0.0,0.0,0.0,0.0,0.0,0.0,0.0,0.0,0.0,0.0,0.0,0.0,0.0,0.0,0.0,0.0,0.0,0.0,0.0,0.0,0.0,0.0,0.0,0.0,0.0,0.0,0.0,0.0,0.0,0.0,0.0,0.0,0.0,0.0,0.0,0.0,0.0,0.0,0.0,0.0,0.0,0.0,0.0,0.0,0.0,0.0,0.0,0.0,0.0,0.0,0.0,0.0,0.0,0.0,0.0,0.0,0.0,0.0,0.0,0.0,0.0,0.0,0.0,0.0,0.0,0.0,0.0,0.0,0.0,0.0,0.0,0.0,0.0,0.0,0.0,0.0,0.0,0.0,0.0,0.0,0.0,0.0,0.0,0.0,0.0,0.0,0.0,0.0,0.0,0.0,0.0,0.0,0.0,0.0,0.0,0.0,0.0,0.0,0.0,0.0,0.0,0.0,0.0,0.0,0.0,0.0,0.0,0.0,0.0,0.0,0.0,0.0,0.0,0.0,0.0,0.0,0.0,0.0,0.0,0.0,0.0,0.0,0.0,0.0,0.0,0.0,0.0,0.0,0.0,0.0,0.0,0.0,0.0,0.0,0.0,0.0,0.0,0.0,0.0,0.0,0.0,0.0,0.0,0.0,0.0,0.0,0.0,0.0,0.0,0.0,0.0,0.0,0.0,0.0,0.0,0.0,0.0,0.0,0.0,0.0,0.0,0.0,0.0,0.0,0.0,0.0,0.0,0.0,0.0,0.0,0.0,0.0,0.0,0.0,0.0,0.0,0.0,0.0,0.0,0.0,0.0,0.0,0.0,0.0,0.0,0.0,0.0,0.0,0.0,0.0,0.0,0.0,0.0,0.0,0.0,0.0,0.0,0.0,0.0,0.0,0.0,0.0,0.0,0.0,0.0,0.0,0.0,0.0,0.0,0.0,0.0,0.0,0.0,0.0,0.0,0.0,0.0,0.0,0.0,0.0,0.0,0.0,0.0,0.0,0.0,0.0,0.0,0.0,0.0,0.0,0.0,0.0,0.0,0.0,0.0,0.0,0.0,0.0,0.0,0.0,0.0,0.0,0.0,0.0,0.0,0.0,0.0,0.0,0.0,0.0,0.0,0.0,0.0,0.0,0.0,0.0,0.0,0.0,0.0,0.0,0.0,0.0,0.0,0.0,0.0,0.0,0.0,0.0,0.0,0.0,0.0,0.0,0.0,0.0,0.0,0.0,0.0,0.0,0.0,0.0,0.0,0.0,0.0,0.0,0.0,0.0,0.0,0.0,0.0,0.0,0.0,0.0,0.0,0.0,0.0,0.0,0.0,0.0,0.0,0.0,0.0,0.0,0.0,0.0,0.0,0.0,0.0,0.0,0.0,0.0,0.0,0.0,0.0,0.0,0.0,0.0,0.0,0.0,0.0,0.0,0.0,0.0,0.0,0.0,0.0,0.0,0.0,0.0,0.0,0.0,0.0,0.0,0.0,0.0,0.0,0.0,0.0,0.0,0.0,0.0,0.0,0.0,0.0,0.0,0.0,0.0,0.0,0.0,0.0,0.0,0.0,0.0,0.0,0.0,0.0,0.0,0.0,0.0,0.0,0.0,0.0,0.0,0.0,0.0,0.0,0.0,0.0,0.0,0.0,0.0,0.0,0.0,0.0,0.0,0.0,0.0,0.0,0.0,0.0,0.0,0.0,0.0,0.0,0.0,0.0,0.0,0.0,0.0,0.0,0.0,0.0,0.0,0.0,0.0,0.0,0.0,0.0,0.0,0.0,0.0,0.0,0.0,0.0,0.0,0.0,0.0,0.0,0.0,0.0,0.0,0.0,0.0,0.0,0.0,0.0,0.0,0.0,0.0,0.0,0.0,0.0,0.0,0.0,0.0,0.0,0.0,0.0,0.0,0.0,0.0,0.0,0.0,0.0,0.0,0.0,0.0,0.0,0.0,0.0,0.0,0.0,0.0,-0.7089,0.0,0.0,0.0,0.0,0.0,0.0,0.0,0.0,0.0,0.0,0.0,0.0,0.0,0.0,0.0,0.0,0.0,0.0,0.0,0.0,0.0,0.0,0.0,0.0,0.0,0.0,0.0,0.0,0.0,0.0,0.0,0.0,0.0,0.0,0.0,0.0,0.0,0.0,0.0,0.0,0.0,0.0,0.0,0.0,0.0,0.0,0.0,0.0,0.0,0.0,0.0,0.0,0.0,0.0,0.0,0.0,0.0,0.0,0.0,0.0,0.0,0.0,0.0,0.0,0.0,0.0,0.0,0.0,0.0,0.0,0.0,0.0,0.0,0.0,0.0,0.0,0.0,0.0,0.0,0.0,0.0,0.0,0.0,0.0,0.0,0.0,0.0,0.0,0.0,0.0,0.0,0.0,0.0,0.0,0.0,0.0,0.0,0.0,0.0,0.0,0.0,0.0,0.0,0.0,0.0,0.0,0.0,0.0,0.0,0.0,-0.7452,-0.7695,-0.783,-0.7917,-0.7868,0.0,0.0,0.0,0.0,0.0,0.0,0.0,0.0,0.0,0.0,0.0,0.0,0.0,0.0,0.0,0.0,0.0,0.0,0.0,0.0,0.0,0.0,0.0,0.0,0.0,0.0,0.0,0.0,0.0,0.0,0.0,0.0,0.0,0.0,0.0,0.0,0.0,0.0,0.0,0.0,0.0,0.0,0.0,0.0,0.0,0.0,0.0,0.0,0.0,0.0,0.0,0.0,0.0,0.0,0.0,0.0,0.0,0.0,0.0,0.0,0.0,0.0,0.0,0.0,0.0,0.0,0.0,0.0,0.0,0.0,0.0,0.0,0.0,0.0,0.0,0.0,0.0,0.0,0.0,0.0,0.0,0.0,0.0,0.0,0.0,0.0,0.0,0.0,0.0,0.0,0.0,0.0,0.0,0.0,0.0,0.0,0.0,0.0,0.0,0.0,0.0,0.0,0.0,0.0,0.0,0.0,0.0,0.0,0.0,0.0,0.0,0.0,-0.8855,-0.8734,-0.8385,0.0,0.0,0.0,0.0,0.0,0.0,0.0,0.0,0.0,0.0,0.0,0.0,0.0,0.0,0.0,0.0,0.0,0.0,0.0,0.0,0.0,0.0,0.0,0.0,0.0,0.0,0.0,0.0,0.0,0.0,0.0,0.0,0.0,0.0,0.0,0.0,0.0,0.0,0.0,0.0,0.0,0.0,0.0,0.0,0.0,0.0,0.0,0.0,0.0,0.0,0.0,0.0,0.0,0.0,0.0,0.0,0.0,0.0,0.0,0.0,0.0,0.0,0.0,0.0,0.0,0.0,0.0,0.0,0.0,0.0,0.0,0.0,0.0,0.0,0.0,0.0,0.0,0.0,0.0,0.0,0.0,0.0,0.0,0.0,0.0,0.0,0.0,0.0,0.0,0.0,0.0,0.0,0.0,0.0,0.0,0.0,0.0,0.0,0.0,0.0,0.0,0.0,0.0,0.0,0.0,0.0,0.0,0.0,0.0,0.0,-0.9851,-1.012,-1.0298,0.0,-0.8107,0.0,0.0,0.0,0.0,0.0,0.0,0.0,0.0,0.0,0.0,0.0,0.0,0.0,0.0,0.0,0.0,0.0,0.0,0.0,0.0,0.0,0.0,0.0,0.0,0.0,0.0,0.0,0.0,0.0,0.0,0.0,0.0,0.0,0.0,0.0,0.0,0.0,0.0,0.0,0.0,0.0,0.0,0.0,0.0,0.0,0.0,0.0,0.0,0.0,0.0,0.0,0.0,0.0,0.0,0.0,0.0,0.0,0.0,0.0,0.0,0.0,0.0,0.0,0.0,0.0,0.0,0.0,0.0,0.0,0.0,0.0,0.0,0.0,0.0,0.0,0.0,0.0,0.0,0.0,0.0,0.0,0.0,0.0,0.0,0.0,0.0,0.0,0.0,0.0,0.0,0.0,0.0,0.0,0.0,0.0,0.0,0.0,0.0,0.0,0.0,0.0,0.0,0.0,0.0,0.0,0.0,0.0,0.0,0.0,0.0,-1.1088,-1.1704,-1.1455,-1.0385,0.0,0.0,0.0,0.0,0.0,0.0,0.0,0.0,0.0,0.0,0.0,0.0,0.0,0.0,0.0,0.0,0.0,0.0,0.0,0.0,0.0,0.0,0.0,0.0,0.0,0.0,0.0,0.0,0.0,0.0,0.0,0.0,0.0,0.0,0.0,0.0,0.0,0.0,0.0,0.0,0.0,0.0,0.0,0.0,0.0,0.0,0.0,0.0,0.0,0.0,0.0,0.0,0.0,0.0,0.0,0.0,0.0,0.0,0.0,0.0,0.0,0.0,0.0,0.0,0.0,0.0,0.0,0.0,0.0,0.0,0.0,0.0,0.0,0.0,0.0,0.0,0.0,0.0,0.0,0.0,0.0,0.0,0.0,0.0,0.0,0.0,0.0,0.0,0.0,0.0,0.0,0.0,0.0,0.0,0.0,0.0,0.0,0.0,0.0,0.0,0.0,0.0,0.0,0.0,0.0,0.0,0.0,0.0,0.0,0.0,-1.1993,-1.2521,-1.3013,-1.2492,-1.1307,-0.9439,0.0,0.0,0.0,0.0,0.0,0.0,0.0,0.0,0.0,0.0,0.0,0.0,0.0,0.0,0.0,0.0,0.0,0.0,0.0,0.0,0.0,0.0,0.0,0.0,0.0,0.0,0.0,0.0,0.0,0.0,0.0,0.0,0.0,0.0,0.0,0.0,0.0,0.0,0.0,0.0,0.0,0.0,0.0,0.0,0.0,0.0,0.0,0.0,0.0,0.0,0.0,0.0,0.0,0.0,0.0,0.0,0.0,0.0,0.0,0.0,0.0,0.0,0.0,0.0,0.0,0.0,0.0,0.0,0.0,0.0,0.0,0.0,0.0,0.0,0.0,0.0,0.0,0.0,0.0,0.0,0.0,0.0,0.0,0.0,0.0,0.0,0.0,0.0,0.0,0.0,0.0,0.0,0.0,0.0,0.0,0.0,0.0,0.0,0.0,0.0,0.0,0.0,0.0,0.0,0.0,0.0,0.0,0.0,0.0,-1.3857,-1.4262,-1.4065,-1.339,-1.2442,0.0,0.0,0.0,0.0,0.0,0.0,0.0,0.0,0.0,0.0,0.0,0.0,0.0,0.0,0.0,0.0,0.0,0.0,0.0,0.0,0.0,0.0,0.0,0.0,0.0,0.0,0.0,0.0,0.0,0.0,0.0,0.0,0.0,0.0,0.0,0.0,0.0,0.0,0.0,0.0,0.0,0.0,0.0,0.0,0.0,0.0,0.0,0.0,0.0,0.0,0.0,0.0,0.0,0.0,0.0,0.0,0.0,0.0,0.0,0.0,0.0,0.0,0.0,0.0,0.0,0.0,0.0,0.0,0.0,0.0,0.0,0.0,0.0,0.0,0.0,0.0,0.0,0.0,0.0,0.0,0.0,0.0,0.0,0.0,0.0,0.0,0.0,0.0,0.0,0.0,0.0,0.0,0.0,0.0,0.0,0.0,0.0,0.0,0.0,0.0,0.0,0.0,0.0,0.0,0.0,0.0,0.0,0.0,0.0,-1.4491,-1.5653,-1.6007,-1.5586,-1.4891,-1.3907,0.0,0.0,0.0,0.0,0.0,0.0,0.0,0.0,0.0,0.0,0.0,0.0,0.0,0.0,0.0,0.0,0.0,0.0,0.0,0.0,0.0,0.0,0.0,0.0,0.0,0.0,0.0,0.0,0.0,0.0,0.0,0.0,0.0,0.0,0.0,0.0,0.0,0.0,0.0,0.0,0.0,0.0,0.0,0.0,0.0,0.0,0.0,0.0,0.0,0.0,0.0,0.0,0.0,0.0,0.0,0.0,0.0,0.0,0.0,0.0,0.0,0.0,0.0,0.0,0.0,0.0,0.0,0.0,0.0,0.0,0.0,0.0,0.0,0.0,0.0,0.0,0.0,0.0,0.0,0.0,0.0,0.0,0.0,0.0,0.0,0.0,0.0,0.0,0.0,0.0,0.0,0.0,0.0,0.0,0.0,0.0,0.0,0.0,0.0,0.0,0.0,0.0,0.0,0.0,0.0,0.0,0.0,0.0,0.0,-1.6191,0.0,-1.726,0.0,-1.6248,-1.5328,0.0,0.0,0.0,0.0,0.0,0.0,0.0,0.0,0.0,0.0,0.0,0.0,0.0,0.0,0.0,0.0,0.0,0.0,0.0,0.0,0.0,0.0,0.0,0.0,0.0,0.0,0.0,0.0,0.0,0.0,0.0,0.0,0.0,0.0,0.0,0.0,0.0,0.0,0.0,0.0,0.0,0.0,0.0,0.0,0.0,0.0,0.0,0.0,0.0,0.0,0.0,0.0,0.0,0.0,0.0,0.0,0.0,0.0,0.0,0.0,0.0,0.0,0.0,0.0,0.0,0.0,0.0,0.0,0.0,0.0,0.0,0.0,0.0,0.0,0.0,0.0,0.0,0.0,0.0,0.0,0.0,0.0,0.0,0.0,0.0,0.0,0.0,0.0,0.0,0.0,0.0,0.0,0.0,0.0,0.0,0.0,0.0,0.0,0.0,0.0,0.0,0.0,0.0,0.0,0.0,0.0,0.0,0.0,-1.6786,-1.7975,-1.8246,-1.8202,-1.7507,-1.7506,-1.6757,0.0,0.0,0.0,0.0,0.0,0.0,0.0,0.0,0.0,0.0,0.0,0.0,0.0,0.0,0.0,0.0,0.0,0.0,0.0,0.0,0.0,0.0,0.0,0.0,0.0,0.0,0.0,0.0,0.0,0.0,0.0,0.0,0.0,0.0,0.0,0.0,0.0,0.0,0.0,0.0,0.0,0.0,0.0,0.0,0.0,0.0,0.0,0.0,0.0,0.0,0.0,0.0,0.0,0.0,0.0,0.0,0.0,0.0,0.0,0.0,0.0,0.0,0.0,0.0,0.0,0.0,0.0,0.0,0.0,0.0,0.0,0.0,0.0,0.0,0.0,0.0,0.0,0.0,0.0,0.0,0.0,0.0,0.0,0.0,0.0,0.0,0.0,0.0,0.0,0.0,0.0,0.0,0.0,0.0,0.0,0.0,0.0,0.0,0.0,0.0,0.0,0.0,0.0,0.0,0.0,0.0,0.0,0.0,0.0,-2.0291,-2.1581,-2.1953,-2.1257,-2.0223,-1.8915,0.0,0.0,0.0,0.0,0.0,0.0,0.0,0.0,0.0,0.0,0.0,0.0,0.0,0.0,0.0,0.0,0.0,0.0,0.0,0.0,0.0,0.0,0.0,0.0,0.0,0.0,0.0,0.0,0.0,0.0,0.0,0.0,0.0,0.0,0.0,0.0,0.0,0.0,0.0,0.0,0.0,0.0,0.0,0.0,0.0,0.0,0.0,0.0,0.0,0.0,0.0,0.0,0.0,0.0,0.0,0.0,0.0,0.0,0.0,0.0,0.0,0.0,0.0,0.0,0.0,0.0,0.0,0.0,0.0,0.0,0.0,0.0,0.0,0.0,0.0,0.0,0.0,0.0,0.0,0.0,0.0,0.0,0.0,0.0,0.0,0.0,0.0,0.0,0.0,0.0,0.0,0.0,0.0,0.0,0.0,0.0,0.0,0.0,0.0,0.0,0.0,0.0,0.0,0.0,0.0,0.0,0.0,0.0,0.0,-2.3198,-2.4256,-2.4659,-2.4226,-2.2689,-2.1061,-1.9393,0.0,0.0,0.0,0.0,0.0,0.0,0.0,0.0,0.0,0.0,0.0,0.0,0.0,0.0,0.0,0.0,0.0,0.0,0.0,0.0,0.0,0.0,0.0,0.0,0.0,0.0,0.0,0.0,0.0,0.0,0.0,0.0,0.0,0.0,0.0,0.0,0.0,0.0,0.0,0.0,0.0,0.0,0.0,0.0,0.0,0.0,0.0,0.0,0.0,0.0,0.0,0.0,0.0,0.0,0.0,0.0,0.0,0.0,0.0,0.0,0.0,0.0,0.0,0.0,0.0,0.0,0.0,0.0,0.0,0.0,0.0,0.0,0.0,0.0,0.0,0.0,0.0,0.0,0.0,0.0,0.0,0.0,0.0,0.0,0.0,0.0,0.0,0.0,0.0,0.0,0.0,0.0,0.0,0.0,0.0,0.0,0.0,0.0,0.0,0.0,0.0,0.0,0.0,0.0,0.0,0.0,0.0,0.0,-2.6446,-2.6447,-2.6439,-2.6428,-2.4885,-2.3195,0.0,0.0,0.0,0.0,0.0,0.0,0.0,0.0,0.0,0.0,0.0,0.0,0.0,0.0,0.0,0.0,0.0,0.0,0.0,0.0,0.0,0.0,0.0,0.0,0.0,0.0,0.0,0.0,0.0,0.0,0.0,0.0,0.0,0.0,0.0,0.0,0.0,0.0,0.0,0.0,0.0,0.0,0.0,0.0,0.0,0.0,0.0,0.0,0.0,0.0,0.0,0.0,0.0,0.0,0.0,0.0,0.0,0.0,0.0,0.0,0.0,0.0,0.0,0.0,0.0,0.0,0.0,0.0,0.0,0.0,0.0,0.0,0.0,0.0,0.0,0.0,0.0,0.0,0.0,0.0,0.0,0.0,0.0,0.0,0.0,0.0,0.0,0.0,0.0,0.0,0.0,0.0,0.0,0.0,0.0,0.0,0.0,0.0,0.0,0.0,0.0,0.0,0.0,0.0,0.0,0.0,0.0,0.0,0.0,-2.8321,-2.9678,-2.9737,-2.8403,-2.7374,-2.5464,0.0,0.0,0.0,0.0,0.0,0.0,0.0,0.0,0.0,0.0,0.0,0.0,0.0,0.0,0.0,0.0,0.0,0.0,0.0,0.0,0.0,0.0,0.0,0.0,0.0,0.0,0.0,0.0,0.0,0.0,0.0,0.0,0.0,0.0,0.0,0.0,0.0,0.0,0.0,0.0,0.0,0.0,0.0,0.0,0.0,0.0,0.0,0.0,0.0,0.0,0.0,0.0,0.0,0.0,0.0,0.0,0.0,0.0,0.0,0.0,0.0,0.0,0.0,0.0,0.0,0.0,0.0,0.0,0.0,0.0,0.0,0.0,0.0,0.0,0.0,0.0,0.0,0.0,0.0,0.0,0.0,0.0,0.0,0.0,0.0,0.0,0.0,0.0,0.0,0.0,0.0,0.0,0.0,0.0,0.0,0.0,0.0,0.0,0.0,0.0,0.0,0.0,0.0,0.0,0.0,0.0,0.0,0.0,-2.7497,-2.8675,-3.118,-3.1639,-2.985,-2.8621,-2.6759,0.0,0.0,0.0,0.0,0.0,0.0,0.0,0.0,0.0,0.0,0.0,0.0,0.0,0.0,0.0,0.0,0.0,0.0,0.0,0.0,0.0,0.0,0.0,0.0,0.0,0.0,0.0,0.0,0.0,0.0,0.0,0.0,0.0,0.0,0.0,0.0,0.0,0.0,0.0,0.0,0.0,0.0,0.0,0.0,0.0,0.0,0.0,0.0,0.0,0.0,0.0,0.0,0.0,0.0,0.0,0.0,0.0,0.0,0.0,0.0,0.0,0.0,0.0,0.0,0.0,0.0,0.0,0.0,0.0,0.0,0.0,0.0,0.0,0.0,0.0,0.0,0.0,0.0,0.0,0.0,0.0,0.0,0.0,0.0,0.0,0.0,0.0,0.0,0.0,0.0,0.0,0.0,0.0,0.0,0.0,0.0,0.0,0.0,0.0,0.0,0.0,0.0,0.0,0.0,0.0,0.0,0.0,0.0,-2.795,-2.8274,-3.1378,-3.233,-3.0843,-2.9138,-2.7459,0.0,0.0,0.0,0.0,0.0,0.0,0.0,0.0,0.0,0.0,0.0,0.0,0.0,0.0,0.0,0.0,0.0,0.0,0.0,0.0,0.0,0.0,0.0,0.0,0.0,0.0,0.0,0.0,0.0,0.0,0.0,0.0,0.0,0.0,0.0,0.0,0.0,0.0,0.0,0.0,0.0,0.0,0.0,0.0,0.0,0.0,0.0,0.0,0.0,0.0,0.0,0.0,0.0,0.0,0.0,0.0,0.0,0.0,0.0,0.0,0.0,0.0,0.0,0.0,0.0,0.0,0.0,0.0,0.0,0.0,0.0,0.0,0.0,0.0,0.0,0.0,0.0,0.0,0.0,0.0,0.0,0.0,0.0,0.0,0.0,0.0,0.0,0.0,0.0,0.0,0.0,0.0,0.0,0.0,0.0,0.0,0.0,0.0,0.0,0.0,0.0,0.0,0.0,0.0,0.0,0.0,0.0,0.0,-2.8334,-2.9117,-3.0578,-3.1159,-3.0804,-2.976,-2.8418,0.0,0.0,0.0,0.0,0.0,0.0,0.0,0.0,0.0,0.0,0.0,0.0,0.0,0.0,0.0,0.0,0.0,0.0,0.0,0.0,0.0,0.0,0.0,0.0,0.0,0.0,0.0,0.0,0.0,0.0,0.0,0.0,0.0,0.0,0.0,0.0,0.0,0.0,0.0,0.0,0.0,0.0,0.0,0.0,0.0,0.0,0.0,0.0,-2.8961,0.0,0.0,0.0,0.0,0.0,0.0,0.0,0.0,0.0,0.0,0.0,0.0,0.0,0.0,0.0,0.0,0.0,0.0,0.0,0.0,0.0,0.0,0.0,0.0,0.0,0.0,0.0,0.0,0.0,0.0,0.0,0.0,0.0,0.0,0.0,0.0,0.0,0.0,0.0,0.0,0.0,0.0,0.0,0.0,0.0,0.0,0.0,0.0,0.0,0.0,0.0,0.0,0.0,0.0,0.0,0.0,0.0,0.0,0.0,-2.848,-2.9433,-3.0321,-3.0798,-3.0774,-2.9917,-2.8652,0.0,0.0,0.0,0.0,0.0,0.0,0.0,0.0,0.0,0.0,0.0,0.0,0.0,0.0,0.0,0.0,0.0,0.0,0.0,0.0,0.0,0.0,0.0,0.0,0.0,0.0,0.0,0.0,0.0,0.0,0.0,0.0,0.0,0.0,0.0,0.0,0.0,0.0,0.0,0.0,0.0,0.0,0.0,0.0,0.0,0.0,0.0,0.0,0.0,0.0,0.0,0.0,0.0,0.0,0.0,0.0,0.0,0.0,0.0,0.0,0.0,0.0,0.0,0.0,0.0,0.0,0.0,0.0,0.0,0.0,0.0,0.0,0.0,0.0,0.0,0.0,0.0,0.0,0.0,0.0,0.0,0.0,0.0,0.0,0.0,0.0,0.0,0.0,0.0,0.0,0.0,0.0,0.0,0.0,0.0,0.0,0.0,0.0,0.0,0.0,0.0,0.0,0.0,0.0,0.0,0.0,0.0,-2.7237,-2.856,-2.9663,-3.0423,-3.0794,-3.078,-2.99,-2.8667,-2.7125,0.0,0.0,0.0,0.0,0.0,0.0,0.0,0.0,0.0,0.0,0.0,0.0,0.0,0.0,0.0,0.0,0.0,0.0,0.0,0.0,0.0,0.0,0.0,0.0,0.0,0.0,0.0,0.0,0.0,0.0,0.0,0.0,0.0,0.0,0.0,0.0,0.0,0.0,-2.3558,-2.5239,0.0,0.0,0.0,0.0,0.0,0.0,0.0,0.0,-3.2343,0.0,0.0,0.0,0.0,0.0,0.0,0.0,0.0,0.0,0.0,0.0,0.0,0.0,0.0,0.0,0.0,0.0,0.0,0.0,0.0,0.0,0.0,0.0,0.0,0.0,0.0,0.0,0.0,0.0,0.0,0.0,0.0,0.0,0.0,0.0,0.0,0.0,0.0,0.0,0.0,0.0,0.0,0.0,0.0,0.0,0.0,0.0,0.0,0.0,0.0,0.0,0.0,0.0,0.0,0.0,0.0,-2.7511,-2.7903,-2.8903,-3.0541,-3.0719,-3.0801,-3.0775,-2.9956,-2.898,-2.7862,0.0,0.0,0.0,0.0,0.0,0.0,0.0,0.0,0.0,0.0,0.0,0.0,0.0,0.0,0.0,0.0,0.0,0.0,0.0,0.0,0.0,0.0,0.0,0.0,0.0,0.0,0.0,0.0,0.0,0.0,0.0,0.0,0.0,0.0,0.0,0.0,0.0,0.0,0.0,-2.8392,-3.0384,0.0,0.0,0.0,0.0,0.0,0.0,0.0,0.0,-3.3078,0.0,0.0,0.0,0.0,0.0,0.0,0.0,0.0,0.0,0.0,0.0,0.0,0.0,0.0,0.0,0.0,0.0,0.0,0.0,0.0,0.0,0.0,0.0,0.0,0.0,0.0,0.0,0.0,0.0,0.0,0.0,0.0,0.0,0.0,0.0,0.0,0.0,0.0,0.0,0.0,0.0,0.0,0.0,0.0,0.0,0.0,0.0,0.0,0.0,0.0,0.0,0.0,0.0,0.0,0.0,-2.8523,-2.9181,-2.988,-3.076,-3.0791,-3.0795,-3.0742,-2.991,-2.8991,0.0,0.0,0.0,0.0,0.0,0.0,0.0,0.0,0.0,0.0,0.0,0.0,0.0,0.0,0.0,0.0,0.0,0.0,0.0,0.0,0.0,0.0,0.0,0.0,0.0,0.0,0.0,0.0,0.0,0.0,0.0,0.0,0.0,0.0,0.0,0.0,0.0,0.0,0.0,0.0,-3.0283,-3.1441,-3.3146,0.0,0.0,0.0,0.0,0.0,0.0,-3.4339,-3.3918,0.0,0.0,0.0,0.0,0.0,0.0,0.0,0.0,0.0,0.0,0.0,0.0,0.0,0.0,0.0,0.0,0.0,0.0,0.0,0.0,0.0,0.0,0.0,0.0,0.0,0.0,0.0,0.0,0.0,0.0,0.0,0.0,0.0,0.0,0.0,0.0,0.0,0.0,0.0,0.0,0.0,0.0,0.0,0.0,0.0,0.0,0.0,0.0,0.0,0.0,0.0,0.0,0.0,0.0,0.0,-2.9469,-3.0309,-3.0734,-3.0793,-3.0784,-3.0683,-3.0443,-2.9586,-2.864,0.0,0.0,0.0,0.0,0.0,0.0,0.0,0.0,0.0,0.0,0.0,0.0,0.0,0.0,0.0,0.0,0.0,0.0,0.0,0.0,0.0,0.0,0.0,0.0,0.0,0.0,0.0,0.0,0.0,0.0,0.0,0.0,0.0,0.0,0.0,0.0,0.0,0.0,0.0,0.0,0.0,-3.2166,-3.4524,-3.4311,0.0,0.0,0.0,0.0,-3.4959,-3.4973,0.0,0.0,0.0,0.0,0.0,0.0,0.0,0.0,0.0,0.0,0.0,0.0,0.0,0.0,0.0,0.0,0.0,0.0,0.0,0.0,0.0,0.0,0.0,0.0,0.0,0.0,0.0,0.0,0.0,0.0,0.0,0.0,0.0,0.0,0.0,0.0,0.0,0.0,0.0,0.0,0.0,0.0,0.0,0.0,0.0,0.0,0.0,0.0,0.0,0.0,0.0,0.0,0.0,0.0,0.0,0.0,-3.0304,-3.062,-3.074,-3.0788,-3.079,-3.043,-2.965,-2.8685,-2.7706,0.0,0.0,0.0,0.0,0.0,0.0,0.0,0.0,0.0,0.0,0.0,0.0,0.0,0.0,0.0,0.0,0.0,0.0,0.0,0.0,0.0,0.0,0.0,0.0,0.0,0.0,0.0,0.0,0.0,0.0,0.0,0.0,0.0,0.0,0.0,0.0,0.0,0.0,0.0,0.0,0.0,-3.3678,-3.55,-3.5716,-3.5703,0.0,0.0,-3.5857,-3.5857,-3.5848,0.0,0.0,0.0,0.0,0.0,0.0,0.0,0.0,0.0,0.0,0.0,0.0,0.0,0.0,0.0,0.0,0.0,0.0,0.0,0.0,0.0,0.0,0.0,0.0,0.0,0.0,0.0,0.0,0.0,0.0,0.0,0.0,0.0,0.0,0.0,0.0,0.0,0.0,0.0,0.0,0.0,0.0,0.0,0.0,0.0,0.0,0.0,0.0,0.0,0.0,0.0,0.0,0.0,0.0,0.0,-2.7656,-3.0506,-3.1183,-3.128,-3.081,-3.027,-2.9818,-2.9398,-2.7977,-2.6958,0.0,0.0,0.0,0.0,0.0,0.0,0.0,0.0,0.0,0.0,0.0,0.0,0.0,0.0,0.0,0.0,0.0,0.0,0.0,0.0,0.0,0.0,0.0,0.0,0.0,0.0,0.0,0.0,0.0,0.0,0.0,0.0,0.0,0.0,0.0,0.0,0.0,0.0,0.0,0.0,0.0,0.0,-3.5656,-3.5948,0.0,0.0,0.0,-3.601,-3.601,0.0,0.0,0.0,0.0,0.0,0.0,0.0,0.0,0.0,0.0,0.0,0.0,0.0,0.0,0.0,0.0,0.0,0.0,0.0,0.0,0.0,0.0,0.0,0.0,0.0,0.0,0.0,0.0,0.0,0.0,0.0,0.0,0.0,0.0,0.0,0.0,0.0,0.0,0.0,0.0,0.0,0.0,0.0,0.0,0.0,0.0,0.0,0.0,0.0,0.0,0.0,0.0,0.0,0.0,0.0,0.0,0.0,-3.0581,-3.1607,-3.1675,-3.0806,-2.9902,-2.9277,-2.8952,-2.7435,0.0,0.0,0.0,0.0,0.0,0.0,0.0,0.0,0.0,0.0,0.0,0.0,0.0,0.0,0.0,0.0,0.0,0.0,0.0,0.0,0.0,0.0,0.0,0.0,0.0,0.0,0.0,-1.9494,0.0,0.0,0.0,0.0,0.0,0.0,0.0,0.0,0.0,0.0,0.0,0.0,0.0,0.0,-3.4177,-3.5685,-3.5942,-3.5917,0.0,0.0,-3.5935,-3.572,-3.5876,-3.5776,0.0,0.0,0.0,0.0,0.0,0.0,0.0,0.0,0.0,0.0,0.0,0.0,0.0,0.0,0.0,0.0,0.0,0.0,0.0,0.0,0.0,0.0,0.0,0.0,0.0,0.0,0.0,0.0,0.0,0.0,0.0,0.0,0.0,0.0,0.0,0.0,0.0,0.0,0.0,0.0,0.0,0.0,0.0,0.0,0.0,0.0,0.0,0.0,0.0,0.0,0.0,0.0,0.0,0.0,0.0,-3.0604,-3.1613,-3.1647,-3.08,-2.9937,-2.9048,-2.8113,-2.7117,-2.6131,0.0,0.0,0.0,0.0,0.0,0.0,0.0,0.0,0.0,0.0,0.0,0.0,0.0,0.0,0.0,0.0,0.0,0.0,0.0,0.0,0.0,0.0,0.0,0.0,0.0,0.0,0.0,0.0,0.0,0.0,0.0,0.0,0.0,0.0,0.0,0.0,0.0,0.0,0.0,0.0,0.0,-3.4847,-3.5773,-3.5955,-3.572,0.0,0.0,-3.572,-3.492,-3.5486,-3.5971,-3.5913,0.0,0.0,0.0,0.0,0.0,0.0,0.0,0.0,0.0,0.0,0.0,0.0,0.0,0.0,0.0,0.0,0.0,0.0,0.0,0.0,0.0,0.0,0.0,0.0,0.0,0.0,0.0,0.0,0.0,0.0,0.0,0.0,0.0,0.0,0.0,0.0,0.0,0.0,0.0,0.0,0.0,0.0,0.0,0.0,0.0,0.0,0.0,0.0,0.0,0.0,0.0,0.0,0.0,-2.7037,-2.9124,-2.9507,-2.9558,-2.9238,-2.8366,-2.7675,-2.7207,-2.629,-2.5529,0.0,0.0,0.0,0.0,0.0,0.0,0.0,0.0,0.0,0.0,0.0,0.0,0.0,0.0,0.0,0.0,0.0,0.0,0.0,0.0,0.0,0.0,0.0,0.0,0.0,0.0,0.0,0.0,-2.7032,-2.7749,-2.8745,0.0,0.0,0.0,0.0,0.0,0.0,0.0,0.0,0.0,0.0,-3.4717,-3.5037,-3.5154,0.0,0.0,-3.4541,-3.4664,-3.5389,-3.533,-3.5389,-3.5916,-3.4995,0.0,0.0,0.0,0.0,0.0,0.0,0.0,0.0,0.0,0.0,0.0,0.0,0.0,0.0,0.0,0.0,0.0,0.0,0.0,0.0,0.0,0.0,0.0,0.0,0.0,0.0,0.0,0.0,0.0,0.0,0.0,0.0,0.0,0.0,0.0,0.0,0.0,0.0,0.0,0.0,0.0,0.0,0.0,0.0,0.0,0.0,0.0,0.0,0.0,0.0,0.0,0.0,-2.6806,-2.8564,-2.8589,-2.861,-2.8666,-2.7507,-2.6841,-2.6675,-2.5745,-2.5134,0.0,0.0,0.0,0.0,0.0,0.0,0.0,0.0,0.0,0.0,0.0,0.0,0.0,0.0,0.0,0.0,0.0,0.0,0.0,0.0,0.0,0.0,0.0,0.0,0.0,0.0,0.0,0.0,-2.9179,-2.9605,-2.9435,0.0,0.0,0.0,0.0,0.0,0.0,0.0,0.0,0.0,0.0,-3.4795,-3.4291,-3.427,-3.4213,-3.3945,-3.3626,-3.3751,-3.4686,-3.4549,-3.4608,-3.5467,0.0,0.0,0.0,0.0,0.0,0.0,0.0,0.0,0.0,0.0,0.0,0.0,0.0,0.0,0.0,0.0,0.0,0.0,0.0,0.0,0.0,0.0,0.0,0.0,0.0,0.0,0.0,0.0,0.0,0.0,-2.4523,0.0,0.0,0.0,0.0,0.0,0.0,0.0,0.0,0.0,0.0,0.0,0.0,0.0,0.0,0.0,0.0,0.0,0.0,0.0,0.0,0.0,0.0,-2.7682,-2.9384,-2.9354,-2.9411,-2.9341,-2.776,-2.6798,-2.6657,-2.5649,-2.5003,-2.478,0.0,0.0,0.0,0.0,0.0,0.0,0.0,0.0,0.0,0.0,0.0,0.0,0.0,0.0,0.0,0.0,0.0,0.0,0.0,0.0,0.0,0.0,0.0,0.0,0.0,0.0,-2.9159,-3.0075,-3.0222,0.0,0.0,0.0,0.0,0.0,0.0,0.0,0.0,0.0,0.0,-3.427,-3.5223,-3.3554,-3.3379,-3.3135,-3.2319,-3.285,-3.3112,-3.2404,-3.2929,-3.371,0.0,0.0,0.0,0.0,0.0,0.0,0.0,0.0,0.0,0.0,0.0,0.0,0.0,0.0,0.0,0.0,0.0,0.0,0.0,0.0,0.0,0.0,0.0,0.0,0.0,0.0,0.0,-2.597,-2.5846,0.0,0.0,0.0,0.0,0.0,0.0,0.0,0.0,0.0,0.0,0.0,-2.6998,-2.7013,0.0,0.0,0.0,0.0,0.0,0.0,0.0,0.0,0.0,0.0,0.0,0.0,-2.6936,-2.6987,-2.75,-2.751,-2.6978,-2.6377,-2.5976,-2.5828,-2.5502,-2.4873,-2.3964,0.0,0.0,0.0,0.0,0.0,0.0,0.0,0.0,0.0,0.0,0.0,0.0,0.0,0.0,0.0,0.0,0.0,0.0,0.0,0.0,0.0,0.0,0.0,0.0,0.0,-2.8761,0.0,0.0,0.0,0.0,0.0,0.0,0.0,0.0,0.0,0.0,0.0,-3.2954,-3.4406,-3.436,-3.3768,-3.2649,-3.2537,-3.2426,0.0,0.0,0.0,0.0,0.0,0.0,0.0,0.0,0.0,0.0,0.0,0.0,0.0,0.0,-3.451,-3.3934,-3.4069,-3.4168,-3.3871,0.0,0.0,0.0,0.0,0.0,0.0,0.0,0.0,0.0,0.0,0.0,0.0,0.0,0.0,-2.793,0.0,-2.67,0.0,0.0,0.0,0.0,0.0,0.0,0.0,0.0,-2.7963,-2.8324,-2.8036,-2.7999,-2.7985,0.0,-2.7725,-2.6753,0.0,0.0,0.0,0.0,0.0,0.0,0.0,0.0,-2.7108,-2.6659,-2.7105,-2.6952,-2.6149,-2.5761,-2.5512,-2.541,-2.5244,-2.4752,-2.3851,-2.3318,-2.2589,0.0,0.0,0.0,0.0,0.0,0.0,0.0,0.0,0.0,0.0,0.0,0.0,0.0,0.0,0.0,0.0,0.0,0.0,0.0,0.0,0.0,0.0,0.0,-3.0743,0.0,0.0,0.0,0.0,0.0,0.0,0.0,0.0,0.0,-3.4418,-3.3621,-3.3478,-3.4814,-3.4041,-3.2917,-3.1797,0.0,0.0,0.0,0.0,0.0,0.0,0.0,-3.3227,-3.4107,-3.4962,-3.5352,-3.4793,-3.47,-3.4706,-3.4705,0.0,0.0,-3.4794,-3.4698,-3.4618,-3.4301,-3.3536,-3.2771,-3.2211,-3.2284,-3.2172,0.0,0.0,0.0,0.0,0.0,0.0,0.0,0.0,-3.0037,-2.9782,0.0,-2.8252,0.0,0.0,0.0,0.0,0.0,0.0,0.0,0.0,-2.955,-2.984,-2.9068,-2.8983,-2.894,-2.8916,-2.8253,-2.7909,-2.7873,-2.7853,0.0,0.0,0.0,0.0,0.0,0.0,-2.8247,-2.8203,-2.8174,-2.7761,-2.6833,-2.5958,-2.5472,-2.5397,-2.4936,-2.4607,-2.4405,-2.3546,-2.3033,-2.2978,-2.1594,0.0,0.0,0.0,0.0,0.0,0.0,0.0,0.0,0.0,0.0,0.0,0.0,0.0,0.0,0.0,0.0,0.0,0.0,0.0,0.0,-3.2361,0.0,0.0,0.0,0.0,0.0,0.0,0.0,0.0,0.0,0.0,-3.1994,-3.4821,-3.608,-3.3652,0.0,0.0,0.0,0.0,-3.0804,-3.0819,-3.0792,-3.0798,-3.082,-3.1541,-3.2397,-3.3237,0.0,0.0,-3.4646,-3.4646,-3.4636,-3.4647,-3.4632,-3.4655,-3.4581,-3.4612,-3.4443,-3.3653,-3.2874,-3.2192,-3.2055,-3.1641,-3.1096,-2.8304,0.0,0.0,0.0,0.0,-2.8363,-2.916,-3.0071,-2.9973,-2.9996,-3.0018,-2.9433,0.0,0.0,0.0,0.0,0.0,0.0,-2.895,-2.8958,-2.9979,-3.0298,-3.0066,-3.0045,-3.0053,-3.0034,-2.9814,-2.9719,-2.9738,-2.9782,-2.9059,-2.7697,0.0,0.0,0.0,0.0,-2.8552,-2.7498,-2.7923,-2.7488,-2.5991,-2.5661,-2.5448,-2.5332,-2.4929,-2.4689,-2.461,-2.4116,-2.3585,-2.3014,-2.2659,0.0,0.0,0.0,0.0,0.0,0.0,0.0,0.0,0.0,0.0,0.0,0.0,0.0,0.0,0.0,0.0,0.0,0.0,0.0,-3.2528,-3.3537,-3.3405,0.0,0.0,0.0,0.0,0.0,0.0,0.0,0.0,0.0,-3.3031,-3.2736,-3.2825,0.0,0.0,-3.1369,-3.0877,-3.0798,-3.0794,-3.0794,0.0,0.0,0.0,-3.1522,-3.2187,-3.2441,-3.3203,-3.3769,-3.3769,-3.3767,-3.3781,-3.3785,-3.3757,-3.3574,-3.3044,-3.3853,-3.4452,-3.4252,-3.359,-3.2835,-3.2245,-3.2348,-3.2245,-2.9446,-2.8971,-2.8376,-2.8307,-2.866,-2.901,-2.9766,-3.0765,-3.0629,-3.064,-3.0771,-3.0304,-2.9605,-2.8788,-2.8417,0.0,0.0,0.0,-2.9602,-2.9901,-3.0331,-3.0532,-3.0554,-3.0519,-3.0482,-3.0482,-3.0518,-3.0535,-3.0554,-3.0632,-3.0166,-2.918,0.0,0.0,-2.872,-2.923,-2.8847,-2.7596,-2.7962,-2.7371,-2.5691,-2.5531,-2.5401,-2.5302,-2.4923,-2.4746,-2.4734,-2.4408,-2.4008,-2.3547,-2.3304,-2.2776,0.0,0.0,0.0,0.0,0.0,0.0,0.0,0.0,0.0,0.0,0.0,-2.9221,-2.9246,0.0,0.0,0.0,-3.1811,-3.3087,-3.4227,-3.4465,0.0,0.0,0.0,0.0,0.0,0.0,0.0,-3.1099,-3.2992,-3.4133,-3.3373,-3.1846,-3.1563,-3.3609,-3.2499,-3.1427,-3.133,0.0,-3.0802,-3.0801,-3.0785,-3.0794,-3.0804,-3.1532,-3.2201,-3.2574,-3.304,-3.3369,-3.3389,-3.3383,-3.3392,-3.336,-3.3119,-3.2721,-3.2192,-3.2694,-3.3083,-3.3083,-3.2713,-3.2187,-3.1661,-3.2012,-3.2031,-3.0386,-3.0256,-2.8846,-2.8694,-2.9465,-3.0249,-3.0626,-3.076,-3.1544,-3.1492,-3.0796,-3.0799,-3.0394,-2.9658,-2.8865,0.0,0.0,-2.962,-3.0037,-3.0784,-3.0671,-3.0626,-3.062,-3.0543,-3.0519,-3.0528,-3.0591,-3.062,-3.0626,-3.0728,-3.0794,-3.0765,-3.0005,-2.9609,-2.9614,-2.9523,-2.912,-2.832,-2.8168,-2.7306,-2.572,-2.5492,-2.5354,-2.5264,-2.4981,-2.4804,-2.4775,-2.4478,-2.4303,-2.4302,-2.369,-2.3361,-2.3427,0.0,0.0,0.0,0.0,0.0,0.0,0.0,0.0,0.0,0.0,0.0,0.0,0.0,0.0,0.0,-3.2931,0.0,-3.5563,-3.4982,0.0,0.0,0.0,-3.4478,-3.4497,-3.4478,-3.4173,-3.3297,0.0,0.0,0.0,0.0,-3.1778,-3.4194,-3.3264,-3.227,-3.2036,-3.1271,-3.0784,-3.0798,-3.0802,-3.0782,-3.0817,-3.1435,-3.2151,-3.2805,-3.3185,-3.3093,-3.3071,-3.3091,-3.3147,-3.3088,-3.2518,-3.1977,-3.1997,-3.1408,-3.0799,-3.0916,-3.0877,-3.0838,-3.0857,-3.0916,-3.0935,-3.0182,-3.0144,-2.9775,-2.9858,-3.0238,-3.044,-3.0568,-3.0639,-3.0906,-3.091,-3.0728,-3.0771,-3.0704,-3.0491,-3.0309,-3.0312,-3.0488,-3.0494,-3.0593,-3.0781,-3.0765,-3.0764,-3.0739,-3.0728,-3.0742,-3.0742,-3.0759,-3.0745,-3.0764,-3.0794,-3.0789,-3.079,-3.0576,-3.0492,-3.0474,-2.9842,-2.9101,-2.8316,-2.7635,-2.6688,-2.5499,-2.5422,-2.5303,-2.508,-2.4891,-2.4775,-2.466,-2.4462,-2.4429,-2.4526,-2.4425,-2.4155,-2.3721,-2.3731,0.0,0.0,0.0,0.0,0.0,0.0,0.0,0.0,0.0,-3.0084,-3.0758,0.0,-3.3096,0.0,-3.3275,-3.3555,-3.3946,-3.3755,0.0,0.0,-3.3731,-3.3602,-3.3621,-3.3595,-3.329,-3.2472,-3.2216,-3.2167,-3.2362,-3.2031,-3.2245,-3.3478,-3.2245,-3.1174,-3.1096,-3.094,-3.0799,-3.0784,-3.0784,-3.0789,-3.0808,-3.0953,-3.1215,-3.1395,-3.1426,-3.1421,-3.1441,-3.1412,-3.1408,-3.1427,-3.1271,-3.1115,-3.1135,-3.0916,-3.0818,-3.0799,-3.0799,-3.0799,-3.0799,-3.0799,-3.0799,-3.0052,-3.0089,-3.0089,-3.0228,-3.0451,-3.0471,-3.0492,-3.056,-3.0586,-3.0645,-3.0691,-3.0768,-3.0801,-3.0801,-3.079,-3.0796,-3.08,-3.0799,-3.0788,-3.0794,-3.0794,-3.0798,-3.0799,-3.0799,-3.0799,-3.0799,-3.0799,-3.0799,-3.0799,-3.0798,-3.0794,-3.0785,-3.0784,-3.079,-3.0751,-2.9979,-2.8945,-2.7732,-2.683,-2.6076,-2.5505,-2.5422,-2.5312,-2.5157,-2.4956,-2.4842,-2.4716,-2.4613,-2.4599,-2.4692,-2.4719,-2.4629,-2.4409,-2.4743,-2.4815,0.0,0.0,0.0,0.0,0.0,0.0,0.0,0.0,0.0,0.0,0.0,-3.2826,0.0,-3.2834,0.0,-3.338,-3.302,-3.2917,-3.3287,-3.2989,-3.2906,-3.3315,-3.3359,-3.317,-3.2722,-3.2343,-3.2221,-3.253,-3.1921,-3.174,-3.2602,-3.1565,-3.089,-3.1247,-3.1057,-3.0799,-3.0799,-3.0799,-3.0799,-3.0799,-3.0799,-3.0799,-3.0799,-3.0799,-3.0799,-3.0799,-3.0799,-3.0799,-3.0799,-3.0799,-3.0799,-3.0799,-3.0799,-3.0799,-3.0799,-3.0799,-3.0799,-3.0799,-3.0799,-3.0799,-2.995,-3.0052,-3.0032,-3.0169,-3.0355,-3.0355,-3.0417,-3.0482,-3.0492,-3.0564,-3.0691,-3.0768,-3.0801,-3.0801,-3.0801,-3.0788,-3.0798,-3.0799,-3.08,-3.0801,-3.0799,-3.0801,-3.0789,-3.0789,-3.0784,-3.0799,-3.0799,-3.0804,-3.0789,-3.0801,-3.0794,-3.0796,-3.0799,-3.0741,-3.0614,-2.9938,-2.8691,-2.6855,-2.6027,-2.5609,-2.5605,-2.5466,-2.5357,-2.5274,-2.5091,-2.4968,-2.4888,-2.4779,-2.4753,-2.4817,-2.4823,-2.4991,-2.5278,-2.6013,-2.6565,0.0,-2.7584,0.0,0.0,0.0,0.0,0.0,0.0,0.0,0.0,-3.2153,-3.2225,-3.2116,-3.2104,-3.2367,-3.3005,-3.2387,-3.2284,-3.3103,-3.2562,-3.2445,-3.3283,-3.3303,-3.3239,-3.322,-3.2455,-3.218,-3.2616,-3.1506,-3.0909,-3.153,-3.1103,-3.0892,-3.159,-3.1222,-3.0799,-3.0799,-3.0799,-3.0799,-3.0799,-3.0799,-3.0799,-3.0799,-3.0799,-3.0799,-3.0799,-3.0799,-3.0799,-3.0799,-3.0799,-3.0799,-3.0799,-3.0799,-3.0799,-3.0799,-3.0799,-3.0799,-3.0799,-3.0799,-3.0799,-2.9681,-2.9697,-2.9678,-2.9883,-3.0169,-3.015,-3.0267,-3.0425,-3.0482,-3.0583,-3.0711,-3.0768,-3.0801,-3.0801,-3.0801,-3.0784,-3.0786,-3.0797,-3.08,-3.0801,-3.0797,-3.0786,-3.0785,-3.0785,-3.079,-3.0804,-3.0799,-3.0798,-3.0785,-3.0791,-3.0799,-3.0788,-3.0793,-3.044,-2.9769,0.0,0.0,0.0,-2.5714,-2.5605,-2.5604,-2.5456,-2.5322,-2.5149,-2.5099,0.0,-2.4832,-2.4771,-2.4832,-2.4942,-2.5,0.0,0.0,0.0,0.0,0.0,0.0,0.0,0.0,0.0,0.0,0.0,-2.9832,-3.0164,-3.1008,-3.234,-3.2849,-3.2179,-3.2101,-3.1889,-3.133,-3.1154,-3.1388,-3.2211,-3.2192,-3.2445,-3.3259,-3.2771,-3.2348,-3.2328,-3.1487,-3.0944,-3.1079,-3.0734,-3.0586,-3.0761,-3.0625,-3.0615,-3.0768,-3.084,-3.0799,-3.0799,-3.0774,-3.0799,-3.0799,-3.0799,-3.0799,-3.0799,-3.0799,-3.0799,-3.0799,-3.0799,-3.0799,-3.0799,-3.0799,-3.0799,-3.0799,-3.0799,-3.0799,-3.0799,-3.0799,-3.0799,-3.0799,-3.0799,-3.0799,-2.9532,0.0,-2.9608,-2.9801,0.0,-3.0089,-3.0209,-3.039,-3.0428,-3.0518,-3.065,-3.0724,-3.0768,-3.0801,-3.0801,-3.0801,-3.0801,-3.079,-3.0796,-3.08,-3.0801,-3.0583,-3.016,-3.0591,-3.0353,-2.9556,-3.0384,-3.0583,-3.0203,-3.0596,-3.0796,-3.0804,-3.0796,-3.058,-3.0133,-2.9327,-2.8047,-2.6358,-2.587,-2.5571,-2.5549,-2.5456,-2.5312,-2.516,0.0,0.0,0.0,0.0,0.0,0.0,0.0,0.0,0.0,0.0,0.0,-2.7913,-2.8008,-2.8476,-2.9332,-2.9059,-2.9435,-3.0718,-3.0445,-3.0353,-3.0771,-3.1621,-3.1926,-3.1513,-3.1453,-3.1276,-3.0862,-3.0799,-3.0979,-3.1408,-3.1466,-3.1641,-3.1973,-3.166,-3.1382,-3.1417,-3.0937,-3.0552,-3.0552,-3.0453,-3.0402,-3.0402,-3.0392,-3.0413,-3.0443,-3.0571,-3.0651,-3.0651,-3.0685,-3.0684,-3.0703,-3.0769,-3.0799,-3.0799,-3.0739,-3.0734,-3.0794,-3.0739,-3.0709,-3.0774,-3.0799,-3.0799,-3.0799,-3.0799,-3.0799,-3.0799,-3.0799,-3.0799,-3.0799,-3.0799,-3.0799,-2.9471,-2.9551,-2.957,-2.9713,-3.0003,-3.0022,-3.0122,-3.0355,0.0,0.0,0.0,-3.0667,-3.0732,-3.0799,-3.0801,-3.0801,-3.0801,-3.0801,-3.0788,-3.0797,-3.0798,-3.0351,-2.9565,-3.023,-2.974,-2.8327,-2.9662,-3.0046,-2.9536,-3.0225,-3.0654,-3.0796,-3.0798,-3.0739,-3.0487,-2.9013,-2.7792,-2.7002,-2.6097,-2.5585,-2.5529,-2.5439,-2.5365,-2.5214,-2.5203,-2.5535,-2.6178,-2.6185,-2.6591,-2.7438,-2.7416,-2.7508,-2.7802,-2.7892,-2.8,-2.8229,-2.8383,-2.9149,-3.065,-3.0134,-3.0342,-3.1777,-3.1211,-3.079,-3.08,-3.08,-3.0792,-3.0788,-3.0798,-3.0799,-3.0799,-3.0799,-3.0799,-3.0799,-3.0799,-3.0799,-3.0769,-3.0671,-3.0672,-3.0697,-3.0599,-3.0472,-3.0443,-3.0367,-3.0266,-3.0253,-3.0273,-3.0278,-3.0351,-3.0443,-3.051,-3.0528,-3.056,-3.0591,-3.0579,-3.0652,-3.0748,-3.0722,-3.0646,-3.0639,-3.071,-3.0652,-3.0639,-3.0716,-3.0753,-3.0748,-3.0734,-3.0734,-3.0764,-3.0773,-3.0789,-3.0799,-3.0789,-3.0794,-3.0799,-2.9427,-2.9429,-2.9429,-2.9531,-2.9681,-2.9662,-2.9848,-3.0169,-3.0381,-3.0527,-3.06,-3.0667,-3.0732,-3.0801,-3.0801,-3.0801,-3.0801,-3.0801,-3.0801,0.0,-3.0784,-3.0348,-2.9529,-2.9626,-2.9166,-2.8283,-2.8455,-2.8895,-2.9442,-2.962,-3.0069,-3.0696,-3.0799,-3.0415,-2.9659,-2.8685,-2.7812,-2.6999,-2.6144,-2.5644,-2.5599,-2.5512,-2.5426,-2.5284,-2.5273,-2.531,-2.5373,-2.5393,-2.5757,-2.6592,-2.602,-2.6332,-2.7769,-2.796,-2.833,-2.9096,-2.988,-3.0448,-3.0696,-3.0629,-3.0721,-3.0958,-3.086,-3.0793,-3.08,-3.0797,-3.0786,-3.0798,-3.0784,-3.0799,-3.0799,-3.0799,-3.0799,-3.0799,-3.0799,-3.0764,-3.0659,-3.06,-3.0591,-3.0554,-3.0413,-3.0344,-3.0321,-3.0228,-3.0133,-3.0123,-3.0138,-3.0123,-3.0174,-3.0294,-3.0424,-3.0472,-3.0491,-3.0519,-3.05,-3.0509,-3.0554,-3.0537,-3.0537,-3.05,-3.0574,-3.0518,-3.0528,-3.0537,-3.0554,-3.0554,-3.0554,-3.0583,-3.0637,-3.0645,-3.0704,-3.0778,-3.0776,-3.0781,-3.0774,-2.9262,-2.9388,-2.9388,-2.921,-2.895,-2.9057,-2.9235,-2.9492,-3.0042,-3.0383,-3.0543,-3.0591,-3.0626,-3.0677,-3.0682,-3.0715,-3.0758,-3.0735,-3.0755,-3.0754,-3.0343,-2.9686,-2.8923,-2.8844,-2.8138,-2.6969,-2.7774,-2.8184,-2.8232,-2.9039,-2.9694,-3.0069,-3.0088,-2.9662,-2.8846,-2.7985,-2.7129,-2.6314,-2.5898,-2.5665,-2.5595,-2.5529,-2.5459,-2.5376,-2.5313,-2.5513,-2.5945,-2.5945,-2.6359,-2.7223,-2.6907,-2.7073,-2.7846,-2.7971,-2.8396,-2.9285,-2.9761,-3.0213,-3.0719,-3.0794,-3.0784,-3.0793,-3.0793,-3.08,-3.0788,-3.0793,-3.0786,-3.0789,-3.0799,-3.0799,-3.0799,-3.0799,-3.0799,-3.0799,-3.0799,-3.0739,-3.0626,-3.0556,-3.0527,-3.0492,-3.0314,-3.0222,-3.0292,-3.0194,-3.0098,-3.0083,-3.0068,-3.0053,-3.0087,-3.0128,-3.0203,-3.026,-3.0321,-3.0317,-3.0329,-3.0402,-3.0433,-3.0462,-3.0392,-3.0381,-3.0432,-3.0402,-3.0362,-3.0423,-3.0434,-3.0443,-3.0424,-3.0509,-3.0557,-3.0606,-3.0613,-3.0653,-3.0657,-3.0661,-3.0665,-2.9007,-2.9181,-2.9018,-2.8587,-2.8035,-2.8211,-2.8514,-2.8897,-2.9513,-3.0056,-3.0452,-3.0492,-3.0535,-3.0593,-3.0613,-3.0633,-3.0667,-3.0511,-3.0469,-3.0445,-2.9685,-2.8848,-2.8083,-2.8002,-2.72,-2.5986,-2.7027,-2.739,-2.717,-2.8299,-2.9124,-2.9455,-2.9513,-2.9104,-2.8281,-2.7419,-2.6562,-2.5753,-2.5689,-2.5676,-2.5601,-2.5532,-2.5473,-2.5414,-2.534,-2.562,-2.6255,-2.6294,-2.6717,-2.7505,-2.743,-2.7441,-2.7653,-2.7724,-2.8177,-2.9024,-2.9338,-2.9858,-3.0679,-3.0801,-3.0788,-3.0799,-3.0799,-3.08,-3.0801,-3.0786,-3.0801,-3.0793,-3.0799,-3.0799,-3.0799,-3.0799,-3.0774,-3.0764,-3.0739,-3.0678,-3.0548,-3.0482,-3.0413,-3.0389,-3.0228,-3.0138,-3.0188,-3.0157,-3.0087,-3.0038,-2.9988,-2.9988,-2.9991,-2.994,-2.9924,-2.9956,-3.0075,-3.0182,-3.0196,-3.0273,-3.0314,-3.0325,-3.026,-3.0132,-3.0067,-2.9921,-2.9775,-2.9725,-2.9693,-2.9616,-2.9734,-2.9959,-3.0181,-3.0372,-3.0482,-3.0424,-3.0229,-2.9958,-3.0178,-2.8535,-2.8469,-2.79,-2.725,-2.6809,-2.699,-2.7674,-2.8632,-2.8799,-2.9431,-3.0352,-3.0452,-3.0507,-3.0586,-3.0605,-3.0626,-3.0589,-2.9946,-2.9659,-2.9615,-2.8804,-2.7969,-2.7203,-2.7136,-2.661,-2.5811,-2.5921,-2.6369,-2.6833,-2.7102,-2.7978,-2.9338,-2.9513,-2.9028,-2.8198,-2.7393,-2.6561,-2.5721,-2.5694,-2.5676,-2.5601,-2.5532,-2.5486,-2.5395,-2.534,-2.5322,-2.5495,-2.5418,-2.5832,-2.6563,-2.6051,-2.6049,-2.6773,-2.6962,-2.7402,-2.8352,-2.9118,-2.994,-3.0684,-3.0801,-3.079,-3.0798,-3.08,-3.08,-3.0796,-3.0794,-3.0785,-3.0789,-3.0799,-3.0779,-3.0799,-3.0794,-3.0734,-3.0626,-3.0625,-3.0554,-3.0389,-3.0266,-3.0209,-3.0161,-3.0079,-3.0087,-3.0,-2.9972,-2.9956,-2.9872,-2.9855,-2.9805,-2.9681,-2.9662,-2.9589,-2.9533,-2.9769,-3.0034,-3.0064,-3.0098,-3.0075,-3.0094,-3.0113,-2.9851,-2.9413,-2.9084,-2.876,-2.8256,-2.8049,-2.8082,-2.8236,-2.8536,-2.9372,-2.9832,-3.0025,-3.0076,-2.9457,-2.8848,-2.8924,-2.8124,-2.7822,-2.7532,-2.6708,-2.575,-2.5724,-2.6468,-2.7544,-2.758,-2.8518,-2.9932,-2.9711,-2.9897,-3.0472,-3.0492,-3.0283,-2.9849,-2.9518,-2.9164,-2.8788,-2.793,-2.7319,-2.6944,-2.6425,-2.6022,-2.5718,-2.5699,-2.5874,-2.6225,-2.6673,-2.753,-2.8524,-2.8232,-2.7796,-2.7452,-2.6661,-2.6047,-2.5722,-2.5702,-2.5676,-2.5668,-2.5586,-2.5542,-2.5515,-2.5453,-2.541,-2.5418,-2.541,-2.5565,-2.5902,-2.564,-2.5628,-2.6003,-2.6101,-2.6532,-2.7457,-2.8785,-2.9687,-2.9999,-3.0488,-3.0801,-3.0795,-3.0793,-3.0784,-3.079,-3.0721,-3.0695,-3.0697,-3.0671,-3.0671,-3.0671,-3.0605,-3.0521,-3.0488,-3.0481,-3.0423,-3.0266,-3.0196,-3.0136,-2.9918,-2.9855,-2.9805,-2.9644,-2.9589,-2.957,-2.9551,-2.9551,-2.9532,-2.9435,-2.9435,-2.9377,-2.9336,-2.9513,-2.9608,-2.9644,-2.9626,-2.9626,-2.9626,-2.9626,-2.9401,-2.9246,-2.8666,-2.8067,-2.7031,-2.7043,-2.7182,-2.7449,-2.7641,-2.8227,-2.8803,-2.8483,-2.8171,-2.8195,-2.7988,-2.8192,-2.6843,-2.656,-2.6541,-2.5798,-2.4599,-2.4646,-2.5362,-2.6395,-2.647,-2.7522,-2.9129,-2.8744,-2.8957,-2.9706,-3.0167,-3.0008,-2.9387,-2.9297,-2.8933,-2.8242,-2.7402,-2.6867,-2.6542,-2.5987,-2.5707,-2.5699,-2.5699,-2.5699,-2.5796,-2.6498,-2.7219,-2.7667,-2.7199,-2.6919,-2.6897,-2.632,-2.6037,-2.6067,-2.6054,-2.6055,-2.6015,-2.5789,-2.5626,-2.5601,-2.5527,-2.5521,-2.5521,-2.5512,-2.5517,-2.5522,-2.5513,-2.5522,-2.5522,-2.558,-2.6013,-2.6962,-2.8535,-2.9509,-2.9509,-3.0286,-3.0765,-3.0762,-3.0751,-3.0706,-3.0678,-3.0605,-3.0556,-3.054,-3.0524,-3.0507,-3.0521,-3.0452,-3.0394,-3.0364,-3.0359,-3.0278,-3.0089,-3.0047,-2.9927,-2.9643,-2.9608,-2.9532,-2.9338,-2.9316,-2.9334,-2.9334,-2.9314,-2.9272,-2.9249,-2.9228,-2.9188,-2.9123,-2.9119,-2.9188,-2.9272,-2.9334,-2.9293,-2.9293,-2.9316,-2.9263,-2.908,-2.8258,-2.7177,-2.6037,-2.6244,-2.6262,-2.6176,-2.6446,-2.711,-2.7513,-2.721,-2.6602,-2.7153,-2.7064,-2.6924,-2.4444,-2.4479,-2.4435,-2.4116,-2.358,-2.3757,-2.4534,-2.5616,-2.5615,-2.6424,-2.7674,-2.7663,-2.7776,-2.8148,-2.9563,-2.9989,-2.9421,-2.9214,-2.8832,-2.817,-2.734,-2.6543,-2.5776,-2.5707,-2.5707,-2.5699,-2.5699,-2.5699,-2.5757,-2.6478,-2.6907,-2.6926,-2.6848,-2.6887,-2.6895,-2.6877,-2.6927,-2.693,-2.6944,-2.6929,-2.6812,-2.6131,-2.5719,-2.5616,-2.5535,-2.5531,-2.5511,-2.5519,-2.5512,-2.5512,-2.5572,-2.558,-2.56,-2.5664,-2.6073,-2.7009,-2.8551,-2.9489,-2.9583,-3.0247,-3.0704,-3.0691,-3.0594,-3.051,-3.0461,-3.0424,-3.0394,-3.0413,-3.0232,-3.022,-3.0334,-3.0342,-3.0306,-3.0209,-3.0209,-3.0037,-2.9769,-2.968,-2.9533,-2.9375,-2.9314,-2.9272,-2.9272,-2.9293,-2.9251,-2.9251,-2.9272,-2.9188,-2.8966,-2.8962,-2.8845,-2.8676,-2.8626,-2.8749,-2.9148,-2.9188,-2.9209,-2.9153,-2.8978,-2.8975,-2.8107,-2.7196,-2.5987,-2.5041,-2.4912,-2.4837,-2.4761,-2.5201,-2.6068,-2.6333,-2.5914,-2.5674,-2.6167,-2.5646,-2.5577,-2.3842,-2.3357,-2.2794,-2.2445,-2.2334,-2.266,-2.3446,-2.439,-2.4299,-2.5335,-2.681,-2.665,-2.6597,-2.6952,-2.8249,-2.8769,-2.8534,-2.8021,-2.7659,-2.7357,-2.6562,-2.5993,-2.5748,-2.5687,-2.5691,-2.5699,-2.5699,-2.5699,-2.5718,-2.6011,-2.6128,-2.6147,-2.6128,-2.6361,-2.6809,-2.6919,-2.7195,-2.7725,-2.7764,-2.752,-2.7073,-2.6691,-2.6288,-2.5701,-2.566,-2.5621,-2.5641,-2.5623,-2.5624,-2.5624,-2.5644,-2.5664,-2.5663,-2.5677,-2.608,-2.6974,-2.8018,-2.8827,-2.9357,-3.0082,-3.051,-3.0496,-3.0481,-3.0395,-3.0364,-3.0232,-3.0081,-3.0027,-2.9788,-2.9672,-2.9739,-2.995,-3.0085,-2.9915,-2.9851,-2.9732,-2.9514,-2.9415,-2.9353,-2.9141,-2.8984,-2.8845,-2.8845,-2.8845,-2.8845,-2.8845,-2.8688,-2.8529,-2.8402,-2.829,-2.8192,-2.8055,-2.8045,-2.8083,-2.8192,-2.8658,-2.8827,-2.8662,-2.8534,-2.8462,-2.7864,-2.6597,-2.5377,-2.4534,-2.4114,-2.4136,-2.4321,-2.4559,-2.5316,-2.5218,-2.4757,-2.4979,-2.519,-2.5045,-2.4988,-2.2313,-2.1987,-2.1389,-2.1287,-2.1469,-2.1782,-2.2417,-2.316,-2.3072,-2.4046,-2.5425,-2.5298,-2.5358,-2.5844,-2.6766,-2.7342,-2.7549,-2.7356,-2.7209,-2.6951,-2.6387,-2.5991,-2.574,-2.5704,-2.5691,-2.5679,-2.5663,-2.563,-2.559,-2.5554,-2.556,-2.5609,-2.5744,-2.6152,-2.6784,-2.7278,-2.7893,-2.8429,-2.8529,-2.8233,-2.7731,-2.7366,-2.6922,-2.6411,-2.6262,-2.6167,-2.6071,-2.6049,-2.6041,-2.6013,-2.6009,-2.5896,-2.5642,-2.5601,-2.5862,-2.6495,-2.7466,-2.8074,-2.8451,-2.9505,-3.009,-2.98,-2.9979,-3.0073,-3.0027,-2.9836,-2.9723,-2.9621,-2.9495,-2.9297,-2.9319,-2.9495,-2.9607,-2.9551,-2.9532,-2.9435,-2.923,-2.9104,-2.8883,-2.859,-2.8404,-2.8335,-2.8309,-2.8309,-2.8291,-2.8291,-2.811,-2.7964,-2.7954,-2.784,-2.7701,-2.7701,-2.776,-2.776,-2.784,-2.812,-2.8255,-2.8111,-2.8149,-2.8051,-2.7441,-2.6108,-2.4982,-2.4165,-2.3828,-2.3858,-2.3981,-2.4174,-2.4247,-2.4265,-2.4425,-2.4652,-2.4722,-2.4701,-2.4738,-1.9641,-2.002,-2.0156,-2.0393,-2.0751,-2.0941,-2.1401,-2.1871,-2.1995,-2.2658,-2.3617,-2.3668,-2.4081,-2.4622,-2.5283,-2.5805,-2.6436,-2.7269,-2.744,-2.6972,-2.6816,-2.6322,-2.5648,-2.5616,-2.5621,-2.5615,-2.554,-2.5434,-2.5313,-2.5302,-2.5331,-2.5483,-2.5852,-2.6324,-2.6743,-2.795,-2.8797,-2.9023,-2.9043,-2.9052,-2.9042,-2.8037,-2.7484,-2.7396,-2.7216,-2.7033,-2.6804,-2.678,-2.6713,-2.6688,-2.6641,-2.6265,-2.5507,-2.5368,-2.5421,-2.5757,-2.692,-2.7209,-2.6902,-2.8611,-2.9361,-2.8931,-2.9101,-2.942,-2.9324,-2.9263,-2.9221,-2.9198,-2.9175,-2.9191,-2.9107,-2.8964,-2.8924,-2.9233,-2.9193,-2.9086,-2.892,-2.8688,-2.8324,-2.7926,-2.7818,-2.773,-2.773,-2.7818,-2.78,-2.7742,-2.7654,-2.7577,-2.747,-2.7378,-2.7565,-2.7565,-2.7317,-2.7144,-2.7378,-2.7654,-2.7636,-2.7625,-2.7733,-2.7665,-2.6887,-2.5772,-2.4748,-2.3925,-2.3611,-2.3628,-2.3628,-2.3801,-2.3883,-2.3943,-2.4155,-2.4265,-2.4319,-2.4373,-2.4547,-1.709,-1.6824,-1.8103,-1.8451,-1.8384,-1.926,-1.998,-2.0445,-2.1034,-2.1687,-2.2176,-2.2527,-2.2919,-2.3436,-2.4219,-2.4629,-2.5014,-2.565,-2.6188,-2.6384,-2.5926,-2.5518,-2.5265,-2.5221,-2.5228,-2.5194,-2.5091,-2.4919,-2.4828,-2.5156,-2.5343,-2.5333,-2.5831,-2.6543,-2.7145,-2.7716,-2.8221,-2.8853,-2.8944,-2.8663,-2.8083,-2.7697,-2.7358,-2.7017,-2.6915,-2.7055,-2.7437,-2.7211,-2.716,-2.7281,-2.6685,-2.5974,-2.5302,-2.5039,-2.5244,-2.578,-2.6181,-2.6996,-2.7669,-2.8265,-2.8783,-2.8678,-2.8867,-2.8846,-2.8625,-2.8494,-2.8431,-2.8381,-2.8288,-2.8192,-2.8166,-2.8094,-2.821,-2.87,-2.8542,-2.8366,-2.8139,-2.8037,-2.7897,-2.7742,-2.7701,-2.7701,-2.7701,-2.7672,-2.747,-2.722,-2.7063,-2.6888,-2.6623,-2.6455,-2.6179,-2.6179,-2.6179,-2.6386,-2.6522,-2.6554,-2.6482,-2.6619,-2.6864,-2.707,-2.6329,-2.5525,-2.453,-2.3845,-2.3513,-2.3376,-2.3399,-2.3427,-2.354,-2.354,-2.3631,-2.378,-2.3905,-2.408,-2.4248,-1.3994,-1.3649,-1.5346,-1.5985,-1.6028,-1.7828,-1.8951,-1.9329,-1.92,-1.9405,-1.9763,-1.9861,-1.9131,-1.8406,-1.8858,-1.8139,-1.6788,-1.6897,-1.8448,-2.1346,-2.4145,-2.4549,-2.4679,-2.4956,-2.4814,-2.4644,-2.4762,-2.4596,-2.4185,-2.4499,-2.4668,-2.4693,-2.5218,-2.5817,-2.6535,-2.6778,-2.726,-2.7765,-2.7783,-2.7583,-2.7113,-2.6946,-2.6872,-2.6765,-2.6459,-2.684,-2.7657,-2.7282,-2.712,-2.7255,-2.6688,-2.5905,-2.5182,-2.5269,-2.5506,-2.5712,-2.6236,-2.6842,-2.734,-2.7885,-2.8113,-2.8064,-2.8218,-2.8304,-2.8103,-2.7949,-2.7855,-2.7648,-2.7584,-2.7439,-2.7265,-2.7126,-2.7247,-2.7508,-2.7791,-2.7672,-2.7409,-2.7286,-2.7112,-2.6935,-2.6838,-2.6853,-2.6871,-2.6871,-2.6788,-2.6506,-2.6318,-2.616,-2.5822,-2.5656,-2.5524,-2.5465,-2.5672,-2.573,-2.5582,-2.5448,-2.5316,-2.5581,-2.588,-2.6073,-2.5841,-2.5059,-2.4176,-2.3612,-2.3212,-2.3212,-2.3236,-2.3188,-2.3259,-2.323,-2.323,-2.3422,-2.3631,-2.3735,-2.3919,-1.0188,-1.0431,-1.1909,-1.2644,-1.3201,-1.5452,-1.6633,-1.7503,-1.6017,-1.5266,-1.5655,-1.535,-1.3377,-1.0495,-1.098,-0.9324,-0.4819,-0.5836,-0.8679,-1.3376,-1.8442,-2.2097,-2.3028,-2.3529,-2.341,-2.323,-2.3678,-2.37,-2.2705,-2.2808,-2.3219,-2.3084,-2.3473,-2.4165,-2.4312,-2.5096,-2.5196,-2.5323,-2.5535,-2.5452,-2.5435,-2.5545,-2.5744,-2.6299,-2.5746,-2.5981,-2.6956,-2.6684,-2.6609,-2.7001,-2.6643,-2.605,-2.5495,-2.5931,-2.5853,-2.5317,-2.6615,-2.6524,-2.6279,-2.7133,-2.7682,-2.683,-2.7227,-2.7595,-2.7435,-2.7344,-2.722,-2.6948,-2.6884,-2.6737,-2.6421,-2.6112,-2.5988,-2.604,-2.6787,-2.7031,-2.664,-2.6539,-2.6334,-2.5803,-2.5524,-2.5524,-2.5656,-2.5656,-2.5545,-2.5486,-2.5449,-2.5319,-2.5166,-2.5012,-2.5275,-2.5237,-2.5082,-2.5121,-2.4989,-2.4815,-2.4628,-2.4354,-2.458,-2.4678,-2.4795,-2.4109,-2.3605,-2.3094,-2.2857,-2.295,-2.301,-2.291,-2.291,-2.291,-2.301,-2.3206,-2.3324,-2.3399,-2.3558,-0.4291,-0.4451,-0.6002,-0.6439,-0.6292,-0.7727,-0.8561,-0.8958,-0.8738,-0.8618,-0.879,-0.9039,-0.7676,-0.5667,-0.6166,-0.6105,-0.4635,-0.4981,-0.7275,-1.0095,-1.1782,-1.579,-1.8781,-1.9596,-1.9632,-1.9521,-1.9588,-1.9362,-1.9072,-1.9401,-1.9572,-1.9502,-2.0045,-2.0478,-2.0696,-2.0796,-2.0879,-2.0968,-2.0997,-2.1083,-2.1255,-2.1957,-2.2494,-2.2924,-2.3535,-2.4225,-2.5012,-2.5099,-2.5544,-2.6405,-2.6673,-2.6179,-2.5222,-2.5435,-2.5428,-2.5112,-2.5464,-2.585,-2.5656,-2.6155,-2.6415,-2.6218,-2.632,-2.6352,-2.6073,-2.6073,-2.6019,-2.5895,-2.5717,-2.5517,-2.5352,-2.5048,-2.4893,-2.4987,-2.5521,-2.5898,-2.5839,-2.5799,-2.5672,-2.5503,-2.5243,-2.515,-2.515,-2.4941,-2.4649,-2.4561,-2.444,-2.4194,-2.407,-2.4158,-2.4282,-2.4256,-2.4188,-2.4354,-2.4402,-2.42,-2.3904,-2.3335,-2.3185,-2.303,-2.2975,-2.2587,-2.2291,-2.2027,-2.2164,-2.2275,-2.2409,-2.247,-2.2497,-2.2588,-2.2721,-2.2876,-2.2935,-2.3035,-2.3188,0.0106,0.0054,-0.0466,-0.0462,0.0103,0.0913,0.1253,0.0743,-0.0581,-0.0925,-0.0915,-0.209,-0.0732,0.2057,0.1211,0.1747,0.2852,0.2431,0.0447,-0.2898,-0.5118,-0.9335,-1.3506,-1.4785,-1.5004,-1.5108,-1.5279,-1.5141,-1.4855,-1.5124,-1.5225,-1.5137,-1.5506,-1.5728,-1.5777,-1.6598,-1.6934,-1.7111,-1.7682,-1.8169,-1.8244,-1.8871,-1.951,-1.9972,-2.0776,-2.1401,-2.2221,-2.2787,-2.3818,-2.5278,-2.5985,-2.5771,-2.4924,-2.5145,-2.5133,-2.4641,-2.4905,-2.5146,-2.5193,-2.5395,-2.544,-2.5387,-2.5368,-2.5271,-2.5134,-2.5073,-2.5035,-2.4665,-2.4474,-2.4246,-2.3956,-2.3673,-2.3531,-2.3473,-2.3655,-2.4087,-2.4705,-2.4816,-2.4736,-2.4536,-2.4261,-2.4024,-2.423,-2.3701,-2.3402,-2.3259,-2.3274,-2.3025,-2.2786,-2.3024,-2.3172,-2.3187,-2.3332,-2.3488,-2.3224,-2.2949,-2.2486,-2.1991,-2.1713,-2.1523,-2.1632,-2.1408,-2.158,-2.157,-2.157,-2.1661,-2.1915,-2.2106,-2.222,-2.2315,-2.2443,-2.2579,-2.2694,-2.2747,-2.2884,0.3579,0.3689,0.4459,0.4896,0.537,0.8447,0.902,0.9302,0.6869,0.6275,0.6473,0.4821,0.6373,1.1315,0.8958,1.1229,1.4545,1.2148,0.9923,0.5605,0.1525,-0.3191,-0.6956,-0.9548,-1.0165,-1.0348,-1.1075,-1.0931,-1.0543,-1.0466,-1.0494,-1.0487,-1.0509,-1.0588,-1.1088,-1.2355,-1.3191,-1.3528,-1.4524,-1.5117,-1.5249,-1.5704,-1.6299,-1.6972,-1.7897,-1.8554,-1.9509,-2.0399,-2.178,-2.4141,-2.4821,-2.4612,-2.4159,-2.4799,-2.4714,-2.4255,-2.4388,-2.47,-2.4674,-2.4571,-2.4524,-2.4306,-2.4199,-2.4199,-2.402,-2.3921,-2.3755,-2.3258,-2.3259,-2.2818,-2.2395,-2.2025,-2.1965,-2.1937,-2.1627,-2.208,-2.3069,-2.3591,-2.3492,-2.3143,-2.2606,-2.2409,-2.2211,-2.1932,-2.1602,-2.2108,-2.209,-2.1918,-2.1805,-2.2007,-2.2146,-2.2211,-2.2386,-2.2629,-2.2162,-2.1618,-2.102,-2.0502,-2.0228,-2.0162,-2.0699,-2.0744,-2.1055,-2.1214,-2.123,-2.1417,-2.1661,-2.1827,-2.1945,-2.2106,-2.2276,-2.2415,-2.2552,-2.2579,-2.2668,0.7563,0.7563,0.7534,0.801,0.8806,0.9607,1.0426,1.1129,1.0768,1.0603,1.078,1.0479,1.1855,1.4227,1.3508,1.3826,1.4272,1.3588,1.1436,0.8521,0.6947,0.5065,0.1824,-0.2424,-0.5064,-0.5363,-0.5984,-0.6229,-0.6069,-0.6116,-0.6085,-0.6136,-0.6237,-0.6337,-0.7038,-0.7996,-0.8726,-0.9194,-0.9824,-1.0184,-1.067,-1.1692,-1.2636,-1.3418,-1.5268,-1.6475,-1.7049,-1.7984,-1.8978,-2.0051,-2.1489,-2.2367,-2.27,-2.3146,-2.3146,-2.2931,-2.3371,-2.361,-2.3229,-2.3228,-2.3314,-2.2878,-2.2505,-2.2232,-2.2084,-2.2055,-2.1931,-2.1694,-2.1485,-2.1129,-2.0729,-2.067,-2.0544,-2.0481,-2.0419,-2.0468,-2.0948,-2.1472,-2.1708,-2.1627,-2.1308,-2.1164,-2.1329,-2.0752,-2.0617,-2.0899,-2.0864,-2.0792,-2.0841,-2.0939,-2.1121,-2.1205,-2.1404,-2.1555,-2.1052,-2.0441,-1.9766,-1.9293,-1.9008,-1.8991,-1.9498,-1.9974,-2.0215,-2.0565,-2.0925,-2.1071,-2.1166,-2.157,-2.1691,-2.1886,-2.2077,-2.2163,-2.2231,-2.2304,-2.2304,1.0324,1.0316,1.0399,1.0705,1.1189,1.1509,1.2008,1.2753,1.3459,1.3897,1.4259,1.4718,1.5607,1.647,1.5825,1.5204,1.4681,1.3516,1.1634,0.9549,0.8701,0.804,0.6733,0.3524,0.0975,0.013,-0.0391,-0.0983,-0.1713,-0.2046,-0.2175,-0.2449,-0.2513,-0.2704,-0.3302,-0.4358,-0.5202,-0.5788,-0.6521,-0.6914,-0.7223,-0.8557,-1.0207,-1.1167,-1.292,-1.3874,-1.452,-1.509,-1.5792,-1.6622,-1.7762,-1.9309,-2.0625,-2.1091,-2.1057,-2.1036,-2.1097,-2.155,-2.1397,-2.1397,-2.1288,-2.1102,-2.0775,-2.0377,-2.0089,-1.9951,-1.9863,-1.9699,-1.952,-1.9312,-1.9036,-1.8826,-1.8826,-1.8732,-1.8626,-1.8466,-1.8667,-1.957,-2.0304,-2.0141,-1.9623,-1.9366,-1.9224,-1.9105,-1.8802,-1.8766,-1.9068,-1.904,-1.9362,-1.9505,-1.9991,-2.0181,-2.0445,-2.0381,-1.994,-1.9288,-1.8524,-1.8152,-1.7949,-1.8078,-1.8454,-1.891,-1.9332,-1.9707,-2.0124,-2.0296,-2.0467,-2.091,-2.1323,-2.1446,-2.1568,-2.1721,-2.1811,-2.1811,-2.1764,1.211,1.215,1.2561,1.2802,1.3052,1.3484,1.399,1.4652,1.5643,1.6328,1.6983,1.7738,1.7782,1.7996,1.7105,1.657,1.5771,1.4246,1.217,1.1022,1.0454,0.9648,0.8345,0.7486,0.6302,0.4957,0.3833,0.2854,0.1736,0.1543,0.0933,0.0537,0.0471,0.0134,-0.0201,-0.1333,-0.2452,-0.2847,-0.3888,-0.4674,-0.5,-0.6169,-0.7728,-0.9617,-1.0662,-1.1341,-1.2074,-1.2554,-1.2995,-1.3733,-1.3912,-1.5424,-1.7245,-1.8582,-1.871,-1.8646,-1.8541,-1.879,-1.9152,-1.9214,-1.9108,-1.908,-1.8948,-1.8672,-1.8254,-1.8135,-1.8093,-1.7943,-1.7816,-1.7773,-1.7423,-1.7379,-1.7213,-1.7113,-1.6743,-1.6482,-1.6698,-1.7915,-1.8407,-1.8684,-1.8193,-1.7858,-1.7543,-1.7412,-1.6935,-1.6733,-1.7092,-1.7467,-1.7775,-1.8058,-1.8531,-1.8626,-1.8708,-1.8729,-1.8314,-1.8045,-1.7262,-1.726,-1.7024,-1.7231,-1.749,-1.7679,-1.8143,-1.8826,-1.9214,-1.9456,-1.9778,-2.023,-2.0567,-2.083,-2.1134,-2.1354,-2.1354,-2.1276,-2.126,1.2522,1.2609,1.2696,1.3223,1.4029,1.4635,1.5558,1.6718,1.7587,1.8261,1.8597,1.8767,1.8862,1.8603,1.797,1.716,1.6119,1.4686,1.3791,1.3028,1.2435,1.1494,1.1051,1.0431,0.9787,0.8361,0.6481,0.4659,0.3742,0.3737,0.3074,0.2679,0.2482,0.2213,0.154,0.0801,-0.0067,-0.0466,-0.1061,-0.1525,-0.2187,-0.3177,-0.482,-0.7113,-0.8431,-0.9279,-0.9793,-1.0683,-1.1246,-1.1224,-1.1621,-1.2004,-1.2957,-1.4677,-1.5652,-1.6012,-1.6073,-1.6245,-1.6709,-1.6907,-1.7005,-1.7093,-1.7092,-1.698,-1.6768,-1.6711,-1.6455,-1.6476,-1.6419,-1.644,-1.6518,-1.6213,-1.6337,-1.6348,-1.6177,-1.6063,-1.612,-1.6156,-1.6296,-1.6567,-1.643,-1.6451,-1.628,-1.6234,-1.613,-1.6026,-1.6224,-1.6553,-1.68,-1.6912,-1.7013,-1.6957,-1.6789,-1.6751,-1.661,-1.6421,-1.6102,-1.6411,-1.6367,-1.6398,-1.6539,-1.6509,-1.6866,-1.7747,-1.838,-1.875,-1.9111,-1.9477,-1.9814,-2.0043,-2.0501,-2.0926,-2.0748,-2.0567,-2.0829,1.3679,1.38,1.4305,1.4983,1.5748,1.6249,1.7115,1.8213,1.9086,1.9354,1.9385,1.9645,1.9556,1.9024,1.8491,1.7431,1.6105,1.5187,1.4373,1.3726,1.2834,1.2212,1.1958,1.1469,1.0528,0.9308,0.7812,0.6113,0.4604,0.4532,0.4138,0.3145,0.2947,0.2746,0.2476,0.2074,0.1737,0.147,0.1336,0.1002,0.0201,-0.1,-0.3057,-0.5035,-0.6286,-0.708,-0.7802,-0.8249,-0.8751,-0.8937,-0.9174,-0.9231,-0.9662,-1.0588,-1.2248,-1.3237,-1.3424,-1.3812,-1.4434,-1.4743,-1.4666,-1.5061,-1.5061,-1.4798,-1.4523,-1.4337,-1.4464,-1.4405,-1.4355,-1.4346,-1.4287,-1.4396,-1.4346,-1.4346,-1.4346,-1.4405,-1.4287,-1.4058,-1.4177,-1.4523,-1.4836,-1.5089,-1.5352,-1.5303,-1.5362,-1.542,-1.5468,-1.5575,-1.5796,-1.5853,-1.5843,-1.5987,-1.5961,-1.5827,-1.5669,-1.5423,-1.5234,-1.5435,-1.5703,-1.5736,-1.5824,-1.5913,-1.625,-1.6909,-1.7463,-1.7933,-1.821,-1.8545,-1.8887,-1.92,-1.9492,-1.9728,-1.9834,-1.9904,-2.0143,1.5218,1.5339,1.6128,1.6812,1.7374,1.7804,1.8444,1.9347,2.0096,2.0115,1.9723,2.0051,1.99,1.9132,1.8383,1.7368,1.5938,1.5419,1.4669,1.3906,1.3078,1.2266,1.1703,1.1024,1.0591,1.0218,0.9703,0.8071,0.6048,0.572,0.4797,0.427,0.3673,0.3476,0.3473,0.3737,0.3473,0.3211,0.3276,0.2943,0.174,-0.0067,-0.1934,-0.3654,-0.4122,-0.4913,-0.5636,-0.6025,-0.6355,-0.6616,-0.6815,-0.6815,-0.695,-0.7279,-0.8617,-1.0385,-1.058,-1.1443,-1.2112,-1.2469,-1.2271,-1.2651,-1.2813,-1.2594,-1.235,-1.2342,-1.2235,-1.212,-1.2174,-1.2227,-1.2281,-1.2174,-1.2174,-1.2174,-1.2235,-1.2181,-1.2227,-1.2219,-1.2281,-1.2655,-1.3304,-1.3683,-1.3855,-1.4043,-1.4085,-1.4094,-1.4076,-1.4136,-1.4364,-1.4805,-1.4925,-1.5278,-1.5366,-1.5147,-1.4996,-1.475,-1.4591,-1.4651,-1.4926,-1.5108,-1.5289,-1.5424,-1.5844,-1.6194,-1.6527,-1.6954,-1.7258,-1.7639,-1.8052,-1.838,-1.8486,-1.8717,-1.9066,-1.9229,-1.9391,1.706,1.718,1.7305,1.7689,1.8282,1.8769,1.9347,1.9923,2.0509,2.0648,2.0257,1.9736,1.9438,1.8867,1.7709,1.6965,1.6513,1.5941,1.542,1.4883,1.4094,1.3545,1.3485,1.2789,1.1794,1.117,1.117,0.9882,0.8006,0.7562,0.7177,0.6318,0.599,0.6063,0.5335,0.5529,0.5738,0.4888,0.508,0.468,0.3282,0.1272,0.0134,-0.0802,-0.1934,-0.3133,-0.3529,-0.399,-0.4389,-0.4731,-0.4797,-0.4866,-0.5074,-0.514,-0.5924,-0.7223,-0.82,-0.9105,-0.9597,-0.9907,-1.009,-1.0468,-1.0649,-1.0774,-1.0781,-1.0718,-1.0718,-1.0711,-1.0711,-1.0711,-1.0656,-1.0711,-1.0711,-1.0718,-1.0662,-1.0656,-1.0711,-1.0662,-1.0662,-1.0732,-1.1293,-1.1866,-1.2304,-1.2504,-1.2757,-1.2696,-1.2757,-1.281,-1.2984,-1.3408,-1.4127,-1.4513,-1.4475,-1.4248,-1.4418,-1.4171,-1.4073,-1.3952,-1.4233,-1.4512,-1.4789,-1.5017,-1.5153,-1.5501,-1.5788,-1.6051,-1.6398,-1.6811,-1.7271,-1.7558,-1.7774,-1.8147,-1.8553,-1.8644,-1.8683,1.8281,1.7874,1.812,1.859,1.9126,1.9363,1.9971,2.0697,2.088,2.0713,2.0374,2.0156,1.9527,1.859,1.7722,1.719,1.6591,1.5961,1.543,1.5079,1.4341,1.3683,1.3086,1.2544,1.1996,1.1926,1.1428,1.0856,0.9633,0.8924,0.8345,0.7762,0.7377,0.6985,0.6728,0.6662,0.6272,0.5675,0.5209,0.448,0.3349,0.2143,0.1006,0.0268,-0.067,-0.1472,-0.2207,-0.2608,-0.3143,-0.3549,-0.3685,-0.3754,-0.3956,-0.4156,-0.4686,-0.5077,-0.5994,-0.7102,-0.8345,-0.835,-0.8538,-0.886,-0.9163,-0.9354,-0.9348,-0.9215,-0.9145,-0.9215,-0.9151,-0.9082,-0.9018,-0.9087,-0.9082,-0.9082,-0.9082,-0.9145,-0.9145,-0.9215,-0.9221,-0.9221,-0.9285,-0.9857,-1.0418,-1.0788,-1.11,-1.1363,-1.1356,-1.141,-1.1658,-1.1974,-1.2805,-1.3731,-1.3573,-1.3241,-1.357,-1.3651,-1.3585,-1.3552,-1.3716,-1.4035,-1.4373,-1.4605,-1.4743,-1.4971,-1.5322,-1.5546,-1.5647,-1.612,-1.6655,-1.6909,-1.7089,-1.7407,-1.7747,-1.8082,-1.8121,1.9484,1.862,1.8857,1.9303,1.985,1.9812,2.0324,2.1094,2.0944,2.0581,2.0169,1.9952,1.915,1.8147,1.7722,1.719,1.6477,1.5941,1.5468,1.4815,1.4231,1.3752,1.3329,1.2658,1.2351,1.2166,1.1802,1.1421,1.1038,1.0275,0.9308,0.8731,0.8549,0.8032,0.7647,0.7512,0.7251,0.6531,0.5348,0.4553,0.3818,0.3149,0.2211,0.1408,0.0671,0.0,-0.0938,-0.1274,-0.1609,-0.2147,-0.2283,-0.2283,-0.2619,-0.2885,-0.3284,-0.3613,-0.4207,-0.5127,-0.6314,-0.6846,-0.7116,-0.7377,-0.7502,-0.7228,-0.7298,-0.7242,-0.7037,-0.6889,-0.6824,-0.6828,-0.6967,-0.7033,-0.7163,-0.7228,-0.7367,-0.7437,-0.7502,-0.7558,-0.7623,-0.7627,-0.7692,-0.7762,-0.8264,-0.882,-0.9325,-0.9838,-1.0027,-1.0021,-1.0385,-1.0684,-1.1382,-1.2309,-1.2377,-1.2089,-1.2384,-1.2682,-1.2754,-1.3074,-1.3276,-1.3467,-1.3742,-1.4082,-1.4316,-1.4593,-1.4869,-1.5108,-1.5334,-1.5691,-1.6044,-1.6293,-1.6497,-1.6552,-1.685,-1.7269,-1.7625,2.0969,1.9831,1.9573,1.9766,2.0323,2.0316,2.0454,2.0746,2.066,2.0308,1.9747,1.9016,1.8375,1.7634,1.7301,1.7032,1.6761,1.6751,1.6285,1.5816,1.5352,1.4647,1.4043,1.3502,1.3208,1.3147,1.2597,1.2351,1.2166,1.1413,1.0661,1.0168,0.9652,0.9198,0.8812,0.849,0.7902,0.7125,0.5881,0.5226,0.4821,0.4353,0.3816,0.3482,0.2614,0.1878,0.1743,0.0939,0.0201,-0.0537,-0.0738,-0.1007,-0.1478,-0.1611,-0.1944,-0.2342,-0.2542,-0.3336,-0.4135,-0.5001,-0.5074,-0.5011,-0.5011,-0.5137,-0.5203,-0.4475,-0.4143,-0.4469,-0.4797,-0.4535,-0.4538,-0.4544,-0.52,-0.5401,-0.5665,-0.5866,-0.5935,-0.6005,-0.6005,-0.6017,-0.6083,-0.6137,-0.633,-0.6894,-0.7742,-0.8254,-0.8516,-0.8511,-0.9133,-0.9519,-0.9987,-1.0595,-1.0852,-1.0915,-1.1044,-1.1377,-1.185,-1.2246,-1.254,-1.2725,-1.2957,-1.3351,-1.3742,-1.4129,-1.4398,-1.4686,-1.4971,-1.5232,-1.5457,-1.568,-1.5901,-1.6132,-1.6417,-1.6871,-1.7151,2.0347,1.9661,1.9847,1.9953,1.9999,2.01,2.0329,2.0607,2.0372,1.9978,1.95,1.9133,1.8441,1.7744,1.7479,1.7155,1.6874,1.6761,1.6457,1.5989,1.541,1.4874,1.4341,1.3863,1.345,1.345,1.3208,1.3086,1.3025,1.2343,1.1919,1.1365,1.0555,0.9977,0.9524,0.8877,0.8096,0.7251,0.6276,0.5557,0.502,0.4818,0.4417,0.3813,0.3613,0.2876,0.2407,0.174,0.1071,0.0469,0.0067,-0.0268,-0.0469,-0.0537,-0.0804,-0.1138,-0.1272,-0.1608,-0.2345,-0.3278,-0.4077,-0.4079,-0.4013,-0.388,-0.3813,-0.3682,-0.3618,-0.3616,-0.3347,-0.328,-0.348,-0.368,-0.388,-0.3949,-0.4084,-0.4353,-0.4553,-0.4686,-0.4688,-0.4885,-0.4683,-0.4544,-0.4809,-0.5074,-0.587,-0.6662,-0.6859,-0.7172,-0.7812,-0.8248,-0.8751,-0.9193,-0.9518,-1.0216,-1.0428,-1.0688,-1.1023,-1.146,-1.1909,-1.2138,-1.2374,-1.256,-1.2996,-1.3437,-1.3884,-1.4107,-1.4351,-1.4628,-1.4915,-1.5244,-1.5558,-1.5913,-1.6225,-1.6449,-1.6748,1.9497,1.9111,1.978,1.993,1.9707,1.9882,2.0158,2.027,1.9978,1.9577,1.9146,1.8999,1.856,1.7865,1.7601,1.739,1.7043,1.6931,1.6524,1.6056,1.5526,1.4991,1.441,1.4061,1.389,1.3761,1.3571,1.3502,1.3511,1.3147,1.2466,1.1608,1.0863,1.0295,0.9716,0.8935,0.8021,0.7507,0.6597,0.6009,0.5474,0.5213,0.5017,0.4478,0.4212,0.3678,0.3143,0.2608,0.2006,0.1471,0.1071,0.0803,0.0603,0.0402,0.0268,0.0067,-0.0067,-0.0268,-0.1006,-0.2012,-0.2945,-0.288,-0.2746,-0.2811,-0.3013,-0.295,-0.2549,-0.2616,-0.2547,-0.2614,-0.2614,-0.2748,-0.288,-0.3015,-0.3416,-0.3685,-0.3685,-0.3751,-0.3685,-0.3685,-0.3616,-0.3682,-0.3816,-0.4148,-0.5014,-0.5782,-0.6238,-0.6452,-0.6677,-0.7103,-0.737,-0.7855,-0.8311,-0.917,-0.9953,-0.9956,-1.0072,-1.0905,-1.1351,-1.1651,-1.1891,-1.208,-1.2365,-1.2851,-1.3246,-1.3484,-1.3826,-1.4222,-1.4558,-1.4846,-1.5188,-1.5449,-1.5608,-1.587,-1.6315,1.8675,1.8296,1.9334,1.9655,1.9468,1.9951,1.9914,1.9565,1.946,1.9146,1.8614,1.8224,1.8007,1.7744,1.749,1.7334,1.7222,1.7155,1.6807,1.6171,1.5758,1.5245,1.4843,1.4506,1.4387,1.4327,1.407,1.3812,1.3812,1.3147,1.2466,1.2027,1.1476,1.0674,1.004,0.932,0.8988,0.8731,0.7442,0.6859,0.647,0.6013,0.5749,0.5484,0.5147,0.4544,0.4146,0.3744,0.3209,0.2678,0.2743,0.2477,0.2079,0.208,0.1745,0.1075,0.1008,0.0873,0.047,-0.0672,-0.1141,-0.141,-0.1342,-0.1275,-0.1478,-0.1412,-0.1142,-0.1208,-0.1208,-0.1208,-0.1343,-0.1678,-0.1946,-0.2214,-0.2616,-0.2817,-0.275,-0.275,-0.2683,-0.2616,-0.295,-0.3149,-0.3215,-0.3416,-0.4284,-0.4973,-0.5528,-0.5792,-0.5875,-0.6062,-0.6341,-0.6703,-0.7259,-0.7829,-0.8575,-0.8798,-0.919,-1.0123,-1.0804,-1.115,-1.141,-1.166,-1.194,-1.2325,-1.2579,-1.2842,-1.3334,-1.3821,-1.4164,-1.4559,-1.4711,-1.4911,-1.5061,-1.5394,-1.5985,1.8687,1.8267,1.9376,1.9517,1.918,1.9598,1.9512,1.9081,1.904,1.8815,1.8321,1.805,1.7799,1.7545,1.7445,1.7334,1.7278,1.6931,1.6524,1.6513,1.5989,1.5594,1.5205,1.498,1.4862,1.4803,1.4556,1.4428,1.4606,1.3752,1.3554,1.3304,1.2274,1.16,1.0541,0.9709,0.9192,0.8613,0.7777,0.7064,0.6609,0.6416,0.6218,0.6218,0.5947,0.5617,0.5286,0.4945,0.448,0.3818,0.3949,0.3351,0.2753,0.2621,0.2353,0.1883,0.1883,0.1883,0.1813,0.1342,0.0739,0.0336,0.0,0.0,-0.0202,0.0134,0.0336,0.0269,0.0,-0.0067,-0.0134,-0.0807,-0.1144,-0.1279,-0.148,-0.1612,-0.1679,-0.1678,-0.1678,-0.1612,-0.1812,-0.2147,-0.2348,-0.2348,-0.3084,-0.3652,-0.417,-0.4714,-0.491,-0.5244,-0.5479,-0.5835,-0.6307,-0.6665,-0.716,-0.7794,-0.8421,-0.9169,-1.0012,-1.06,-1.0913,-1.1243,-1.1521,-1.1881,-1.2022,-1.2262,-1.2907,-1.3471,-1.3881,-1.4226,-1.4513,-1.4796,-1.5037,-1.5432,-1.6014,1.8319,1.8107,1.9153,1.9183,1.8734,1.9547,1.9552,1.8922,1.856,1.8182,1.7843,1.7788,1.77,1.749,1.7445,1.7545,1.7545,1.7323,1.6965,1.6965,1.6436,1.6046,1.571,1.5439,1.5205,1.5098,1.5029,1.497,1.497,1.4784,1.4222,1.3545,1.3061,1.2089,1.1226,1.0647,1.0205,0.9633,0.8935,0.8161,0.7642,0.719,0.6806,0.6679,0.6482,0.6416,0.6214,0.5943,0.5609,0.4948,0.4483,0.4015,0.362,0.3222,0.3088,0.2956,0.2622,0.2688,0.2686,0.2686,0.2014,0.1611,0.1343,0.1074,0.094,0.1007,0.1141,0.1141,0.1006,0.0739,0.047,-0.0202,-0.0269,-0.0337,-0.0606,-0.074,-0.1009,-0.1009,-0.1009,-0.0942,-0.1009,-0.1277,-0.1479,-0.1479,-0.1747,-0.2255,-0.2749,-0.337,-0.4122,-0.4553,-0.4962,-0.5275,-0.5648,-0.6106,-0.6638,-0.7246,-0.7817,-0.8336,-0.9106,-0.9918,-1.0585,-1.0935,-1.1157,-1.1456,-1.1939,-1.2368,-1.2713,-1.3162,-1.3666,-1.4145,-1.4526,-1.478,-1.5009,-1.541,-1.5913,1.7529,1.7703,1.8808,1.8786,1.8282,1.9746,1.9875,1.8881,1.7865,1.7434,1.7379,1.7434,1.7545,1.7711,1.7711,1.7822,1.792,1.792,1.7567,1.7335,1.6877,1.6436,1.6036,1.571,1.543,1.5137,1.5029,1.5147,1.5147,1.4834,1.4213,1.3606,1.3295,1.2696,1.2258,1.1896,1.1337,1.0465,0.9831,0.8994,0.828,0.8027,0.7391,0.7073,0.6815,0.6548,0.6412,0.6342,0.6207,0.6075,0.621,0.6075,0.5745,0.5282,0.4683,0.402,0.3357,0.3291,0.3226,0.3226,0.3226,0.2889,0.2684,0.2214,0.1878,0.1878,0.2012,0.2012,0.1811,0.1275,0.0739,0.0671,0.0604,0.0336,0.0,-0.0202,-0.0472,-0.0607,-0.0607,-0.0607,-0.0607,-0.0741,-0.0808,-0.0808,-0.101,-0.127,-0.192,-0.2581,-0.3313,-0.4299,-0.4624,-0.4954,-0.5279,-0.5601,-0.6062,-0.6454,-0.6992,-0.7483,-0.8402,-0.9241,-0.9909,-1.078,-1.1358,-1.1809,-1.2155,-1.2419,-1.2406,-1.2846,-1.3534,-1.3967,-1.4285,-1.4533,-1.471,-1.5165,-1.5577,1.7625,1.7718,1.8693,1.8911,1.8776,1.9246,1.904,1.8356,1.7975,1.7877,1.7877,1.7877,1.792,1.7986,1.7986,1.8041,1.7963,1.7733,1.7335,1.7112,1.6888,1.6208,1.5816,1.5642,1.542,1.5362,1.5303,1.5313,1.5303,1.505,1.4991,1.4746,1.4264,1.3786,1.3304,1.3009,1.1896,1.0899,1.0332,0.9627,0.886,0.8345,0.7712,0.7265,0.7073,0.6811,0.6806,0.6811,0.6609,0.6272,0.6137,0.5804,0.4613,0.4348,0.4018,0.3558,0.3491,0.3625,0.3694,0.383,0.3966,0.3899,0.3761,0.3426,0.3088,0.2885,0.3017,0.2883,0.2614,0.2078,0.1476,0.1208,0.0873,0.0269,0.0067,0.0,-0.027,-0.0405,-0.0405,-0.0405,-0.0405,-0.0405,-0.0405,-0.0472,-0.0673,-0.0739,-0.1072,-0.1802,-0.2654,-0.3658,-0.4268,-0.4611,-0.4898,-0.5237,-0.5154,-0.5463,-0.6078,-0.6667,-0.7676,-0.8658,-0.9464,-1.0387,-1.1408,-1.1977,-1.2069,-1.1994,-1.186,-1.2439,-1.3217,-1.3531,-1.3821,-1.4118,-1.4439,-1.4867,-1.5137,1.7516,1.7635,1.8561,1.9113,1.9333,1.9228,1.8946,1.8614,1.8247,1.8084,1.8084,1.8127,1.8247,1.8367,1.8422,1.841,1.8302,1.8116,1.7722,1.7268,1.6775,1.6492,1.6161,1.5884,1.5826,1.571,1.5594,1.5604,1.5594,1.5594,1.5546,1.5478,1.541,1.4628,1.3855,1.3252,1.2397,1.1469,1.0654,1.0015,0.95,0.8982,0.8479,0.7717,0.7526,0.7396,0.7335,0.7269,0.7134,0.6929,0.6924,0.6658,0.5796,0.5665,0.5338,0.4945,0.4683,0.4686,0.4622,0.4428,0.4431,0.4367,0.43,0.4033,0.3897,0.3692,0.3828,0.3761,0.3353,0.2882,0.2213,0.1544,0.074,0.0,0.0,0.0,-0.0135,-0.027,-0.027,-0.027,-0.027,-0.027,-0.027,0.0,-0.0337,-0.0337,-0.0605,-0.1207,-0.2204,-0.3249,-0.3816,-0.4181,-0.4487,-0.4785,-0.4706,-0.4894,-0.5638,-0.6418,-0.7106,-0.8096,-0.8968,-0.9845,-1.069,-1.1329,-1.1817,-1.1616,-1.1315,-1.2132,-1.2841,-1.302,-1.2987,-1.3161,-1.3664,-1.4492,-1.4672,1.7303,1.746,1.8506,1.933,1.9838,1.9512,1.9368,1.9316,1.8625,1.8247,1.8302,1.8333,1.8614,1.8786,1.8893,1.8827,1.8667,1.8494,1.805,1.7655,1.7335,1.6955,1.6581,1.6648,1.6124,1.5961,1.5856,1.5788,1.5856,1.5846,1.5788,1.5856,1.541,1.4688,1.3974,1.3554,1.2765,1.1981,1.1545,1.1226,1.0773,1.0451,1.0135,0.8807,0.8425,0.8301,0.8047,0.8052,0.8182,0.8382,0.8382,0.8252,0.7847,0.7447,0.6985,0.6658,0.6001,0.5807,0.5481,0.5153,0.4758,0.4628,0.4367,0.4367,0.4298,0.4164,0.4167,0.4164,0.3692,0.3218,0.2614,0.2281,0.1611,0.0807,0.0471,0.0269,0.0,0.0,0.0,0.0,0.0,0.0,0.0,0.0,0.0,0.0,0.0,0.0,-0.161,-0.2739,-0.3451,-0.3769,-0.423,-0.4528,-0.4638,-0.4925,-0.5611,-0.6265,-0.6941,-0.7744,-0.8769,-0.9364,-0.9833,-1.0534,-1.1164,-1.0981,-1.0968,-1.1509,-1.175,-1.1881,-1.192,-1.212,-1.274,-1.3588,-1.3914,1.8144,1.8468,1.9076,1.9457,1.954,1.9565,1.9512,1.942,1.9303,1.9146,1.9105,1.9105,1.9146,1.921,1.9263,1.9198,1.9093,1.8709,1.8278,1.7667,1.7346,1.6909,1.6306,1.6316,1.6087,1.5972,1.5914,1.5972,1.5961,1.5972,1.5914,1.5846,1.5536,1.4991,1.4025,1.3614,1.3199,1.2305,1.2182,1.1794,1.1212,1.0584,0.9958,0.9198,0.8818,0.8571,0.8382,0.8382,0.8447,0.8447,0.8511,0.8247,0.7912,0.7451,0.7125,0.6924,0.6863,0.6728,0.6465,0.6005,0.5609,0.5286,0.509,0.4827,0.4631,0.4434,0.43,0.4233,0.3961,0.3487,0.3084,0.2817,0.2415,0.1679,0.0942,0.0539,0.0,0.0,0.0,0.0,0.0,0.0,0.0,0.0,0.0,0.0,0.0,0.0,0.0,-0.2142,-0.3111,-0.3567,-0.4069,-0.4375,-0.4508,-0.4935,-0.5567,-0.6361,-0.7039,-0.7812,-0.8594,-0.8931,-0.928,-0.992,-1.0368,-1.0205,-1.0066,-1.0021,-1.0266,-1.0683,-1.094,-1.1183,-1.1447,-1.212,-1.2512,1.8299,1.8779,1.9239,1.9571,1.9773,1.9823,1.9823,1.9772,1.9823,1.9823,1.9733,1.9565,1.946,1.9512,1.9565,1.9356,1.9263,1.8934,1.8213,1.7556,1.7123,1.6684,1.6353,1.6144,1.6144,1.6144,1.6144,1.6144,1.6134,1.5951,1.5884,1.5768,1.5594,1.5001,1.3974,1.3734,1.3381,1.2498,1.249,1.2166,1.1593,1.1094,1.0471,0.9843,0.9332,0.8958,0.877,0.877,0.8835,0.8899,0.8969,0.8899,0.863,0.8431,0.8172,0.8037,0.7842,0.7582,0.7316,0.6924,0.6461,0.6203,0.5745,0.5418,0.5219,0.5024,0.4567,0.4498,0.403,0.3556,0.3353,0.3084,0.2683,0.2013,0.1343,0.0806,0.0,0.0,0.0,0.0,0.0,0.0,0.0,0.0,0.0,0.0,0.0,0.0,0.0,-0.1612,-0.2588,-0.3368,-0.387,-0.422,-0.4383,-0.4898,-0.556,-0.6314,-0.7055,-0.7802,-0.8398,-0.8478,-0.8762,-0.9302,-0.9518,-0.9332,-0.918,-0.9279,-0.9406,-0.9888,-1.0129,-1.0299,-1.0564,-1.0829,-1.1219,1.8481,1.8905,1.9359,1.9771,2.0144,2.0233,2.0233,2.0182,2.0233,2.0233,2.0131,1.9862,1.9708,1.9708,1.9759,1.9396,1.9146,1.8869,1.8147,1.7556,1.7168,1.6797,1.6591,1.6431,1.6431,1.6431,1.6431,1.6477,1.6581,1.6285,1.6046,1.568,1.5216,1.4638,1.3983,1.3563,1.339,1.2981,1.2797,1.2744,1.2428,1.1996,1.1233,1.0534,0.9964,0.9524,0.9274,0.9215,0.9344,0.935,0.942,0.935,0.935,0.9151,0.9221,0.9087,0.8759,0.8495,0.8296,0.7767,0.7377,0.7051,0.6461,0.6071,0.5939,0.5613,0.5156,0.4761,0.4359,0.3959,0.3756,0.3553,0.3084,0.2547,0.1877,0.1341,0.0,0.0,0.0,0.0,0.0,0.0,0.0,0.0,0.0,0.0,-0.0135,-0.0471,-0.0874,-0.1477,-0.227,-0.3062,-0.3678,-0.3954,-0.422,-0.4815,-0.554,-0.6137,-0.6863,-0.7657,-0.8242,-0.842,-0.8544,-0.856,-0.8705,-0.877,-0.8835,-0.8941,-0.9081,-0.921,-0.9326,-0.95,-0.9691,-0.9958,-1.0155,1.9834,2.026,2.0215,2.0244,2.0233,2.041,2.0347,2.0233,2.0398,2.0347,2.0283,2.0271,2.0169,2.008,2.008,1.9823,1.9251,1.8922,1.8333,1.7634,1.729,1.6976,1.6705,1.6648,1.6694,1.6705,1.6648,1.6761,1.6751,1.6637,1.6581,1.64,1.5989,1.5468,1.4932,1.446,1.3983,1.3511,1.3329,1.3329,1.2972,1.2474,1.1872,1.1365,1.0982,1.0548,1.0174,1.004,0.9792,0.967,0.9612,0.9606,0.9606,0.967,0.9676,0.9612,0.9344,0.928,0.8947,0.8554,0.8231,0.8096,0.7577,0.7055,0.6859,0.6461,0.6075,0.5745,0.5282,0.4758,0.4492,0.4492,0.409,0.3418,0.2813,0.2412,0.0,0.0,0.0,0.0,0.0,0.0,0.0,0.0,0.0,0.0337,0.0337,0.0,-0.0471,-0.1208,-0.1878,-0.2616,-0.3353,-0.3894,-0.4231,-0.4818,-0.5411,-0.6005,-0.6671,-0.7461,-0.8117,-0.8447,-0.8517,-0.8517,-0.8452,-0.8511,-0.8576,-0.8571,-0.8571,-0.863,-0.8641,-0.8765,-0.8888,-0.9075,-0.9396]},{"header":{"parameterUnit":"m.s-1","parameterCategory":1,"la1":31.0,"la2":29.5877,"lo1":-88.7671,"lo2":-86.6584,"dy":0.0162,"dx":0.0185,"nx":115,"ny":88,"refTime":"2024-07-28T12:00:00:Z","depth":0,"parameterNumber":3,"parameterNumberName":"V-component_of_WINDS"},"data":[0.0,0.0,0.0,0.0,0.0,0.0,0.0,0.0,0.0,0.0,0.0,0.0,0.0,0.0,0.0,0.0,0.0,0.0,0.0,0.0,0.0,0.0,0.0,0.0,0.0,0.0,0.0,0.0,0.0,0.0,0.0,0.0,0.0,0.0,0.0,0.0,0.0,0.0,0.0,0.0,0.0,0.0,0.0,0.0,0.0,0.0,0.0,0.0,0.0,0.0,0.0,0.0,0.0,0.0,0.0,0.0,0.0,0.0,0.0,0.0,0.0,0.0,0.0,0.0,0.0,0.0,0.0,0.0,0.0,0.0,0.0,0.0,0.0,0.0,0.0,0.0,0.0,0.0,0.0,0.0,0.0,0.0,0.0,0.0,0.0,0.0,0.0,0.0,0.0,0.0,0.0,0.0,0.0,0.0,0.0,0.0,0.0,0.0,0.0,0.0,0.0,0.0,0.0,0.0,0.0,0.0,0.0,0.0,0.0,0.0,0.0,0.0,0.0,0.0,0.0,0.0,0.0,0.0,0.0,0.0,0.0,0.0,0.0,0.0,0.0,0.0,0.0,0.0,0.0,0.0,0.0,0.0,0.0,0.0,0.0,0.0,0.0,0.0,0.0,0.0,0.0,0.0,0.0,0.0,0.0,0.0,0.0,0.0,0.0,0.0,0.0,0.0,0.0,0.0,0.0,0.0,0.0,0.0,0.0,0.0,0.0,0.0,0.0,0.0,0.0,0.0,0.0,0.0,0.0,0.0,0.0,0.0,0.0,0.0,0.0,0.0,0.0,0.0,0.0,0.0,0.0,0.0,0.0,0.0,0.0,0.0,0.0,0.0,0.0,0.0,0.0,0.0,0.0,0.0,0.0,0.0,0.0,0.0,0.0,0.0,0.0,0.0,0.0,0.0,0.0,0.0,0.0,0.0,0.0,0.0,0.0,0.0,0.0,0.0,0.0,0.0,0.0,0.0,0.0,0.0,0.0,0.0,0.0,0.0,0.0,0.0,0.0,0.0,0.0,0.0,0.0,0.0,0.0,0.0,0.0,0.0,0.0,0.0,0.0,0.0,0.0,0.0,0.0,0.0,0.0,0.0,0.0,0.0,0.0,0.0,0.0,0.0,0.0,0.0,0.0,0.0,0.0,0.0,0.0,0.0,0.0,0.0,0.0,0.0,0.0,0.0,0.0,0.0,0.0,0.0,0.0,0.0,0.0,0.0,0.0,0.0,0.0,0.0,0.0,0.0,0.0,0.0,0.0,0.0,0.0,0.0,0.0,0.0,0.0,0.0,0.0,0.0,0.0,0.0,0.0,0.0,0.0,0.0,0.0,0.0,0.0,0.0,0.0,0.0,0.0,0.0,0.0,0.0,0.0,0.0,0.0,0.0,0.0,0.0,0.0,0.0,0.0,0.0,0.0,0.0,0.0,0.0,0.0,0.0,0.0,0.0,0.0,0.0,0.0,0.0,0.0,0.0,0.0,0.0,0.0,0.0,0.0,0.0,0.0,0.0,0.0,0.0,0.0,0.0,0.0,0.0,0.0,0.0,0.0,0.0,0.0,0.0,0.0,0.0,0.0,0.0,0.0,0.0,0.0,0.0,0.0,0.0,0.0,0.0,0.0,0.0,0.0,0.0,0.0,0.0,0.0,0.0,0.0,0.0,0.0,0.0,0.0,0.0,0.0,0.0,0.0,0.0,0.0,0.0,0.0,0.0,0.0,0.0,0.0,0.0,0.0,0.0,0.0,0.0,0.0,0.0,0.0,0.0,0.0,0.0,0.0,0.0,0.0,0.0,0.0,0.0,0.0,0.0,0.0,0.0,0.0,0.0,0.0,0.0,0.0,0.0,0.0,0.0,0.0,0.0,0.0,0.0,0.0,0.0,0.0,0.0,0.0,0.0,0.0,0.0,0.0,0.0,0.0,0.0,0.0,0.0,0.0,0.0,0.0,0.0,0.0,0.0,0.0,0.0,0.0,0.0,0.0,0.0,0.0,0.0,0.0,0.0,0.0,0.0,0.0,0.0,0.0,0.0,0.0,0.0,0.0,0.0,0.0,0.0,0.0,0.0,0.0,0.0,0.0,0.0,0.0,0.0,0.0,0.0,0.0,0.0,0.0,0.0,0.0,0.0,0.0,0.0,0.0,0.0,0.0,0.0,0.0,0.0,0.0,0.0,0.0,0.0,0.0,0.0,0.0,0.0,0.0,0.0,0.0,0.0,0.0,0.0,0.0,0.0,0.0,0.0,0.0,0.0,0.0,0.0,0.0,0.0,0.0,0.0,0.0,0.0,0.0,0.0,0.0,0.0,0.0,0.0,0.0,0.0,0.0,0.0,0.0,0.0,0.0,0.0,0.0,0.0,0.0,0.0,0.0,0.0,0.0,0.0,0.0,0.0,0.0,0.0,0.0,0.0,0.0,0.0,0.0,0.0,0.0,0.0,0.0,0.0,0.0,0.0,0.0,0.0,0.0,0.0,0.0,0.0,0.0,0.0,0.0,0.0,0.0,0.0,0.0,0.0,0.0,0.0,0.0,0.0,0.0,0.0,0.0,0.0,0.0,0.0,0.0,0.0,0.0,0.0,0.0,0.0,0.0,0.0,0.0,0.0,0.0,0.0,0.0,0.0,0.0,0.0,0.0,0.0,0.0,0.0,0.0,0.0,0.0,0.0,0.0,0.0,0.0,0.0,0.0,0.0,0.0,0.0,0.0,0.0,0.0,0.0,0.0,0.0,0.0,0.0,0.0,0.0,0.0,0.0,0.0,0.0,0.0,0.0,0.0,0.0,0.0,0.0,0.0,0.0,0.0,0.0,0.0,0.0,0.0,0.0,0.0,0.0,0.0,0.0,0.0,0.0,0.0,0.0,0.0,0.0,0.0,0.0,0.0,0.0,0.0,0.0,0.0,0.0,0.0,0.0,0.0,0.0,0.0,0.0,0.0,0.0,0.0,0.0,0.0,0.0,0.0,0.0,0.0,0.0,0.0,0.0,0.0,0.0,0.0,0.0,0.0,0.0,0.0,0.0,0.0,0.0,0.0,0.0,0.0,0.0,0.0,0.0,0.0,0.0,0.0,0.0,0.0,0.0,0.0,0.0,0.0,0.0,0.0,0.0,0.0,0.0,0.0,0.0,0.0,0.0,0.0,0.0,0.0,0.0,0.0,0.0,0.0,0.0,0.0,0.0,0.0,0.0,0.0,0.0,0.0,0.0,0.0,0.0,0.0,0.0,0.0,0.0,0.0,0.0,0.0,0.0,0.0,0.0,0.0,0.0,0.0,0.0,0.0,0.0,0.0,0.0,0.0,0.0,0.0,0.0,0.0,0.0,0.0,0.0,0.0,0.0,0.0,0.0,0.0,0.0,0.0,0.0,0.0,0.0,0.0,0.0,0.0,0.0,0.0,0.0,0.0,0.0,0.0,0.0,0.0,0.0,0.0,0.0,0.0,0.0,0.0,0.0,0.0,0.0,0.0,0.0,0.0,0.0,0.0,0.0,0.0,0.0,0.0,0.0,0.0,0.0,0.0,0.0,0.0,0.0,0.0,0.0,0.0,0.0,0.0,0.0,0.0,0.0,0.0,0.0,0.0,0.0,0.0,0.0,0.0,0.0,0.0,0.0,0.0,0.0,0.0,0.0,0.0,0.0,0.0,0.0,0.0,0.0,0.0,0.0,0.0,0.0,0.0,0.0,0.0,0.0,0.0,0.0,0.0,0.0,0.0,0.0,0.0,0.0,0.0,0.0,0.0,0.0,0.0,0.0,0.0,0.0,0.0,0.0,0.0,0.0,0.0,0.0,0.0,0.0,0.0,0.0,0.0,0.0,0.0,0.0,0.0,0.0,0.0,0.0,0.0,0.0,0.0,0.0,0.0,0.0,0.0,0.0,0.0,0.0,0.0,0.0,0.0,0.0,0.0,0.0,0.0,0.0,0.0,0.0,0.0,0.0,0.0,0.0,0.0,0.0,0.0,0.0,0.0,0.0,0.0,0.0,0.0,0.0,0.0,0.0,0.0,0.0,0.0,0.0,0.0,0.0,0.0,0.0,0.0,0.0,0.0,0.0,0.0,0.0,0.0,0.0,0.0,0.0,0.0,0.0,0.0,0.0,0.0,0.0,0.0,0.0,0.0,0.0,0.0,0.0,0.0,0.0,0.0,0.0,0.0,0.0,0.0,0.0,0.0,0.0,0.0,0.0,0.0,0.0,0.0,0.0,0.0,0.0,0.0,0.0,0.0,0.0,0.0,0.0,0.0,0.0,0.0,0.0,0.0,0.0,0.0,0.0,1.3617,0.0,0.0,0.0,0.0,0.0,0.0,0.0,0.0,0.0,0.0,0.0,0.0,0.0,0.0,0.0,0.0,0.0,0.0,0.0,0.0,0.0,0.0,0.0,0.0,0.0,0.0,0.0,0.0,0.0,0.0,0.0,0.0,0.0,0.0,0.0,0.0,0.0,0.0,0.0,0.0,0.0,0.0,0.0,0.0,0.0,0.0,0.0,0.0,0.0,0.0,0.0,0.0,0.0,0.0,0.0,0.0,0.0,0.0,0.0,0.0,0.0,0.0,0.0,0.0,0.0,0.0,0.0,0.0,0.0,0.0,0.0,0.0,0.0,0.0,0.0,0.0,0.0,0.0,0.0,0.0,0.0,0.0,0.0,0.0,0.0,0.0,0.0,0.0,0.0,0.0,0.0,0.0,0.0,0.0,0.0,0.0,0.0,0.0,0.0,0.0,0.0,0.0,0.0,0.0,0.0,0.0,0.0,0.0,0.0,0.0,1.3444,1.3329,1.3227,1.3176,1.3159,0.0,0.0,0.0,0.0,0.0,0.0,0.0,0.0,0.0,0.0,0.0,0.0,0.0,0.0,0.0,0.0,0.0,0.0,0.0,0.0,0.0,0.0,0.0,0.0,0.0,0.0,0.0,0.0,0.0,0.0,0.0,0.0,0.0,0.0,0.0,0.0,0.0,0.0,0.0,0.0,0.0,0.0,0.0,0.0,0.0,0.0,0.0,0.0,0.0,0.0,0.0,0.0,0.0,0.0,0.0,0.0,0.0,0.0,0.0,0.0,0.0,0.0,0.0,0.0,0.0,0.0,0.0,0.0,0.0,0.0,0.0,0.0,0.0,0.0,0.0,0.0,0.0,0.0,0.0,0.0,0.0,0.0,0.0,0.0,0.0,0.0,0.0,0.0,0.0,0.0,0.0,0.0,0.0,0.0,0.0,0.0,0.0,0.0,0.0,0.0,0.0,0.0,0.0,0.0,0.0,0.0,0.0,0.0,0.0,0.0,0.0,0.0,1.2945,1.2649,1.2201,0.0,0.0,0.0,0.0,0.0,0.0,0.0,0.0,0.0,0.0,0.0,0.0,0.0,0.0,0.0,0.0,0.0,0.0,0.0,0.0,0.0,0.0,0.0,0.0,0.0,0.0,0.0,0.0,0.0,0.0,0.0,0.0,0.0,0.0,0.0,0.0,0.0,0.0,0.0,0.0,0.0,0.0,0.0,0.0,0.0,0.0,0.0,0.0,0.0,0.0,0.0,0.0,0.0,0.0,0.0,0.0,0.0,0.0,0.0,0.0,0.0,0.0,0.0,0.0,0.0,0.0,0.0,0.0,0.0,0.0,0.0,0.0,0.0,0.0,0.0,0.0,0.0,0.0,0.0,0.0,0.0,0.0,0.0,0.0,0.0,0.0,0.0,0.0,0.0,0.0,0.0,0.0,0.0,0.0,0.0,0.0,0.0,0.0,0.0,0.0,0.0,0.0,0.0,0.0,0.0,0.0,0.0,0.0,0.0,0.0,1.3192,1.3012,1.2947,0.0,1.047,0.0,0.0,0.0,0.0,0.0,0.0,0.0,0.0,0.0,0.0,0.0,0.0,0.0,0.0,0.0,0.0,0.0,0.0,0.0,0.0,0.0,0.0,0.0,0.0,0.0,0.0,0.0,0.0,0.0,0.0,0.0,0.0,0.0,0.0,0.0,0.0,0.0,0.0,0.0,0.0,0.0,0.0,0.0,0.0,0.0,0.0,0.0,0.0,0.0,0.0,0.0,0.0,0.0,0.0,0.0,0.0,0.0,0.0,0.0,0.0,0.0,0.0,0.0,0.0,0.0,0.0,0.0,0.0,0.0,0.0,0.0,0.0,0.0,0.0,0.0,0.0,0.0,0.0,0.0,0.0,0.0,0.0,0.0,0.0,0.0,0.0,0.0,0.0,0.0,0.0,0.0,0.0,0.0,0.0,0.0,0.0,0.0,0.0,0.0,0.0,0.0,0.0,0.0,0.0,0.0,0.0,0.0,0.0,0.0,0.0,1.2643,1.2773,1.2338,1.1333,0.0,0.0,0.0,0.0,0.0,0.0,0.0,0.0,0.0,0.0,0.0,0.0,0.0,0.0,0.0,0.0,0.0,0.0,0.0,0.0,0.0,0.0,0.0,0.0,0.0,0.0,0.0,0.0,0.0,0.0,0.0,0.0,0.0,0.0,0.0,0.0,0.0,0.0,0.0,0.0,0.0,0.0,0.0,0.0,0.0,0.0,0.0,0.0,0.0,0.0,0.0,0.0,0.0,0.0,0.0,0.0,0.0,0.0,0.0,0.0,0.0,0.0,0.0,0.0,0.0,0.0,0.0,0.0,0.0,0.0,0.0,0.0,0.0,0.0,0.0,0.0,0.0,0.0,0.0,0.0,0.0,0.0,0.0,0.0,0.0,0.0,0.0,0.0,0.0,0.0,0.0,0.0,0.0,0.0,0.0,0.0,0.0,0.0,0.0,0.0,0.0,0.0,0.0,0.0,0.0,0.0,0.0,0.0,0.0,0.0,1.2257,1.2198,1.2135,1.1548,1.0498,0.9036,0.0,0.0,0.0,0.0,0.0,0.0,0.0,0.0,0.0,0.0,0.0,0.0,0.0,0.0,0.0,0.0,0.0,0.0,0.0,0.0,0.0,0.0,0.0,0.0,0.0,0.0,0.0,0.0,0.0,0.0,0.0,0.0,0.0,0.0,0.0,0.0,0.0,0.0,0.0,0.0,0.0,0.0,0.0,0.0,0.0,0.0,0.0,0.0,0.0,0.0,0.0,0.0,0.0,0.0,0.0,0.0,0.0,0.0,0.0,0.0,0.0,0.0,0.0,0.0,0.0,0.0,0.0,0.0,0.0,0.0,0.0,0.0,0.0,0.0,0.0,0.0,0.0,0.0,0.0,0.0,0.0,0.0,0.0,0.0,0.0,0.0,0.0,0.0,0.0,0.0,0.0,0.0,0.0,0.0,0.0,0.0,0.0,0.0,0.0,0.0,0.0,0.0,0.0,0.0,0.0,0.0,0.0,0.0,0.0,1.2368,1.2021,1.1088,1.0556,0.9677,0.0,0.0,0.0,0.0,0.0,0.0,0.0,0.0,0.0,0.0,0.0,0.0,0.0,0.0,0.0,0.0,0.0,0.0,0.0,0.0,0.0,0.0,0.0,0.0,0.0,0.0,0.0,0.0,0.0,0.0,0.0,0.0,0.0,0.0,0.0,0.0,0.0,0.0,0.0,0.0,0.0,0.0,0.0,0.0,0.0,0.0,0.0,0.0,0.0,0.0,0.0,0.0,0.0,0.0,0.0,0.0,0.0,0.0,0.0,0.0,0.0,0.0,0.0,0.0,0.0,0.0,0.0,0.0,0.0,0.0,0.0,0.0,0.0,0.0,0.0,0.0,0.0,0.0,0.0,0.0,0.0,0.0,0.0,0.0,0.0,0.0,0.0,0.0,0.0,0.0,0.0,0.0,0.0,0.0,0.0,0.0,0.0,0.0,0.0,0.0,0.0,0.0,0.0,0.0,0.0,0.0,0.0,0.0,0.0,1.1682,1.1583,1.1157,1.0316,0.981,0.9031,0.0,0.0,0.0,0.0,0.0,0.0,0.0,0.0,0.0,0.0,0.0,0.0,0.0,0.0,0.0,0.0,0.0,0.0,0.0,0.0,0.0,0.0,0.0,0.0,0.0,0.0,0.0,0.0,0.0,0.0,0.0,0.0,0.0,0.0,0.0,0.0,0.0,0.0,0.0,0.0,0.0,0.0,0.0,0.0,0.0,0.0,0.0,0.0,0.0,0.0,0.0,0.0,0.0,0.0,0.0,0.0,0.0,0.0,0.0,0.0,0.0,0.0,0.0,0.0,0.0,0.0,0.0,0.0,0.0,0.0,0.0,0.0,0.0,0.0,0.0,0.0,0.0,0.0,0.0,0.0,0.0,0.0,0.0,0.0,0.0,0.0,0.0,0.0,0.0,0.0,0.0,0.0,0.0,0.0,0.0,0.0,0.0,0.0,0.0,0.0,0.0,0.0,0.0,0.0,0.0,0.0,0.0,0.0,0.0,1.0818,0.0,1.0066,0.0,0.896,0.8322,0.0,0.0,0.0,0.0,0.0,0.0,0.0,0.0,0.0,0.0,0.0,0.0,0.0,0.0,0.0,0.0,0.0,0.0,0.0,0.0,0.0,0.0,0.0,0.0,0.0,0.0,0.0,0.0,0.0,0.0,0.0,0.0,0.0,0.0,0.0,0.0,0.0,0.0,0.0,0.0,0.0,0.0,0.0,0.0,0.0,0.0,0.0,0.0,0.0,0.0,0.0,0.0,0.0,0.0,0.0,0.0,0.0,0.0,0.0,0.0,0.0,0.0,0.0,0.0,0.0,0.0,0.0,0.0,0.0,0.0,0.0,0.0,0.0,0.0,0.0,0.0,0.0,0.0,0.0,0.0,0.0,0.0,0.0,0.0,0.0,0.0,0.0,0.0,0.0,0.0,0.0,0.0,0.0,0.0,0.0,0.0,0.0,0.0,0.0,0.0,0.0,0.0,0.0,0.0,0.0,0.0,0.0,0.0,1.0136,0.9709,0.9448,0.8927,0.8071,0.8024,0.7549,0.0,0.0,0.0,0.0,0.0,0.0,0.0,0.0,0.0,0.0,0.0,0.0,0.0,0.0,0.0,0.0,0.0,0.0,0.0,0.0,0.0,0.0,0.0,0.0,0.0,0.0,0.0,0.0,0.0,0.0,0.0,0.0,0.0,0.0,0.0,0.0,0.0,0.0,0.0,0.0,0.0,0.0,0.0,0.0,0.0,0.0,0.0,0.0,0.0,0.0,0.0,0.0,0.0,0.0,0.0,0.0,0.0,0.0,0.0,0.0,0.0,0.0,0.0,0.0,0.0,0.0,0.0,0.0,0.0,0.0,0.0,0.0,0.0,0.0,0.0,0.0,0.0,0.0,0.0,0.0,0.0,0.0,0.0,0.0,0.0,0.0,0.0,0.0,0.0,0.0,0.0,0.0,0.0,0.0,0.0,0.0,0.0,0.0,0.0,0.0,0.0,0.0,0.0,0.0,0.0,0.0,0.0,0.0,0.0,0.8928,0.8939,0.8592,0.7895,0.7311,0.6791,0.0,0.0,0.0,0.0,0.0,0.0,0.0,0.0,0.0,0.0,0.0,0.0,0.0,0.0,0.0,0.0,0.0,0.0,0.0,0.0,0.0,0.0,0.0,0.0,0.0,0.0,0.0,0.0,0.0,0.0,0.0,0.0,0.0,0.0,0.0,0.0,0.0,0.0,0.0,0.0,0.0,0.0,0.0,0.0,0.0,0.0,0.0,0.0,0.0,0.0,0.0,0.0,0.0,0.0,0.0,0.0,0.0,0.0,0.0,0.0,0.0,0.0,0.0,0.0,0.0,0.0,0.0,0.0,0.0,0.0,0.0,0.0,0.0,0.0,0.0,0.0,0.0,0.0,0.0,0.0,0.0,0.0,0.0,0.0,0.0,0.0,0.0,0.0,0.0,0.0,0.0,0.0,0.0,0.0,0.0,0.0,0.0,0.0,0.0,0.0,0.0,0.0,0.0,0.0,0.0,0.0,0.0,0.0,0.0,0.7482,0.7764,0.7657,0.7061,0.6399,0.5841,0.5424,0.0,0.0,0.0,0.0,0.0,0.0,0.0,0.0,0.0,0.0,0.0,0.0,0.0,0.0,0.0,0.0,0.0,0.0,0.0,0.0,0.0,0.0,0.0,0.0,0.0,0.0,0.0,0.0,0.0,0.0,0.0,0.0,0.0,0.0,0.0,0.0,0.0,0.0,0.0,0.0,0.0,0.0,0.0,0.0,0.0,0.0,0.0,0.0,0.0,0.0,0.0,0.0,0.0,0.0,0.0,0.0,0.0,0.0,0.0,0.0,0.0,0.0,0.0,0.0,0.0,0.0,0.0,0.0,0.0,0.0,0.0,0.0,0.0,0.0,0.0,0.0,0.0,0.0,0.0,0.0,0.0,0.0,0.0,0.0,0.0,0.0,0.0,0.0,0.0,0.0,0.0,0.0,0.0,0.0,0.0,0.0,0.0,0.0,0.0,0.0,0.0,0.0,0.0,0.0,0.0,0.0,0.0,0.0,0.5501,0.6045,0.6165,0.5678,0.5233,0.4825,0.0,0.0,0.0,0.0,0.0,0.0,0.0,0.0,0.0,0.0,0.0,0.0,0.0,0.0,0.0,0.0,0.0,0.0,0.0,0.0,0.0,0.0,0.0,0.0,0.0,0.0,0.0,0.0,0.0,0.0,0.0,0.0,0.0,0.0,0.0,0.0,0.0,0.0,0.0,0.0,0.0,0.0,0.0,0.0,0.0,0.0,0.0,0.0,0.0,0.0,0.0,0.0,0.0,0.0,0.0,0.0,0.0,0.0,0.0,0.0,0.0,0.0,0.0,0.0,0.0,0.0,0.0,0.0,0.0,0.0,0.0,0.0,0.0,0.0,0.0,0.0,0.0,0.0,0.0,0.0,0.0,0.0,0.0,0.0,0.0,0.0,0.0,0.0,0.0,0.0,0.0,0.0,0.0,0.0,0.0,0.0,0.0,0.0,0.0,0.0,0.0,0.0,0.0,0.0,0.0,0.0,0.0,0.0,0.0,0.5058,0.4767,0.4643,0.4817,0.4458,0.4033,0.0,0.0,0.0,0.0,0.0,0.0,0.0,0.0,0.0,0.0,0.0,0.0,0.0,0.0,0.0,0.0,0.0,0.0,0.0,0.0,0.0,0.0,0.0,0.0,0.0,0.0,0.0,0.0,0.0,0.0,0.0,0.0,0.0,0.0,0.0,0.0,0.0,0.0,0.0,0.0,0.0,0.0,0.0,0.0,0.0,0.0,0.0,0.0,0.0,0.0,0.0,0.0,0.0,0.0,0.0,0.0,0.0,0.0,0.0,0.0,0.0,0.0,0.0,0.0,0.0,0.0,0.0,0.0,0.0,0.0,0.0,0.0,0.0,0.0,0.0,0.0,0.0,0.0,0.0,0.0,0.0,0.0,0.0,0.0,0.0,0.0,0.0,0.0,0.0,0.0,0.0,0.0,0.0,0.0,0.0,0.0,0.0,0.0,0.0,0.0,0.0,0.0,0.0,0.0,0.0,0.0,0.0,0.0,0.4787,0.4222,0.3759,0.3535,0.3533,0.3451,0.3226,0.0,0.0,0.0,0.0,0.0,0.0,0.0,0.0,0.0,0.0,0.0,0.0,0.0,0.0,0.0,0.0,0.0,0.0,0.0,0.0,0.0,0.0,0.0,0.0,0.0,0.0,0.0,0.0,0.0,0.0,0.0,0.0,0.0,0.0,0.0,0.0,0.0,0.0,0.0,0.0,0.0,0.0,0.0,0.0,0.0,0.0,0.0,0.0,0.0,0.0,0.0,0.0,0.0,0.0,0.0,0.0,0.0,0.0,0.0,0.0,0.0,0.0,0.0,0.0,0.0,0.0,0.0,0.0,0.0,0.0,0.0,0.0,0.0,0.0,0.0,0.0,0.0,0.0,0.0,0.0,0.0,0.0,0.0,0.0,0.0,0.0,0.0,0.0,0.0,0.0,0.0,0.0,0.0,0.0,0.0,0.0,0.0,0.0,0.0,0.0,0.0,0.0,0.0,0.0,0.0,0.0,0.0,0.0,0.4053,0.3221,0.3021,0.2686,0.2157,0.2421,0.2342,0.0,0.0,0.0,0.0,0.0,0.0,0.0,0.0,0.0,0.0,0.0,0.0,0.0,0.0,0.0,0.0,0.0,0.0,0.0,0.0,0.0,0.0,0.0,0.0,0.0,0.0,0.0,0.0,0.0,0.0,0.0,0.0,0.0,0.0,0.0,0.0,0.0,0.0,0.0,0.0,0.0,0.0,0.0,0.0,0.0,0.0,0.0,0.0,0.0,0.0,0.0,0.0,0.0,0.0,0.0,0.0,0.0,0.0,0.0,0.0,0.0,0.0,0.0,0.0,0.0,0.0,0.0,0.0,0.0,0.0,0.0,0.0,0.0,0.0,0.0,0.0,0.0,0.0,0.0,0.0,0.0,0.0,0.0,0.0,0.0,0.0,0.0,0.0,0.0,0.0,0.0,0.0,0.0,0.0,0.0,0.0,0.0,0.0,0.0,0.0,0.0,0.0,0.0,0.0,0.0,0.0,0.0,0.0,0.3542,0.2868,0.2541,0.2111,0.148,0.1625,0.1489,0.0,0.0,0.0,0.0,0.0,0.0,0.0,0.0,0.0,0.0,0.0,0.0,0.0,0.0,0.0,0.0,0.0,0.0,0.0,0.0,0.0,0.0,0.0,0.0,0.0,0.0,0.0,0.0,0.0,0.0,0.0,0.0,0.0,0.0,0.0,0.0,0.0,0.0,0.0,0.0,0.0,0.0,0.0,0.0,0.0,0.0,0.0,0.0,-0.2852,0.0,0.0,0.0,0.0,0.0,0.0,0.0,0.0,0.0,0.0,0.0,0.0,0.0,0.0,0.0,0.0,0.0,0.0,0.0,0.0,0.0,0.0,0.0,0.0,0.0,0.0,0.0,0.0,0.0,0.0,0.0,0.0,0.0,0.0,0.0,0.0,0.0,0.0,0.0,0.0,0.0,0.0,0.0,0.0,0.0,0.0,0.0,0.0,0.0,0.0,0.0,0.0,0.0,0.0,0.0,0.0,0.0,0.0,0.0,0.3308,0.264,0.2054,0.1614,0.1276,0.0522,0.0125,0.0,0.0,0.0,0.0,0.0,0.0,0.0,0.0,0.0,0.0,0.0,0.0,0.0,0.0,0.0,0.0,0.0,0.0,0.0,0.0,0.0,0.0,0.0,0.0,0.0,0.0,0.0,0.0,0.0,0.0,0.0,0.0,0.0,0.0,0.0,0.0,0.0,0.0,0.0,0.0,0.0,0.0,0.0,0.0,0.0,0.0,0.0,0.0,0.0,0.0,0.0,0.0,0.0,0.0,0.0,0.0,0.0,0.0,0.0,0.0,0.0,0.0,0.0,0.0,0.0,0.0,0.0,0.0,0.0,0.0,0.0,0.0,0.0,0.0,0.0,0.0,0.0,0.0,0.0,0.0,0.0,0.0,0.0,0.0,0.0,0.0,0.0,0.0,0.0,0.0,0.0,0.0,0.0,0.0,0.0,0.0,0.0,0.0,0.0,0.0,0.0,0.0,0.0,0.0,0.0,0.0,0.0,0.3646,0.3128,0.2465,0.1661,0.1277,0.1142,-0.0391,-0.1189,-0.1125,0.0,0.0,0.0,0.0,0.0,0.0,0.0,0.0,0.0,0.0,0.0,0.0,0.0,0.0,0.0,0.0,0.0,0.0,0.0,0.0,0.0,0.0,0.0,0.0,0.0,0.0,0.0,0.0,0.0,0.0,0.0,0.0,0.0,0.0,0.0,0.0,0.0,0.0,0.2684,0.1654,0.0,0.0,0.0,0.0,0.0,0.0,0.0,0.0,-0.2262,0.0,0.0,0.0,0.0,0.0,0.0,0.0,0.0,0.0,0.0,0.0,0.0,0.0,0.0,0.0,0.0,0.0,0.0,0.0,0.0,0.0,0.0,0.0,0.0,0.0,0.0,0.0,0.0,0.0,0.0,0.0,0.0,0.0,0.0,0.0,0.0,0.0,0.0,0.0,0.0,0.0,0.0,0.0,0.0,0.0,0.0,0.0,0.0,0.0,0.0,0.0,0.0,0.0,0.0,0.0,0.0,0.3805,0.3364,0.2847,0.227,0.161,0.1076,0.0604,-0.0523,-0.1582,-0.2438,0.0,0.0,0.0,0.0,0.0,0.0,0.0,0.0,0.0,0.0,0.0,0.0,0.0,0.0,0.0,0.0,0.0,0.0,0.0,0.0,0.0,0.0,0.0,0.0,0.0,0.0,0.0,0.0,0.0,0.0,0.0,0.0,0.0,0.0,0.0,0.0,0.0,0.0,0.0,0.1923,0.126,0.0,0.0,0.0,0.0,0.0,0.0,0.0,0.0,-0.2096,0.0,0.0,0.0,0.0,0.0,0.0,0.0,0.0,0.0,0.0,0.0,0.0,0.0,0.0,0.0,0.0,0.0,0.0,0.0,0.0,0.0,0.0,0.0,0.0,0.0,0.0,0.0,0.0,0.0,0.0,0.0,0.0,0.0,0.0,0.0,0.0,0.0,0.0,0.0,0.0,0.0,0.0,0.0,0.0,0.0,0.0,0.0,0.0,0.0,0.0,0.0,0.0,0.0,0.0,0.0,0.3755,0.3196,0.268,0.2218,0.1344,0.0605,0.0,-0.1371,-0.2536,0.0,0.0,0.0,0.0,0.0,0.0,0.0,0.0,0.0,0.0,0.0,0.0,0.0,0.0,0.0,0.0,0.0,0.0,0.0,0.0,0.0,0.0,0.0,0.0,0.0,0.0,0.0,0.0,0.0,0.0,0.0,0.0,0.0,0.0,0.0,0.0,0.0,0.0,0.0,0.0,0.2317,0.1648,0.1085,0.0,0.0,0.0,0.0,0.0,0.0,-0.1574,-0.1778,0.0,0.0,0.0,0.0,0.0,0.0,0.0,0.0,0.0,0.0,0.0,0.0,0.0,0.0,0.0,0.0,0.0,0.0,0.0,0.0,0.0,0.0,0.0,0.0,0.0,0.0,0.0,0.0,0.0,0.0,0.0,0.0,0.0,0.0,0.0,0.0,0.0,0.0,0.0,0.0,0.0,0.0,0.0,0.0,0.0,0.0,0.0,0.0,0.0,0.0,0.0,0.0,0.0,0.0,0.0,0.3749,0.3119,0.2554,0.2018,0.1008,0.0134,-0.0598,-0.2199,-0.3453,0.0,0.0,0.0,0.0,0.0,0.0,0.0,0.0,0.0,0.0,0.0,0.0,0.0,0.0,0.0,0.0,0.0,0.0,0.0,0.0,0.0,0.0,0.0,0.0,0.0,0.0,0.0,0.0,0.0,0.0,0.0,0.0,0.0,0.0,0.0,0.0,0.0,0.0,0.0,0.0,0.0,0.1967,0.1356,0.0599,0.0,0.0,0.0,0.0,-0.1221,-0.1374,0.0,0.0,0.0,0.0,0.0,0.0,0.0,0.0,0.0,0.0,0.0,0.0,0.0,0.0,0.0,0.0,0.0,0.0,0.0,0.0,0.0,0.0,0.0,0.0,0.0,0.0,0.0,0.0,0.0,0.0,0.0,0.0,0.0,0.0,0.0,0.0,0.0,0.0,0.0,0.0,0.0,0.0,0.0,0.0,0.0,0.0,0.0,0.0,0.0,0.0,0.0,0.0,0.0,0.0,0.0,0.0,0.352,0.2948,0.2217,0.1412,0.0806,0.0,-0.1035,-0.2447,-0.3525,0.0,0.0,0.0,0.0,0.0,0.0,0.0,0.0,0.0,0.0,0.0,0.0,0.0,0.0,0.0,0.0,0.0,0.0,0.0,0.0,0.0,0.0,0.0,0.0,0.0,0.0,0.0,0.0,0.0,0.0,0.0,0.0,0.0,0.0,0.0,0.0,0.0,0.0,0.0,0.0,0.0,0.2207,0.1395,0.0701,0.0,0.0,0.0,-0.1252,-0.1252,-0.1487,0.0,0.0,0.0,0.0,0.0,0.0,0.0,0.0,0.0,0.0,0.0,0.0,0.0,0.0,0.0,0.0,0.0,0.0,0.0,0.0,0.0,0.0,0.0,0.0,0.0,0.0,0.0,0.0,0.0,0.0,0.0,0.0,0.0,0.0,0.0,0.0,0.0,0.0,0.0,0.0,0.0,0.0,0.0,0.0,0.0,0.0,0.0,0.0,0.0,0.0,0.0,0.0,0.0,0.0,0.0,0.3457,0.3476,0.2797,0.205,0.1345,0.0462,-0.0586,-0.1798,-0.3064,-0.421,0.0,0.0,0.0,0.0,0.0,0.0,0.0,0.0,0.0,0.0,0.0,0.0,0.0,0.0,0.0,0.0,0.0,0.0,0.0,0.0,0.0,0.0,0.0,0.0,0.0,0.0,0.0,0.0,0.0,0.0,0.0,0.0,0.0,0.0,0.0,0.0,0.0,0.0,0.0,0.0,0.0,0.0,0.1401,0.0784,0.0,0.0,0.0,-0.1336,-0.1336,0.0,0.0,0.0,0.0,0.0,0.0,0.0,0.0,0.0,0.0,0.0,0.0,0.0,0.0,0.0,0.0,0.0,0.0,0.0,0.0,0.0,0.0,0.0,0.0,0.0,0.0,0.0,0.0,0.0,0.0,0.0,0.0,0.0,0.0,0.0,0.0,0.0,0.0,0.0,0.0,0.0,0.0,0.0,0.0,0.0,0.0,0.0,0.0,0.0,0.0,0.0,0.0,0.0,0.0,0.0,0.0,0.0,0.3147,0.2418,0.166,0.0941,0.0065,-0.1086,-0.2533,-0.349,0.0,0.0,0.0,0.0,0.0,0.0,0.0,0.0,0.0,0.0,0.0,0.0,0.0,0.0,0.0,0.0,0.0,0.0,0.0,0.0,0.0,0.0,0.0,0.0,0.0,0.0,0.0,0.261,0.0,0.0,0.0,0.0,0.0,0.0,0.0,0.0,0.0,0.0,0.0,0.0,0.0,0.0,0.2615,0.1636,0.102,0.0235,0.0,0.0,-0.1255,-0.1247,-0.1253,-0.1327,0.0,0.0,0.0,0.0,0.0,0.0,0.0,0.0,0.0,0.0,0.0,0.0,0.0,0.0,0.0,0.0,0.0,0.0,0.0,0.0,0.0,0.0,0.0,0.0,0.0,0.0,0.0,0.0,0.0,0.0,0.0,0.0,0.0,0.0,0.0,0.0,0.0,0.0,0.0,0.0,0.0,0.0,0.0,0.0,0.0,0.0,0.0,0.0,0.0,0.0,0.0,0.0,0.0,0.0,0.0,0.2207,0.1726,0.0898,-0.0134,-0.0523,-0.1395,-0.2893,-0.351,-0.4431,0.0,0.0,0.0,0.0,0.0,0.0,0.0,0.0,0.0,0.0,0.0,0.0,0.0,0.0,0.0,0.0,0.0,0.0,0.0,0.0,0.0,0.0,0.0,0.0,0.0,0.0,0.0,0.0,0.0,0.0,0.0,0.0,0.0,0.0,0.0,0.0,0.0,0.0,0.0,0.0,0.0,0.2819,0.2188,0.1256,0.039,0.0,0.0,-0.1247,-0.1219,-0.1239,-0.1335,-0.1333,0.0,0.0,0.0,0.0,0.0,0.0,0.0,0.0,0.0,0.0,0.0,0.0,0.0,0.0,0.0,0.0,0.0,0.0,0.0,0.0,0.0,0.0,0.0,0.0,0.0,0.0,0.0,0.0,0.0,0.0,0.0,0.0,0.0,0.0,0.0,0.0,0.0,0.0,0.0,0.0,0.0,0.0,0.0,0.0,0.0,0.0,0.0,0.0,0.0,0.0,0.0,0.0,0.0,0.2663,0.21,0.1611,0.0839,-0.0191,-0.0867,-0.1814,-0.31,-0.3929,-0.4905,0.0,0.0,0.0,0.0,0.0,0.0,0.0,0.0,0.0,0.0,0.0,0.0,0.0,0.0,0.0,0.0,0.0,0.0,0.0,0.0,0.0,0.0,0.0,0.0,0.0,0.0,0.0,0.0,0.3559,0.3653,0.3721,0.0,0.0,0.0,0.0,0.0,0.0,0.0,0.0,0.0,0.0,0.2732,0.2066,0.1228,0.0,0.0,-0.0829,-0.1286,-0.1236,-0.1234,-0.1236,-0.1254,-0.1299,0.0,0.0,0.0,0.0,0.0,0.0,0.0,0.0,0.0,0.0,0.0,0.0,0.0,0.0,0.0,0.0,0.0,0.0,0.0,0.0,0.0,0.0,0.0,0.0,0.0,0.0,0.0,0.0,0.0,0.0,0.0,0.0,0.0,0.0,0.0,0.0,0.0,0.0,0.0,0.0,0.0,0.0,0.0,0.0,0.0,0.0,0.0,0.0,0.0,0.0,0.0,0.0,0.2404,0.1684,0.1186,0.0437,-0.0563,-0.1321,-0.223,-0.3275,-0.4251,-0.5285,0.0,0.0,0.0,0.0,0.0,0.0,0.0,0.0,0.0,0.0,0.0,0.0,0.0,0.0,0.0,0.0,0.0,0.0,0.0,0.0,0.0,0.0,0.0,0.0,0.0,0.0,0.0,0.0,0.3712,0.3766,0.3549,0.0,0.0,0.0,0.0,0.0,0.0,0.0,0.0,0.0,0.0,0.2738,0.2097,0.1346,0.0597,0.0,-0.066,-0.1105,-0.1211,-0.1206,-0.1209,-0.1239,0.0,0.0,0.0,0.0,0.0,0.0,0.0,0.0,0.0,0.0,0.0,0.0,0.0,0.0,0.0,0.0,0.0,0.0,0.0,0.0,0.0,0.0,0.0,0.0,0.0,0.0,0.0,0.0,0.0,0.0,0.6114,0.0,0.0,0.0,0.0,0.0,0.0,0.0,0.0,0.0,0.0,0.0,0.0,0.0,0.0,0.0,0.0,0.0,0.0,0.0,0.0,0.0,0.0,0.1996,0.0769,0.032,-0.0385,-0.1409,-0.2002,-0.2698,-0.3569,-0.4465,-0.5429,-0.6524,0.0,0.0,0.0,0.0,0.0,0.0,0.0,0.0,0.0,0.0,0.0,0.0,0.0,0.0,0.0,0.0,0.0,0.0,0.0,0.0,0.0,0.0,0.0,0.0,0.0,0.0,0.3387,0.3626,0.3711,0.0,0.0,0.0,0.0,0.0,0.0,0.0,0.0,0.0,0.0,0.2923,0.2772,0.2567,0.1603,0.0795,0.0564,-0.0287,-0.0939,-0.1061,-0.115,-0.1177,0.0,0.0,0.0,0.0,0.0,0.0,0.0,0.0,0.0,0.0,0.0,0.0,0.0,0.0,0.0,0.0,0.0,0.0,0.0,0.0,0.0,0.0,0.0,0.0,0.0,0.0,0.0,0.2101,0.2603,0.0,0.0,0.0,0.0,0.0,0.0,0.0,0.0,0.0,0.0,0.0,0.6919,0.6861,0.0,0.0,0.0,0.0,0.0,0.0,0.0,0.0,0.0,0.0,0.0,0.0,0.1412,0.053,-0.012,-0.072,-0.1355,-0.1902,-0.2673,-0.3572,-0.4039,-0.5004,-0.6477,0.0,0.0,0.0,0.0,0.0,0.0,0.0,0.0,0.0,0.0,0.0,0.0,0.0,0.0,0.0,0.0,0.0,0.0,0.0,0.0,0.0,0.0,0.0,0.0,0.0,0.3086,0.0,0.0,0.0,0.0,0.0,0.0,0.0,0.0,0.0,0.0,0.0,0.2956,0.2935,0.278,0.2584,0.2355,0.1634,0.0991,0.0,0.0,0.0,0.0,0.0,0.0,0.0,0.0,0.0,0.0,0.0,0.0,0.0,0.0,0.0301,0.0889,0.1487,0.1865,0.1923,0.0,0.0,0.0,0.0,0.0,0.0,0.0,0.0,0.0,0.0,0.0,0.0,0.0,0.0,0.1036,0.0,0.175,0.0,0.0,0.0,0.0,0.0,0.0,0.0,0.0,0.588,0.615,0.628,0.6528,0.6589,0.0,0.6147,0.5748,0.0,0.0,0.0,0.0,0.0,0.0,0.0,0.0,0.1065,0.0291,-0.0473,-0.1059,-0.1485,-0.2254,-0.2963,-0.3741,-0.4622,-0.5658,-0.6952,-0.7745,-0.7944,0.0,0.0,0.0,0.0,0.0,0.0,0.0,0.0,0.0,0.0,0.0,0.0,0.0,0.0,0.0,0.0,0.0,0.0,0.0,0.0,0.0,0.0,0.0,0.3096,0.0,0.0,0.0,0.0,0.0,0.0,0.0,0.0,0.0,0.3238,0.2941,0.2782,0.274,0.2604,0.2446,0.2223,0.0,0.0,0.0,0.0,0.0,0.0,0.0,-0.1015,-0.0968,-0.1145,-0.1157,-0.0911,-0.0681,-0.0227,0.0379,0.0,0.0,0.1443,0.1818,0.2193,0.2248,0.2272,0.2292,0.2182,0.2258,0.2179,0.0,0.0,0.0,0.0,0.0,0.0,0.0,0.0,0.0328,0.0455,0.0,0.074,0.0,0.0,0.0,0.0,0.0,0.0,0.0,0.0,0.4945,0.5329,0.5322,0.5962,0.635,0.6278,0.5428,0.4921,0.4789,0.4786,0.0,0.0,0.0,0.0,0.0,0.0,0.0925,0.0,-0.0738,-0.1333,-0.1818,-0.2843,-0.358,-0.4079,-0.5987,-0.7289,-0.7812,-0.8165,-0.8383,-0.8363,-0.7594,0.0,0.0,0.0,0.0,0.0,0.0,0.0,0.0,0.0,0.0,0.0,0.0,0.0,0.0,0.0,0.0,0.0,0.0,0.0,0.0,0.2547,0.0,0.0,0.0,0.0,0.0,0.0,0.0,0.0,0.0,0.0,0.294,0.2893,0.284,0.2575,0.0,0.0,0.0,0.0,0.148,0.1144,0.0739,0.0403,0.0067,-0.0344,-0.0565,-0.058,0.0,0.0,-0.0378,0.0378,0.0907,0.121,0.1588,0.1892,0.1812,0.1965,0.2182,0.2279,0.2227,0.2181,0.2171,0.2213,0.2174,-0.2539,0.0,0.0,0.0,0.0,-0.1424,-0.1082,-0.0656,-0.0654,-0.0458,-0.0262,-0.0128,0.0,0.0,0.0,0.0,0.0,0.0,0.3491,0.3748,0.4213,0.4461,0.4561,0.4826,0.4894,0.4891,0.4655,0.4508,0.4378,0.3921,0.3568,0.3278,0.0,0.0,0.0,0.0,0.0374,-0.036,-0.1219,-0.1681,-0.1817,-0.2867,-0.3747,-0.4467,-0.61,-0.7079,-0.7348,-0.8128,-0.841,-0.8206,-0.7802,0.0,0.0,0.0,0.0,0.0,0.0,0.0,0.0,0.0,0.0,0.0,0.0,0.0,0.0,0.0,0.0,0.0,0.0,0.0,0.2132,0.3008,0.3364,0.0,0.0,0.0,0.0,0.0,0.0,0.0,0.0,0.0,0.2745,0.2505,0.2367,0.0,0.0,0.2194,0.2227,0.1951,0.1681,0.1277,0.0,0.0,0.0,0.0275,0.0211,0.0212,0.0072,0.0,0.0147,0.0368,0.0737,0.1254,0.1474,0.1613,0.2021,0.2219,0.2334,0.2395,0.2349,0.2224,0.2255,0.2191,0.2255,-0.4073,-0.3943,-0.3359,-0.2913,-0.2507,-0.2538,-0.2147,-0.1478,-0.1471,-0.1204,-0.0806,-0.0727,-0.0517,-0.0251,0.0186,0.0,0.0,0.0,0.272,0.3077,0.3456,0.3749,0.3887,0.4154,0.4284,0.4284,0.4018,0.3885,0.3887,0.322,0.2772,0.2617,0.0,0.0,0.1317,0.0702,0.0189,-0.0301,-0.1221,-0.1674,-0.1628,-0.2796,-0.3796,-0.4632,-0.6041,-0.6804,-0.6918,-0.7931,-0.8443,-0.8223,-0.7968,-0.7455,0.0,0.0,0.0,0.0,0.0,0.0,0.0,0.0,0.0,0.0,0.0,-0.2107,-0.1725,0.0,0.0,0.0,0.0555,0.1589,0.2468,0.294,0.0,0.0,0.0,0.0,0.0,0.0,0.0,0.2858,0.2741,0.2686,0.2627,0.2367,0.2207,0.235,0.2273,0.2198,0.2191,0.0,0.1884,0.1547,0.1479,0.1277,0.1008,0.0826,0.0632,0.0498,0.0649,0.0801,0.0801,0.102,0.1312,0.1602,0.1736,0.1858,0.2181,0.2286,0.2313,0.2313,0.2288,0.2251,0.2214,0.2238,0.224,-0.5495,-0.5335,-0.399,-0.3333,-0.3292,-0.3313,-0.2882,-0.2218,-0.2206,-0.1788,-0.121,-0.1143,-0.0995,-0.0777,-0.0315,0.0,0.0,0.1293,0.1574,0.2153,0.2818,0.3084,0.3151,0.3818,0.4154,0.4087,0.3418,0.3151,0.3084,0.2621,0.2288,0.2151,0.2098,0.1876,0.1422,0.0709,0.0254,0.0,-0.0922,-0.1431,-0.1461,-0.2792,-0.3846,-0.4625,-0.5882,-0.6588,-0.6696,-0.7777,-0.8368,-0.8309,-0.7926,-0.7422,-0.6662,0.0,0.0,0.0,0.0,0.0,0.0,0.0,0.0,0.0,0.0,0.0,0.0,0.0,0.0,0.0,0.1078,0.0,0.2409,0.26,0.0,0.0,0.0,0.3016,0.3018,0.3016,0.2915,0.284,0.0,0.0,0.0,0.0,0.2222,0.2391,0.2253,0.2186,0.217,0.2187,0.2153,0.1951,0.1884,0.1883,0.1615,0.1372,0.1053,0.0716,0.1086,0.1445,0.1516,0.1879,0.2245,0.2241,0.2274,0.2166,0.2167,0.2196,0.2221,0.223,0.2227,0.2224,0.2225,0.223,0.2231,-0.6141,-0.6133,-0.5788,-0.4997,-0.4048,-0.4008,-0.3618,-0.295,-0.2364,-0.2026,-0.1812,-0.1344,-0.1072,-0.0998,-0.0463,-0.0132,0.0133,0.0932,0.1403,0.1546,0.2151,0.2421,0.2487,0.2621,0.269,0.269,0.2488,0.242,0.2421,0.2288,0.2085,0.1748,0.1736,0.1465,0.0931,0.0326,-0.019,-0.0494,-0.1086,-0.1925,-0.2905,-0.3516,-0.4405,-0.5445,-0.6091,-0.6696,-0.7246,-0.7889,-0.8055,-0.7557,-0.7351,-0.6813,-0.5859,-0.5479,0.0,0.0,0.0,0.0,0.0,0.0,0.0,0.0,0.0,-0.1774,-0.1612,0.0,-0.0794,0.0,0.0653,0.1612,0.2299,0.2508,0.0,0.0,0.2803,0.294,0.2941,0.2792,0.2693,0.2627,0.2394,0.2249,0.2263,0.224,0.2255,0.2268,0.2255,0.218,0.2174,0.2164,0.2221,0.2153,0.2153,0.2085,0.2087,0.1961,0.1841,0.1783,0.1922,0.1991,0.1992,0.2128,0.2196,0.2198,0.2187,0.2176,0.2177,0.223,0.2223,0.2221,0.2221,0.2221,0.2221,0.2221,0.2221,-0.6662,-0.6396,-0.6396,-0.5807,-0.4755,-0.4758,-0.4353,-0.3685,-0.3282,-0.2681,-0.2079,-0.1411,-0.1076,-0.1076,-0.0806,-0.0538,-0.0269,0.0336,0.0873,0.1277,0.1681,0.1951,0.2221,0.2221,0.2221,0.2221,0.2221,0.2221,0.2221,0.1951,0.1681,0.1479,0.1008,0.0806,0.0805,0.0262,-0.0126,-0.0363,-0.1171,-0.1995,-0.285,-0.3516,-0.4236,-0.5175,-0.5819,-0.6367,-0.6912,-0.7408,-0.7521,-0.7139,-0.6972,-0.6484,-0.5579,-0.5429,-0.4992,0.0,0.0,0.0,0.0,0.0,0.0,0.0,0.0,0.0,0.0,0.0,-0.0645,0.0,0.1075,0.0,0.2261,0.2381,0.2446,0.2474,0.2524,0.259,0.2622,0.2552,0.2465,0.2432,0.2262,0.2324,0.2632,0.2652,0.2707,0.2709,0.2692,0.2567,0.2254,0.2172,0.2221,0.2221,0.2221,0.2221,0.2221,0.2221,0.2221,0.2221,0.2221,0.2221,0.2221,0.2221,0.2221,0.2221,0.2221,0.2221,0.2221,0.2221,0.2221,0.2221,0.2221,0.2221,0.2221,0.2221,0.2221,-0.719,-0.6662,-0.6658,-0.6207,-0.5557,-0.5557,-0.509,-0.442,-0.4353,-0.3482,-0.2079,-0.1411,-0.1076,-0.1076,-0.1076,-0.0873,-0.0403,-0.0336,0.0202,0.1076,0.1143,0.1547,0.2085,0.2085,0.2153,0.2221,0.2221,0.2154,0.2085,0.1547,0.1277,0.121,0.0336,0.0201,0.0802,0.0457,0.0188,0.0,-0.1193,-0.1959,-0.224,-0.3183,-0.3959,-0.457,-0.5391,-0.5937,-0.6263,-0.6756,-0.6923,-0.6766,-0.6593,-0.6173,-0.5546,-0.547,-0.5104,0.0,-0.4122,0.0,0.0,0.0,0.0,0.0,0.0,0.0,0.0,-0.0982,-0.0281,0.0911,0.1683,0.2192,0.2308,0.2194,0.2258,0.2315,0.2206,0.2198,0.2254,0.2256,0.2324,0.2323,0.2341,0.2603,0.3212,0.3311,0.3385,0.3453,0.3406,0.3179,0.2625,0.232,0.2221,0.2221,0.2221,0.2221,0.2221,0.2221,0.2221,0.2221,0.2221,0.2221,0.2221,0.2221,0.2221,0.2221,0.2221,0.2221,0.2221,0.2221,0.2221,0.2221,0.2221,0.2221,0.2221,0.2221,0.2221,-0.8231,-0.8096,-0.8091,-0.7381,-0.6207,-0.6203,-0.5815,-0.516,-0.4556,-0.3485,-0.208,-0.1411,-0.1076,-0.1076,-0.1076,-0.1008,-0.0941,-0.047,-0.0202,0.0,0.047,0.0941,0.1479,0.1479,0.1748,0.2154,0.2221,0.1951,0.1479,0.1344,0.1143,0.0873,0.0672,0.0731,0.0975,0.0,0.0,0.0,-0.1573,-0.224,-0.2465,-0.3408,-0.4294,-0.5117,-0.5449,0.0,-0.648,-0.6637,-0.648,-0.6046,-0.5887,0.0,0.0,0.0,0.0,0.0,0.0,0.0,0.0,0.0,0.0,0.0,-0.1368,-0.1383,-0.1286,-0.0494,0.043,0.1335,0.1753,0.202,0.2191,0.2179,0.2195,0.2182,0.2181,0.2198,0.2326,0.2292,0.2191,0.219,0.2686,0.3048,0.3267,0.3706,0.4095,0.4118,0.41,0.403,0.3914,0.2902,0.2221,0.2221,0.2287,0.2221,0.2221,0.2221,0.2221,0.2221,0.2221,0.2221,0.2221,0.2221,0.2221,0.2221,0.2221,0.2221,0.2221,0.2221,0.2221,0.2221,0.2221,0.2221,0.2221,0.2221,0.2221,-0.8818,0.0,-0.849,-0.7707,0.0,-0.6396,-0.6009,-0.5359,-0.5024,-0.4018,-0.2614,-0.1879,-0.1411,-0.1076,-0.1076,-0.1076,-0.1076,-0.0806,-0.0538,-0.0269,0.0,0.04,0.0987,0.0935,0.106,0.142,0.1659,0.1603,0.1385,0.1336,0.121,0.1008,0.0538,0.0601,0.1184,0.0704,0.0061,-0.069,-0.1582,-0.2181,-0.2629,-0.3408,-0.4236,-0.5062,0.0,0.0,0.0,0.0,0.0,0.0,0.0,0.0,0.0,0.0,0.0,-0.4172,-0.3625,-0.2993,-0.2437,-0.1905,-0.1478,-0.1207,-0.1196,-0.106,-0.0806,-0.0069,0.0697,0.1376,0.1786,0.2118,0.2158,0.2221,0.2166,0.2196,0.22,0.2213,0.2236,0.2492,0.2539,0.2335,0.3115,0.3751,0.3751,0.4348,0.4815,0.4815,0.4882,0.4749,0.4414,0.3754,0.3222,0.3222,0.2887,0.2684,0.2686,0.2354,0.2221,0.2221,0.2487,0.2554,0.2288,0.2487,0.2619,0.2287,0.2221,0.2221,0.2221,0.2221,0.2221,0.2221,0.2221,0.2221,0.2221,0.2221,0.2221,-0.9151,-0.8683,-0.8689,-0.7962,-0.6789,-0.6793,-0.6334,-0.5557,0.0,0.0,0.0,-0.2414,-0.1745,-0.1143,-0.1076,-0.1076,-0.1076,-0.1076,-0.0873,-0.047,-0.0403,-0.0066,0.0581,0.0528,0.0584,0.0865,0.123,0.1378,0.1419,0.132,0.1338,0.121,0.0403,0.0402,0.1131,0.076,0.0182,-0.0707,-0.1368,-0.2014,-0.2627,-0.3236,-0.3904,-0.4787,-0.4842,-0.5079,-0.5445,-0.5506,-0.5471,-0.552,-0.5329,-0.516,-0.4965,-0.4793,-0.4372,-0.3591,-0.3297,-0.2743,-0.1808,-0.1579,-0.1325,-0.111,-0.109,-0.0806,-0.0202,0.0269,0.0739,0.1412,0.1951,0.2221,0.2221,0.2221,0.2221,0.2221,0.2221,0.2221,0.2354,0.2818,0.3021,0.2753,0.3689,0.4486,0.455,0.515,0.5609,0.5675,0.5679,0.5543,0.5011,0.455,0.422,0.4087,0.3685,0.3418,0.3349,0.3019,0.2622,0.2688,0.3086,0.3153,0.2822,0.3019,0.3153,0.2755,0.2555,0.2622,0.2554,0.2554,0.2421,0.2557,0.2356,0.2221,0.2356,0.2288,0.2221,-0.942,-0.935,-0.935,-0.8888,-0.8231,-0.8226,-0.7442,-0.6207,-0.4948,-0.3951,-0.3149,-0.2414,-0.1745,-0.1076,-0.1076,-0.1076,-0.1076,-0.1076,-0.1076,0.0,-0.1008,-0.0463,0.0387,0.0388,0.0891,0.1792,0.1865,0.1704,0.135,0.1293,0.1313,0.1273,0.1143,0.0929,0.0712,0.0626,0.0121,-0.0825,-0.1199,-0.1737,-0.2521,-0.2963,-0.363,-0.4515,-0.4684,-0.4805,-0.499,-0.4993,-0.5065,-0.5169,-0.494,-0.4643,-0.4336,-0.4116,-0.373,-0.3251,-0.268,-0.2196,-0.2012,-0.1471,-0.114,-0.1081,-0.1078,-0.0672,0.0269,0.047,0.0941,0.1951,0.2153,0.2221,0.2221,0.2221,0.2221,0.2221,0.2221,0.2421,0.2952,0.3149,0.3418,0.3887,0.4749,0.5282,0.5415,0.6013,0.6474,0.6609,0.6544,0.6609,0.6276,0.5342,0.4547,0.435,0.4217,0.4154,0.4151,0.4084,0.3887,0.402,0.402,0.4151,0.3889,0.4018,0.4087,0.402,0.3887,0.3887,0.3887,0.3485,0.3355,0.3627,0.3092,0.249,0.2963,0.2693,0.2287,-0.9862,-0.9478,-0.9478,-0.907,-0.8233,-0.7922,-0.7154,-0.6201,-0.5636,-0.4812,-0.3818,-0.3418,-0.2882,-0.228,-0.2213,-0.2013,-0.1612,-0.1678,-0.1276,-0.0671,-0.0728,-0.0324,0.0379,0.0441,0.0614,0.1119,0.1456,0.1477,0.1294,0.1585,0.1751,0.1707,0.1709,0.123,0.0252,0.0427,0.0059,-0.0861,-0.1018,-0.1401,-0.2127,-0.2627,-0.3239,-0.3962,-0.4349,-0.4671,-0.4809,-0.4809,-0.4826,-0.4984,-0.4866,-0.4713,-0.4597,-0.418,-0.3675,-0.3143,-0.2473,-0.1914,-0.161,-0.1277,-0.1008,-0.0672,-0.0672,-0.0202,0.0873,0.0672,0.0941,0.2085,0.2221,0.2221,0.2221,0.2221,0.2221,0.2221,0.2221,0.2487,0.3084,0.3549,0.3951,0.4353,0.5345,0.5943,0.5683,0.628,0.6811,0.6876,0.6942,0.7007,0.6946,0.6404,0.5939,0.5745,0.5415,0.5209,0.5143,0.4815,0.4616,0.4553,0.4882,0.4948,0.4752,0.4815,0.4945,0.4683,0.448,0.4414,0.4411,0.4084,0.4023,0.4097,0.3894,0.356,0.3696,0.3493,0.3088,-1.0415,-0.9977,-0.985,-0.9289,-0.8371,-0.7757,-0.6977,-0.6274,-0.6475,-0.5774,-0.4619,-0.4353,-0.3885,-0.3215,-0.3218,-0.2815,-0.2144,-0.2134,-0.153,-0.0531,-0.0389,-0.0063,0.0429,0.055,0.0594,0.0737,0.1121,0.1316,0.1424,0.1855,0.21,0.2124,0.2128,0.1462,0.0185,0.0359,0.0116,-0.0674,-0.0841,-0.1177,-0.179,-0.2402,-0.2959,-0.3572,-0.4184,-0.4518,-0.4629,-0.4636,-0.4711,-0.485,-0.4713,-0.4531,-0.4442,-0.3835,-0.321,-0.2603,-0.2116,-0.163,-0.1205,-0.1076,-0.0873,-0.0336,-0.0336,0.0134,0.1076,0.0941,0.1076,0.2018,0.2221,0.2221,0.2221,0.2221,0.2287,0.2421,0.2487,0.2954,0.3616,0.4284,0.4749,0.5017,0.6013,0.6544,0.621,0.6548,0.6946,0.7073,0.7199,0.7199,0.7269,0.7396,0.7461,0.733,0.6736,0.6141,0.6075,0.5679,0.5345,0.5279,0.5745,0.5789,0.5505,0.5748,0.5788,0.5308,0.5036,0.5022,0.4909,0.4745,0.4713,0.4878,0.4556,0.4276,0.4114,0.4077,0.3906,-1.1384,-1.1286,-1.092,-1.0324,-0.9428,-0.877,-0.7935,-0.7072,-0.7047,-0.639,-0.5352,-0.4619,-0.3949,-0.3282,-0.3284,-0.2882,-0.2139,-0.2094,-0.1684,-0.0905,-0.0503,-0.0061,0.0475,0.0829,0.1278,0.1579,0.1699,0.1728,0.1818,0.1895,0.1956,0.2116,0.2128,0.1775,0.117,0.0717,0.0232,-0.0281,-0.0673,-0.1177,-0.179,-0.2402,-0.3016,-0.3569,-0.4184,-0.4522,-0.4438,-0.4539,-0.4555,-0.4684,-0.4068,-0.3545,-0.311,-0.2418,-0.1796,-0.1238,-0.1144,-0.1111,-0.1072,-0.1076,-0.0806,-0.0403,-0.0269,0.0202,0.121,0.1277,0.1479,0.2085,0.2221,0.222,0.2221,0.2288,0.2554,0.3084,0.3286,0.3887,0.5017,0.5609,0.6009,0.6618,0.6806,0.6946,0.7064,0.7265,0.733,0.7587,0.7652,0.7847,0.8231,0.8296,0.8554,0.8678,0.7907,0.7003,0.6872,0.6811,0.6736,0.6741,0.6745,0.6755,0.6655,0.6514,0.6442,0.6458,0.6218,0.6161,0.6002,0.5806,0.5709,0.5799,0.5294,0.4495,0.414,0.4119,0.4001,-1.1721,-1.117,-1.1054,-1.0588,-0.982,-0.9554,-0.8856,-0.7963,-0.7908,-0.7442,-0.6567,-0.5708,-0.5003,-0.4486,-0.4489,-0.3853,-0.2808,-0.2777,-0.1784,-0.0188,0.0061,0.0536,0.1235,0.1443,0.1649,0.1798,0.1797,0.1809,0.1834,0.1865,0.1925,0.1995,0.1974,0.1761,0.1259,0.0989,0.0625,0.0168,-0.028,-0.0616,-0.0896,-0.1733,-0.2291,-0.2569,-0.3125,-0.3458,-0.3403,-0.3458,-0.3479,-0.3468,-0.3205,-0.2977,-0.279,-0.2169,-0.1623,-0.1139,-0.0502,-0.0194,-0.0196,-0.02,0.0067,0.0605,0.0672,0.1008,0.1748,0.2216,0.2551,0.2753,0.2818,0.2818,0.2818,0.3284,0.368,0.3946,0.4148,0.4683,0.5609,0.587,0.6268,0.7321,0.7652,0.7847,0.8291,0.8484,0.8619,0.8683,0.8683,0.8748,0.9069,0.9069,0.9192,0.932,0.8812,0.849,0.8361,0.8425,0.8425,0.8425,0.8425,0.8361,0.8042,0.8017,0.7982,0.7624,0.7436,0.722,0.6971,0.6764,0.6582,0.6517,0.6249,0.554,0.5417,0.5251,0.5225,-1.2589,-1.1895,-1.1403,-1.0752,-1.0126,-0.9958,-0.9294,-0.8449,-0.8409,-0.7827,-0.6926,-0.6241,-0.5694,-0.5305,-0.5387,-0.4552,-0.3283,-0.3209,-0.2023,-0.0062,0.0179,0.0645,0.1449,0.1589,0.1685,0.1797,0.1797,0.1797,0.1804,0.1853,0.1903,0.1935,0.1902,0.1705,0.141,0.1207,0.0966,0.0626,0.0227,0.0,-0.0114,-0.0788,-0.1399,-0.179,-0.2233,-0.2514,-0.2514,-0.24,-0.2345,-0.2289,-0.2176,-0.2065,-0.2065,-0.1509,-0.1079,-0.0765,-0.0062,0.0386,0.0386,0.0661,0.1007,0.1545,0.1746,0.2147,0.2751,0.3284,0.3549,0.3682,0.3816,0.3949,0.368,0.4212,0.461,0.4809,0.508,0.5543,0.6396,0.6593,0.7116,0.8221,0.849,0.8748,0.925,0.9384,0.939,0.939,0.9454,0.9582,0.9716,0.9779,0.9837,1.0028,1.0098,0.9837,0.9582,0.939,0.9518,0.9518,0.9384,0.9227,0.9029,0.891,0.8699,0.796,0.8149,0.8092,0.763,0.7396,0.7264,0.6796,0.647,0.6325,0.602,0.6062,0.5969,-1.4184,-1.3849,-1.2316,-1.1181,-1.0375,-0.9962,-0.9112,-0.8447,-0.8261,-0.7328,-0.6198,-0.588,-0.5525,-0.5027,-0.5213,-0.4549,-0.3157,-0.3071,-0.2332,-0.0861,-0.0418,0.0,0.0506,0.0898,0.1347,0.1797,0.1797,0.1797,0.1801,0.1852,0.1882,0.1883,0.1877,0.188,0.1763,0.1409,0.1176,0.1117,0.0706,0.047,0.0468,0.0342,-0.0449,-0.1567,-0.1898,-0.1953,-0.1952,-0.1561,-0.1337,-0.1337,-0.0837,-0.0558,-0.0503,0.0,0.0228,0.0354,0.0436,0.045,0.0645,0.1255,0.1878,0.2348,0.3013,0.3611,0.4146,0.4411,0.461,0.4749,0.5467,0.5533,0.4872,0.4942,0.5276,0.5804,0.6009,0.6728,0.7907,0.8161,0.8678,0.9262,0.9454,0.9582,0.9582,0.9518,0.9646,0.9646,0.9582,0.9837,1.0471,1.0541,1.0856,1.1296,1.1421,1.1108,0.9894,0.9837,0.9773,0.9755,0.9907,0.9485,0.8997,0.864,0.8444,0.8257,0.8275,0.819,0.8045,0.7886,0.7722,0.7365,0.6823,0.658,0.6463,0.6039,0.5905,-1.4397,-1.4104,-1.3293,-1.2763,-1.2444,-1.1796,-1.1183,-1.0668,-0.9879,-0.8848,-0.7688,-0.7016,-0.6263,-0.5361,-0.4791,-0.3979,-0.2999,-0.2636,-0.1752,-0.0597,-0.0058,0.0397,0.0843,0.1346,0.1628,0.1797,0.1797,0.1797,0.1798,0.1819,0.1827,0.1828,0.1827,0.1843,0.1875,0.1705,0.1663,0.1635,0.1273,0.1021,0.0945,0.0641,0.0172,-0.0336,-0.0448,-0.0447,-0.0448,-0.028,-0.0224,-0.0224,0.0,0.0112,0.0168,0.056,0.0854,0.1001,0.1652,0.2142,0.2375,0.3029,0.3611,0.388,0.4148,0.4475,0.4809,0.5467,0.6052,0.6314,0.7358,0.7812,0.7553,0.6846,0.6601,0.7251,0.7512,0.7967,0.8742,0.9134,0.9396,1.0034,1.0478,1.0856,1.0856,1.0856,1.0856,1.0856,1.1156,1.1454,1.1764,1.2081,1.2405,1.2712,1.2781,1.265,1.2258,1.1288,1.085,1.0788,1.0739,1.043,1.0073,0.9615,0.9425,0.9112,0.8896,0.8666,0.8612,0.8158,0.8043,0.7831,0.7333,0.6986,0.6809,0.6594,0.6346,-1.505,-1.4553,-1.4359,-1.4089,-1.381,-1.3348,-1.2812,-1.2314,-1.1504,-1.0331,-0.9004,-0.8098,-0.7152,-0.5966,-0.4419,-0.36,-0.32,-0.2393,-0.1426,-0.0353,0.0,0.051,0.1068,0.1403,0.1628,0.1796,0.202,0.2186,0.2408,0.2573,0.2517,0.241,0.2819,0.2864,0.2638,0.2807,0.2932,0.2675,0.2433,0.2222,0.2122,0.2034,0.1942,0.1963,0.2125,0.183,0.1081,0.1137,0.1308,0.1477,0.1534,0.147,0.1456,0.179,0.1979,0.2143,0.2887,0.3572,0.3998,0.4739,0.5373,0.5658,0.5963,0.6187,0.6314,0.7163,0.7618,0.8006,0.8597,0.9378,0.9244,0.8667,0.835,0.8613,0.8748,0.9069,0.9709,1.0021,1.0584,1.1406,1.1911,1.2174,1.2236,1.2236,1.2228,1.2228,1.2589,1.2818,1.2887,1.313,1.3511,1.3511,1.339,1.339,1.313,1.252,1.2212,1.215,1.166,1.1333,1.1017,1.0615,1.0221,0.9948,0.9688,0.9458,0.9086,0.856,0.8349,0.8237,0.7877,0.7478,0.7382,0.7317,0.6977,-1.6336,-1.5712,-1.5536,-1.5159,-1.4598,-1.4392,-1.37,-1.3012,-1.2763,-1.1545,-0.9843,-0.9085,-0.8351,-0.6886,-0.4629,-0.3455,-0.3598,-0.2266,-0.1078,-0.0177,0.0059,0.0574,0.1344,0.1567,0.1792,0.2128,0.2516,0.3123,0.3727,0.4177,0.4239,0.4036,0.5084,0.5117,0.3937,0.4803,0.4948,0.4532,0.4405,0.4342,0.4276,0.4755,0.497,0.5016,0.5537,0.4828,0.264,0.2874,0.328,0.3632,0.3685,0.3691,0.3471,0.3622,0.3799,0.3792,0.4203,0.4614,0.5108,0.6212,0.7049,0.7482,0.8344,0.8784,0.8965,0.9227,0.9424,0.9558,0.9691,0.9767,0.9952,1.0186,1.0242,0.964,0.9697,1.0015,1.0598,1.1156,1.195,1.2948,1.3268,1.345,1.345,1.3268,1.326,1.3381,1.3563,1.3674,1.3846,1.4025,1.3743,1.3743,1.4145,1.4433,1.4025,1.3563,1.3554,1.3399,1.2712,1.2245,1.1831,1.1407,1.0825,1.0465,1.0205,0.9969,0.9969,0.9496,0.9287,0.9131,0.8554,0.8237,0.8137,0.8037,0.7622,-1.8327,-1.836,-1.7636,-1.7357,-1.7143,-1.6304,-1.554,-1.4991,-1.4187,-1.2902,-1.1668,-1.1109,-1.0324,-0.8704,-0.6039,-0.462,-0.4467,-0.084,0.1086,0.1094,0.2154,0.2907,0.3214,0.3545,0.377,0.399,0.4481,0.507,0.5675,0.6156,0.6377,0.6729,0.7346,0.7486,0.721,0.7491,0.7496,0.7395,0.7351,0.7346,0.7328,0.7486,0.7395,0.6924,0.7086,0.6934,0.6777,0.5846,0.5218,0.4995,0.4886,0.4755,0.4632,0.4867,0.5136,0.5245,0.5804,0.6357,0.6899,0.7706,0.8594,0.9387,0.9869,1.0286,1.0774,1.1224,1.1487,1.1611,1.1935,1.2258,1.232,1.2435,1.212,1.1017,1.1315,1.175,1.2381,1.2704,1.3009,1.3381,1.3511,1.3511,1.3511,1.3571,1.3846,1.4246,1.4542,1.4904,1.5293,1.5583,1.6042,1.6042,1.6042,1.5698,1.5467,1.51,1.483,1.4378,1.3614,1.2839,1.2488,1.1903,1.1309,1.093,1.0716,1.0592,1.0541,1.0431,1.0174,1.0174,0.9909,0.9547,0.9176,0.8764,0.8408,-2.0267,-2.0524,-1.9909,-1.9652,-1.9617,-1.8705,-1.8221,-1.779,-1.6912,-1.5855,-1.4893,-1.4298,-1.1954,-0.873,-0.5721,-0.3076,-0.055,0.3823,0.5728,0.5372,0.4858,0.5218,0.5358,0.5819,0.6475,0.695,0.7453,0.817,0.9042,0.9589,0.9904,1.0102,1.077,1.0959,1.0654,1.0887,1.0945,1.0728,1.0735,1.0657,1.068,1.0887,1.0653,1.0007,1.0422,1.0573,1.0409,0.9728,0.8812,0.7623,0.7026,0.67,0.6454,0.6889,0.7133,0.7191,0.7772,0.8399,0.9081,0.9602,1.0302,1.1196,1.1544,1.1796,1.2219,1.2663,1.2915,1.3262,1.3528,1.3906,1.4118,1.4423,1.4109,1.3417,1.2959,1.3347,1.3965,1.4204,1.4492,1.4777,1.4953,1.4885,1.4895,1.4895,1.5002,1.5458,1.5813,1.611,1.661,1.6901,1.7135,1.7257,1.6912,1.6789,1.7013,1.6684,1.6206,1.5295,1.4345,1.3573,1.2954,1.2155,1.1467,1.1199,1.0947,1.0947,1.0897,1.0998,1.0846,1.0956,1.0956,1.049,0.9909,0.971,0.9302,-2.21,-2.2117,-2.2048,-2.168,-2.1437,-2.1268,-2.091,-2.0676,-2.0227,-1.9451,-1.8657,-1.7815,-1.3553,-0.7349,-0.4774,-0.0468,0.6224,0.9204,1.1361,1.1525,1.0118,0.8704,0.8897,0.9387,1.0179,1.0956,1.1421,1.2337,1.371,1.4252,1.4368,1.4215,1.5243,1.5395,1.4753,1.5079,1.5139,1.4694,1.4521,1.4547,1.4538,1.4972,1.4863,1.3983,1.5015,1.5,1.3735,1.3965,1.3339,1.1115,0.9829,0.9289,0.9216,0.9502,0.9602,0.9529,1.0017,1.0784,1.1563,1.1657,1.2109,1.3158,1.3501,1.3683,1.3828,1.4007,1.4246,1.4632,1.4749,1.4974,1.5486,1.6001,1.6239,1.6193,1.4925,1.4601,1.5303,1.5477,1.5823,1.6676,1.7135,1.7135,1.6901,1.6901,1.7069,1.7191,1.7246,1.7401,1.7622,1.7841,1.7534,1.7589,1.7809,1.7754,1.7907,1.7135,1.6612,1.5967,1.5063,1.4248,1.3603,1.2819,1.2223,1.1894,1.1584,1.1443,1.141,1.161,1.161,1.161,1.141,1.1006,1.0753,1.0541,1.0182,-2.3438,-2.3727,-2.2797,-2.2454,-2.2496,-2.2127,-2.1734,-2.1362,-2.0967,-2.0551,-2.0095,-1.9834,-1.4984,-0.8686,-0.5528,-0.0588,0.6839,1.1593,1.4356,1.6078,1.6905,1.6138,1.569,1.5868,1.604,1.6236,1.6582,1.7434,1.8178,1.8654,1.8983,1.9333,1.9784,2.0124,1.9899,1.9908,2.0075,1.9898,1.9838,1.9747,1.9648,1.9426,1.9043,1.8399,1.8223,1.7762,1.695,1.717,1.5807,1.2736,1.1736,1.1451,1.1628,1.1726,1.1925,1.218,1.2078,1.2538,1.357,1.3543,1.3972,1.5213,1.5426,1.5756,1.6213,1.6213,1.6337,1.6497,1.6701,1.697,1.7181,1.762,1.7838,1.7741,1.6892,1.6419,1.662,1.6754,1.6912,1.7202,1.7512,1.7611,1.7611,1.7872,1.824,1.8424,1.8584,1.8903,1.9061,1.9044,1.8886,1.8951,1.9069,1.8857,1.8472,1.7663,1.6972,1.6491,1.5712,1.4885,1.4426,1.3978,1.3527,1.317,1.2861,1.2667,1.255,1.252,1.2471,1.2264,1.2017,1.1719,1.156,1.136,1.0998,-2.4277,-2.4531,-2.3745,-2.355,-2.3652,-2.3244,-2.2954,-2.2703,-2.2199,-2.0174,-1.8219,-1.7335,-1.1559,-0.2506,0.0003,0.5038,1.223,1.6028,1.8627,2.0618,2.2852,2.2262,2.0502,2.0256,2.0556,2.0794,2.1225,2.1825,2.2443,2.285,2.3112,2.3309,2.3651,2.3762,2.3612,2.3594,2.3523,2.3443,2.3359,2.3255,2.3247,2.2892,2.2247,2.17,2.1234,2.094,2.0184,1.9722,1.8111,1.5642,1.4478,1.4138,1.4173,1.4299,1.4437,1.466,1.4597,1.5109,1.5742,1.5639,1.5974,1.6883,1.7192,1.7368,1.7599,1.772,1.7775,1.8251,1.8442,1.8773,1.9141,1.9428,1.957,1.9609,1.9327,1.8819,1.8197,1.8112,1.8221,1.8489,1.8785,1.9024,1.8761,1.9364,1.9724,1.9953,1.9965,2.0281,2.0607,2.0459,2.0321,2.0245,1.9927,1.9622,1.9144,1.8336,1.7568,1.7027,1.6362,1.5566,1.5076,1.4782,1.4283,1.3941,1.3941,1.38,1.343,1.3152,1.2958,1.2754,1.2569,1.2323,1.2067,1.1968,1.166,-2.4683,-2.4687,-2.4659,-2.4615,-2.4476,-2.4358,-2.3964,-2.3919,-2.2122,-1.8619,-1.4286,-1.2396,-0.4913,0.7813,0.7062,1.2805,1.9657,2.1042,2.3095,2.5024,2.6851,2.6468,2.3484,2.3485,2.3947,2.4527,2.5022,2.5596,2.6095,2.64,2.6472,2.6454,2.6509,2.654,2.6441,2.6197,2.6028,2.5987,2.5802,2.5664,2.5631,2.5378,2.486,2.4239,2.4077,2.3748,2.2842,2.1971,2.0489,1.8524,1.7705,1.7154,1.6916,1.7124,1.7144,1.6983,1.7235,1.7537,1.8009,1.7852,1.7982,1.8567,1.8737,1.8737,1.8936,1.9028,1.9236,1.9864,1.9953,2.0455,2.0975,2.1363,2.1397,2.137,2.1627,2.1137,2.0142,1.962,1.9799,2.0295,2.0805,2.0988,2.117,2.1459,2.1791,2.1164,2.1239,2.1445,2.1615,2.1438,2.1293,2.117,2.0784,2.0286,1.9694,1.9042,1.8272,1.7587,1.6974,1.6254,1.5598,1.521,1.4743,1.4444,1.4455,1.4176,1.38,1.3573,1.3382,1.3152,1.2861,1.2618,1.2372,1.2323,1.2116,-2.4545,-2.4545,-2.4452,-2.4115,-2.371,-2.3629,-2.328,-2.2321,-1.7316,-1.4264,-1.1712,-0.7406,-0.0103,0.8131,1.0179,1.407,2.1259,2.33,2.5095,2.7233,2.8662,2.9094,2.7831,2.7707,2.8003,2.8245,2.846,2.8687,2.8861,2.8771,2.8937,2.8867,2.8725,2.8883,2.8761,2.859,2.8764,2.8721,2.8532,2.8364,2.8164,2.7713,2.7252,2.6766,2.605,2.5491,2.504,2.4304,2.3436,2.2367,2.0934,1.9963,1.9733,1.9422,1.9422,1.9585,1.918,1.929,1.9927,1.9839,1.9737,2.033,2.0713,2.1005,2.1048,2.1021,2.1179,2.1505,2.1769,2.2168,2.2622,2.2756,2.2817,2.2847,2.2877,2.2832,2.2366,2.1755,2.1519,2.1627,2.1969,2.2108,2.1895,2.2548,2.2698,2.2412,2.2472,2.2591,2.2546,2.2455,2.2257,2.2151,2.1876,2.1368,2.0598,1.9826,1.8922,1.8229,1.7648,1.7175,1.6506,1.5959,1.5652,1.5287,1.4926,1.4686,1.4479,1.3941,1.3752,1.3478,1.32,1.3055,1.29,1.2813,1.2813,-2.3603,-2.3585,-2.3356,-2.3088,-2.2814,-2.2588,-2.0694,-1.7314,-1.3637,-0.8309,-0.2901,0.1775,0.7153,1.3397,1.5215,1.8776,2.1972,2.4509,2.644,2.813,2.9139,2.949,2.9755,2.9773,2.9789,2.9843,2.9861,3.0023,3.0166,3.0204,3.0156,3.0272,3.0247,3.0152,3.0152,3.0057,2.9883,2.9775,2.9723,2.9654,2.952,2.912,2.8625,2.8349,2.755,2.7083,2.6742,2.6402,2.5897,2.5232,2.4225,2.3011,2.2214,2.1745,2.1805,2.1879,2.1847,2.1456,2.1774,2.1774,2.1853,2.214,2.2474,2.2731,2.2908,2.2951,2.3052,2.327,2.3471,2.3743,2.4039,2.4205,2.4205,2.4302,2.4384,2.4505,2.4327,2.3531,2.2849,2.2966,2.3385,2.3598,2.3739,2.391,2.4174,2.4128,2.3865,2.3937,2.3803,2.3661,2.3303,2.3113,2.2906,2.2438,2.1571,2.0684,1.9606,1.8962,1.8425,1.8078,1.7666,1.7177,1.6731,1.6318,1.5864,1.5644,1.5353,1.4778,1.4247,1.4061,1.3873,1.3705,1.3563,1.3563,1.36,-2.2538,-2.2495,-2.2201,-2.2062,-2.1938,-2.179,-1.8068,-1.2132,-0.987,-0.2659,0.7473,1.0976,1.4723,1.9298,2.1408,2.2702,2.3828,2.5309,2.7335,2.8342,2.8723,2.9045,2.9344,2.9474,2.965,3.0023,3.0128,3.0335,3.0576,3.0723,3.0552,3.0776,3.0817,3.0683,3.0702,3.0537,3.0311,3.0257,3.0042,2.993,2.9877,2.9658,2.9351,2.8952,2.8709,2.8427,2.8102,2.7869,2.771,2.7395,2.7304,2.6185,2.4858,2.3999,2.3948,2.3973,2.4055,2.3836,2.3546,2.3622,2.3808,2.388,2.4035,2.4225,2.4444,2.4508,2.4563,2.4697,2.4862,2.4916,2.5233,2.5287,2.54,2.5491,2.5783,2.5997,2.5835,2.4886,2.4427,2.424,2.4587,2.4807,2.5054,2.5217,2.5587,2.5766,2.5459,2.5179,2.5035,2.4855,2.448,2.4384,2.4271,2.3336,2.2415,2.1035,2.0034,1.9595,1.9074,1.8887,1.8674,1.8468,1.7985,1.7327,1.6925,1.6617,1.6232,1.5664,1.5219,1.4858,1.4457,1.4201,1.4201,1.4351,1.434,-2.2245,-2.2173,-2.2101,-2.179,-2.1397,-2.1697,-1.6684,-0.9946,-0.4303,0.2242,1.0522,1.6458,1.9362,2.112,2.2592,2.4058,2.5302,2.6495,2.7213,2.778,2.8094,2.8449,2.8603,2.8856,2.904,2.9401,2.9851,3.0269,3.0474,3.0435,3.0529,3.0625,3.0681,3.0682,3.0664,3.0575,3.0527,3.0504,3.0392,3.0372,3.0331,3.0224,3.0006,2.9627,2.9401,2.9206,2.9058,2.8764,2.8548,2.8494,2.8229,2.7941,2.7317,2.6478,2.605,2.5876,2.5723,2.5499,2.5245,2.5183,2.5211,2.5222,2.5341,2.5533,2.5697,2.5733,2.5829,2.5862,2.5898,2.5931,2.5928,2.6073,2.6019,2.6035,2.6142,2.6212,2.6177,2.6108,2.5952,2.5757,2.5914,2.5947,2.6054,2.6106,2.6193,2.628,2.609,2.5859,2.5746,2.5672,2.5582,2.5619,2.573,2.4487,2.3179,2.1595,2.0334,2.0086,1.9767,1.9717,1.9624,1.9675,1.9317,1.8458,1.7827,1.7409,1.6983,1.6562,1.6188,1.5872,1.5309,1.4789,1.5005,1.5219,1.4926,-2.1576,-2.115,-1.7745,-1.5858,-1.4814,-1.186,-0.6314,0.0596,0.4144,0.9283,1.535,1.999,2.1814,2.2177,2.335,2.4894,2.6025,2.6707,2.7175,2.753,2.8,2.8255,2.8342,2.8565,2.8925,2.9299,2.9672,3.0048,3.0356,3.0327,3.0403,3.0561,3.0601,3.0619,3.0603,3.0613,3.0595,3.0609,3.0596,3.0609,3.0644,3.055,3.0354,3.0089,2.9893,2.9775,2.9635,2.9493,2.9307,2.9231,2.9096,2.9057,2.8876,2.8507,2.7835,2.7443,2.7221,2.6961,2.6722,2.6597,2.6595,2.6486,2.6621,2.6835,2.7029,2.7106,2.706,2.7092,2.7141,2.7123,2.7155,2.7075,2.7123,2.7123,2.7123,2.7092,2.7155,2.7296,2.7234,2.7029,2.6903,2.6807,2.6725,2.6775,2.6742,2.6708,2.6657,2.6573,2.6419,2.6385,2.6368,2.5961,2.5793,2.4724,2.345,2.2128,2.0872,2.0577,2.0373,2.0323,2.0254,2.0185,1.9889,1.9281,1.8727,1.8249,1.7973,1.7599,1.7231,1.6912,1.6574,1.6262,1.6133,1.6046,1.5808,-1.7125,-1.6594,-1.1188,-0.852,-0.7152,-0.2701,0.3585,0.9911,1.0629,1.4414,2.0784,2.2367,2.2892,2.3209,2.4175,2.5389,2.6265,2.6573,2.7017,2.7439,2.7886,2.821,2.8428,2.8718,2.8902,2.9056,2.9212,2.9603,3.0062,3.0126,3.0286,3.0385,3.0463,3.0506,3.0486,3.0435,3.0486,3.0554,3.0528,3.0562,3.0634,3.0644,3.0525,3.0308,3.0287,3.0169,3.0042,2.9947,2.9898,2.9842,2.9817,2.9817,2.9806,2.9747,2.9326,2.8727,2.8677,2.8323,2.8022,2.7843,2.7888,2.7761,2.7794,2.7958,2.8067,2.8049,2.8139,2.821,2.8165,2.8121,2.8076,2.8165,2.8165,2.8165,2.8139,2.8183,2.8121,2.8103,2.8076,2.7931,2.7736,2.7595,2.7487,2.7413,2.7348,2.7365,2.733,2.7299,2.7158,2.6987,2.6787,2.6067,2.5447,2.4597,2.3539,2.2605,2.1633,2.1119,2.0925,2.0794,2.0662,2.0561,2.0189,1.9909,1.9609,1.9163,1.8916,1.8588,1.8131,1.7827,1.7774,1.753,1.7092,1.6938,1.6782,-0.3899,-0.3809,-0.2974,-0.225,-0.168,-0.0861,0.3848,1.1272,1.1545,1.5209,2.2497,2.3417,2.3791,2.4148,2.5057,2.5754,2.6046,2.64,2.6708,2.6989,2.7365,2.7619,2.7648,2.8063,2.8474,2.8725,2.8725,2.9111,2.9621,2.9777,2.9893,3.0046,3.0113,3.0138,3.0256,3.0201,3.0222,3.043,3.0359,3.0404,3.0586,3.0677,3.0644,3.0614,3.0525,3.0445,3.0382,3.0305,3.0269,3.0297,3.0286,3.0295,3.0321,3.0309,3.0126,2.9801,2.9568,2.9322,2.9103,2.8978,2.8894,2.876,2.8672,2.8625,2.8644,2.8667,2.8667,2.8649,2.8649,2.8649,2.8691,2.8649,2.8649,2.8667,2.8709,2.8691,2.8649,2.8709,2.8709,2.8704,2.8488,2.8296,2.813,2.8084,2.7992,2.802,2.7992,2.7946,2.7844,2.7643,2.7282,2.659,2.5584,2.4678,2.376,2.2789,2.209,2.1587,2.1402,2.1214,2.1023,2.086,2.0761,2.0478,2.0208,2.0,1.9717,1.9339,1.893,1.8664,1.8486,1.8147,1.776,1.7693,1.7652,0.6117,-0.078,0.2829,0.4721,0.5711,0.9081,1.3281,1.6835,1.7443,1.94,2.2628,2.329,2.3794,2.4558,2.5192,2.5605,2.6043,2.6434,2.6725,2.6925,2.7258,2.7595,2.7904,2.8174,2.8432,2.844,2.8644,2.8845,2.9214,2.9418,2.9588,2.9746,2.9864,2.9958,3.0037,3.0052,3.0155,3.0253,3.0317,3.0434,3.0579,3.0648,3.0726,3.076,3.0696,3.0648,3.0604,3.0573,3.0542,3.0556,3.056,3.0571,3.0565,3.0539,3.0442,3.034,3.0132,2.987,2.9588,2.9607,2.9533,2.9438,2.9283,2.9223,2.9204,2.9226,2.9228,2.9226,2.9246,2.9247,2.9267,2.9266,2.9247,2.9247,2.9247,2.9228,2.9228,2.9226,2.9245,2.9245,2.9225,2.9037,2.8819,2.8662,2.8543,2.8481,2.8463,2.842,2.8319,2.8208,2.7776,2.7243,2.6073,2.4902,2.3986,2.3059,2.2278,2.1794,2.1738,2.1509,2.1309,2.1151,2.1055,2.0893,2.0613,2.0444,2.0392,1.9995,1.95,1.9281,1.9147,1.8831,1.8539,1.824,1.8201,1.4286,0.4989,0.9712,1.2121,1.3076,1.8475,2.1046,2.2229,2.2264,2.2757,2.3304,2.3465,2.4074,2.4863,2.5192,2.5605,2.6115,2.64,2.6657,2.7004,2.7338,2.7582,2.7789,2.8101,2.8237,2.8317,2.8492,2.8626,2.8755,2.9016,2.9299,2.9476,2.957,2.9715,2.9836,2.9851,2.9915,3.008,3.0333,3.0462,3.0543,3.06,3.0662,3.071,3.0735,3.0762,3.0708,3.0716,3.07,3.0706,3.0716,3.0716,3.0709,3.0665,3.0605,3.0529,3.0414,3.0232,3.0027,2.995,2.9927,2.9864,2.9813,2.982,2.9823,2.9877,2.9886,2.984,2.9855,2.9874,2.9882,2.9867,2.9836,2.982,2.9826,2.9829,2.9813,2.9758,2.9742,2.9761,2.9744,2.9746,2.955,2.9307,2.913,2.8981,2.8916,2.8898,2.8727,2.8576,2.782,2.7166,2.5949,2.4787,2.3917,2.3117,2.2428,2.2084,2.1986,2.1869,2.1675,2.1479,2.1324,2.1135,2.0942,2.0794,2.0628,2.0357,2.008,1.9854,1.966,1.9639,1.9384,1.9011,1.8736,2.0516,1.8655,1.915,1.9594,2.0059,2.0946,2.1839,2.274,2.2844,2.3157,2.3638,2.423,2.4719,2.5301,2.553,2.5733,2.5934,2.5917,2.6189,2.6453,2.6725,2.7117,2.7413,2.7683,2.7847,2.7876,2.8128,2.8237,2.8317,2.8608,2.8897,2.9115,2.927,2.9395,2.9513,2.9608,2.975,2.9965,3.0254,3.0414,3.0441,3.0492,3.0524,3.0564,3.065,3.0704,3.0693,3.0728,3.0741,3.0737,3.0753,3.0765,3.0765,3.0739,3.0681,3.0614,3.0598,3.0462,3.0384,3.0293,3.0321,3.0351,3.0351,3.029,3.0279,3.0395,3.0442,3.0356,3.0286,3.0346,3.0366,3.0404,3.026,3.0244,3.0196,3.0177,3.0184,3.019,3.019,3.0247,3.0234,3.0163,3.0103,2.9859,2.967,2.9512,2.9458,2.9439,2.8965,2.8656,2.7625,2.6726,2.5566,2.4516,2.3684,2.307,2.2764,2.2554,2.2392,2.2265,2.2108,2.1895,2.1675,2.1448,2.1245,2.1071,2.0893,2.0679,2.0512,2.0342,2.017,2.001,1.9827,1.9494,1.9301,2.2205,2.1456,2.1946,2.1585,2.0709,2.1367,2.2088,2.2786,2.3127,2.3494,2.3867,2.4162,2.4695,2.5224,2.5432,2.5675,2.586,2.5934,2.6082,2.6349,2.6691,2.6971,2.7258,2.7504,2.773,2.773,2.7847,2.7904,2.7933,2.8219,2.8422,2.8669,2.8998,2.9181,2.9312,2.9494,2.9697,2.9915,3.0174,3.0355,3.0409,3.0422,3.0463,3.0505,3.0529,3.0568,3.0589,3.0634,3.0665,3.068,3.0723,3.0741,3.0739,3.0757,3.0712,3.0662,3.0657,3.068,3.0653,3.0547,3.0451,3.047,3.0479,3.0496,3.0505,3.054,3.0568,3.0548,3.0559,3.0567,3.0545,3.0521,3.0496,3.0507,3.0509,3.0492,3.0462,3.0442,3.0462,3.0411,3.0423,3.0404,3.0364,3.0321,3.0196,3.0052,3.0007,2.9874,2.941,2.8763,2.7755,2.689,2.58,2.4815,2.3983,2.359,2.3241,2.2985,2.2756,2.259,2.2439,2.2313,2.2062,2.182,2.1584,2.1415,2.1276,2.1087,2.0909,2.0695,2.046,2.0185,2.0036,1.9954,1.9959,2.2232,2.1792,2.2555,2.2135,2.1041,2.1888,2.2586,2.3113,2.3494,2.3855,2.4177,2.4317,2.463,2.5162,2.5371,2.554,2.5749,2.5824,2.6063,2.633,2.6624,2.6906,2.7244,2.7448,2.7557,2.76,2.7672,2.7683,2.7701,2.7876,2.8165,2.8551,2.8863,2.9071,2.9249,2.9456,2.9677,2.9832,3.0066,3.0209,3.0271,3.0337,3.0389,3.0414,3.0452,3.0502,3.0542,3.0573,3.0598,3.0629,3.0665,3.0673,3.0697,3.07,3.0702,3.0723,3.0742,3.076,3.0745,3.0696,3.0581,3.0607,3.0619,3.0594,3.0594,3.0639,3.0675,3.067,3.0656,3.065,3.065,3.0639,3.0607,3.0614,3.0571,3.056,3.056,3.0552,3.056,3.056,3.0548,3.054,3.0524,3.0481,3.037,3.0094,2.9664,2.9718,2.9808,2.9026,2.7991,2.7169,2.6358,2.5366,2.448,2.4035,2.3584,2.3253,2.3017,2.2867,2.2721,2.2599,2.2422,2.2147,2.1936,2.179,2.1598,2.1386,2.1183,2.1006,2.0809,2.0689,2.0618,2.0589,2.0788,2.0741,2.032,2.1567,2.2119,2.2102,2.2951,2.3523,2.3839,2.3925,2.4177,2.4589,2.4855,2.5013,2.5224,2.5448,2.5578,2.5654,2.5675,2.5881,2.626,2.6487,2.6808,2.7055,2.7282,2.7345,2.7376,2.7465,2.7552,2.7552,2.7876,2.8165,2.8334,2.8583,2.8934,2.916,2.9336,2.9399,2.9476,2.9848,3.0007,3.0114,3.0228,3.0279,3.0328,3.0348,3.0404,3.0461,3.0494,3.0535,3.0606,3.058,3.0623,3.0691,3.0711,3.0732,3.0782,3.0784,3.0788,3.0797,3.0793,3.076,3.0749,3.0732,3.0735,3.0765,3.0788,3.078,3.0738,3.0757,3.0757,3.0752,3.0735,3.072,3.0701,3.067,3.0652,3.0658,3.0658,3.0664,3.067,3.0639,3.06,3.0593,3.0571,3.0482,3.012,2.9466,2.9455,2.9877,2.9142,2.8022,2.7395,2.6626,2.5607,2.4727,2.4337,2.3941,2.3562,2.3301,2.3116,2.301,2.2884,2.2695,2.2466,2.2347,2.2243,2.1974,2.1694,2.1915,2.21,2.1504,2.1295,2.1213,2.1383,2.1701,2.0573,2.011,2.1425,2.1771,2.1679,2.3048,2.3882,2.4204,2.4261,2.441,2.4759,2.4958,2.5185,2.541,2.5502,2.5578,2.5616,2.5824,2.6063,2.6046,2.6349,2.6607,2.6876,2.7024,2.7089,2.7122,2.7233,2.7279,2.7184,2.7582,2.7636,2.7736,2.8228,2.8533,2.8962,2.923,2.9377,2.9551,2.9803,3.0,3.0123,3.0185,3.0226,3.0226,3.0241,3.0304,3.0364,3.0362,3.0434,3.0543,3.0507,3.0598,3.0697,3.0728,3.075,3.0782,3.0782,3.0782,3.0747,3.0732,3.0772,3.0779,3.0781,3.0781,3.08,3.08,3.0799,3.078,3.0781,3.0781,3.0781,3.0829,3.0819,3.0833,3.0804,3.0758,3.0755,3.0735,3.0735,3.0758,3.0728,3.0706,3.0691,3.0691,3.0626,3.0288,2.9669,2.9766,3.015,2.9002,2.7865,2.7453,2.6787,2.5773,2.497,2.4718,2.4284,2.3886,2.3588,2.3394,2.3271,2.3179,2.3107,2.2946,2.2851,2.2701,2.2813,2.2984,2.3331,2.3329,2.2781,2.2248,2.2085,2.2454,2.2978,1.9904,1.9674,2.0994,2.1493,2.155,2.2886,2.3824,2.4328,2.463,2.491,2.513,2.5169,2.5278,2.5448,2.5502,2.541,2.541,2.5562,2.5754,2.5754,2.6049,2.6314,2.6538,2.6742,2.6876,2.6959,2.6975,2.7007,2.7007,2.7087,2.7321,2.7619,2.7851,2.8308,2.8682,2.886,2.902,2.9214,2.9456,2.968,2.9817,2.995,3.0079,3.0128,3.0171,3.0185,3.0207,3.0222,3.0266,3.0381,3.0453,3.0498,3.0587,3.0651,3.0665,3.0698,3.0748,3.0722,3.0703,3.0703,3.0735,3.0739,3.0752,3.0762,3.0767,3.0765,3.074,3.074,3.0745,3.0772,3.0797,3.0839,3.0858,3.0857,3.0853,3.0811,3.0823,3.0823,3.0823,3.0825,3.0823,3.0794,3.0785,3.0785,3.0771,3.0346,2.9913,3.0164,3.0287,2.9158,2.814,2.7785,2.7452,2.6713,2.5901,2.5271,2.4793,2.421,2.4036,2.3945,2.3636,2.3584,2.3523,2.3618,2.3816,2.4014,2.4164,2.4368,2.4403,2.4377,2.4175,2.3653,2.3113,2.3504,2.4156,1.8798,1.8984,2.0169,2.114,2.1884,2.2715,2.3581,2.4385,2.5162,2.5486,2.5524,2.5486,2.541,2.5294,2.5294,2.5217,2.5123,2.5123,2.5323,2.546,2.5742,2.6049,2.6297,2.6538,2.6725,2.6892,2.6975,2.6909,2.6909,2.7038,2.7303,2.7589,2.7718,2.802,2.8192,2.8368,2.8597,2.8948,2.9169,2.9418,2.9606,2.9696,2.9921,3.0038,3.0117,3.0157,3.0166,3.0161,3.0169,3.0196,3.0188,3.0196,3.026,3.0344,3.0423,3.0537,3.0656,3.0664,3.069,3.069,3.069,3.0704,3.0684,3.0701,3.0704,3.0704,3.0696,3.0696,3.0708,3.0735,3.0772,3.0774,3.0775,3.0818,3.0859,3.0859,3.0895,3.0892,3.0892,3.0892,3.0892,3.0889,3.0868,3.0868,3.0843,3.0618,3.031,3.0261,3.0249,2.9651,2.8791,2.8459,2.8142,2.7841,2.7064,2.6129,2.5869,2.5466,2.4931,2.4716,2.4371,2.4212,2.4357,2.4619,2.5059,2.5322,2.5437,2.5349,2.5188,2.5197,2.5377,2.492,2.436,2.4746,2.5295,1.8655,1.8835,2.0223,2.1003,2.141,2.314,2.4261,2.4806,2.5084,2.5178,2.5178,2.5178,2.5123,2.51,2.51,2.506,2.5068,2.5208,2.546,2.561,2.5758,2.6191,2.6453,2.6556,2.6708,2.6742,2.6775,2.6792,2.6775,2.6873,2.6906,2.7019,2.7255,2.75,2.7736,2.7897,2.8368,2.8766,2.8975,2.9196,2.9438,2.9588,2.982,2.9972,3.0038,3.0098,3.0079,3.0098,3.0123,3.0155,3.0163,3.0209,3.0414,3.0453,3.0518,3.0634,3.0642,3.0626,3.0637,3.064,3.0643,3.0651,3.0629,3.0668,3.0665,3.0665,3.0633,3.0646,3.065,3.0672,3.0726,3.0757,3.0788,3.0839,3.0859,3.0879,3.0897,3.0915,3.0915,3.0915,3.0915,3.0915,3.0915,3.0914,3.0852,3.0772,3.0684,3.0552,3.0333,2.9796,2.9438,2.911,2.8884,2.8606,2.7808,2.6852,2.686,2.674,2.6122,2.569,2.5654,2.5547,2.5472,2.5685,2.618,2.6472,2.6639,2.6525,2.6365,2.6556,2.6692,2.6138,2.5783,2.6012,2.6218,1.8784,1.8994,2.0344,2.132,2.2142,2.3534,2.4359,2.4589,2.4886,2.5005,2.5005,2.495,2.4886,2.4822,2.4782,2.4766,2.4846,2.4934,2.5192,2.5481,2.5832,2.6013,2.6243,2.6435,2.6469,2.6538,2.6607,2.6623,2.6607,2.6607,2.6657,2.6674,2.6691,2.7083,2.7487,2.7783,2.8174,2.8565,2.8879,2.9086,2.9237,2.938,2.957,2.9839,2.9907,2.994,2.9975,2.9991,3.0003,3.0011,2.9992,3.0032,3.0171,3.0196,3.0275,3.0362,3.0423,3.0442,3.0472,3.054,3.0559,3.0588,3.0598,3.0634,3.0632,3.0618,3.0621,3.0629,3.0618,3.0626,3.0682,3.0742,3.0811,3.0879,3.0879,3.0879,3.0898,3.0917,3.0917,3.0917,3.0917,3.0917,3.0917,3.0918,3.0897,3.0857,3.0795,3.0718,3.0565,3.0275,2.9993,2.9747,2.9583,2.9378,2.8501,2.7755,2.7713,2.7523,2.699,2.669,2.6801,2.6866,2.6794,2.7018,2.7341,2.7533,2.7658,2.7736,2.7695,2.7763,2.7692,2.7285,2.6817,2.6691,2.6882,1.9217,1.9391,2.0553,2.2041,2.3434,2.3882,2.4024,2.4067,2.4605,2.4886,2.4846,2.4775,2.4589,2.4482,2.44,2.4426,2.4549,2.4655,2.4958,2.5214,2.546,2.5738,2.6026,2.6007,2.6312,2.6434,2.652,2.6537,2.652,2.6503,2.6537,2.652,2.6691,2.7051,2.7426,2.7636,2.801,2.8396,2.8576,2.8682,2.8814,2.8911,2.9023,2.9494,2.9626,2.9681,2.9771,2.979,2.9755,2.9719,2.9719,2.9756,2.9805,2.9867,2.9958,3.0032,3.0171,3.0228,3.0309,3.0386,3.0471,3.051,3.0588,3.0588,3.0578,3.0597,3.0616,3.0597,3.0618,3.0613,3.065,3.0697,3.0739,3.0829,3.0856,3.0878,3.0898,3.0898,3.0918,3.0918,3.0918,3.0918,3.0918,3.0918,3.0918,3.0898,3.0879,3.082,3.0719,3.0541,3.0292,3.0156,3.0095,2.9854,2.9283,2.8662,2.8535,2.8259,2.7839,2.7687,2.781,2.7987,2.8157,2.8173,2.8161,2.8421,2.8573,2.8485,2.8366,2.8332,2.8252,2.821,2.7956,2.7554,2.7457,2.0063,2.0691,2.1562,2.2681,2.3809,2.3839,2.3882,2.3982,2.4051,2.4177,2.4234,2.4234,2.4177,2.4151,2.4109,2.4135,2.4219,2.4492,2.4815,2.523,2.5476,2.5791,2.6222,2.6239,2.638,2.645,2.6485,2.645,2.6434,2.645,2.6485,2.6503,2.664,2.6906,2.7378,2.7607,2.7829,2.83,2.8353,2.8474,2.8646,2.8883,2.9126,2.9395,2.9532,2.9645,2.9719,2.9719,2.9701,2.9701,2.9683,2.9737,2.9787,2.9886,2.9965,2.9992,3.0026,3.0037,3.0095,3.019,3.0266,3.0364,3.0417,3.0479,3.053,3.0579,3.0598,3.0607,3.0604,3.0603,3.0626,3.0652,3.0686,3.0755,3.0825,3.0855,3.0879,3.0898,3.0918,3.0918,3.0918,3.0918,3.0918,3.0918,3.0918,3.0918,3.0918,3.0879,3.0801,3.0628,3.0231,3.0141,3.0393,3.0173,2.9719,2.9492,2.932,2.9298,2.9042,2.8904,2.8783,2.8762,2.8775,2.8809,2.8879,2.902,2.9027,2.8898,2.8791,2.8764,2.8688,2.8573,2.8511,2.821,2.8102,2.0502,2.1225,2.1938,2.2814,2.3565,2.3625,2.3625,2.3668,2.3625,2.3625,2.3726,2.3839,2.3925,2.3882,2.3839,2.4009,2.4109,2.4343,2.4839,2.5307,2.5626,2.5937,2.617,2.6345,2.6345,2.6345,2.6345,2.6345,2.6329,2.6417,2.6435,2.6504,2.6607,2.6923,2.7426,2.7547,2.7742,2.8237,2.8219,2.8317,2.8515,2.8713,2.8966,2.9206,2.9373,2.9531,2.9607,2.9607,2.9588,2.9569,2.9568,2.9569,2.9608,2.9645,2.9717,2.9734,2.9786,2.9853,2.9899,2.9992,3.0075,3.015,3.026,3.034,3.0375,3.0428,3.0559,3.055,3.0615,3.0614,3.0618,3.0626,3.0664,3.0715,3.0752,3.079,3.084,3.0918,3.0918,3.0918,3.0918,3.0918,3.0918,3.0918,3.0918,3.0918,3.0918,3.0879,3.082,3.0758,3.0339,3.0144,3.0419,3.051,3.0231,3.0072,2.9997,3.0027,2.9962,2.9635,2.9288,2.9326,2.9345,2.928,2.9293,2.9373,2.9339,2.9206,2.9165,2.9129,2.9005,2.8883,2.8828,2.8772,2.8664,2.0889,2.1557,2.2172,2.2744,2.3275,2.3275,2.3275,2.3319,2.3275,2.3275,2.3363,2.3566,2.3696,2.3696,2.3653,2.3952,2.4177,2.4369,2.4863,2.5307,2.5572,2.5864,2.6043,2.6168,2.6168,2.6168,2.6168,2.6115,2.6026,2.6189,2.6314,2.6488,2.6757,2.71,2.7444,2.7654,2.776,2.7996,2.8081,2.8126,2.8246,2.8432,2.87,2.8943,2.9144,2.9312,2.9412,2.9451,2.9411,2.9429,2.9427,2.9429,2.9429,2.9471,2.947,2.9491,2.957,2.9626,2.9662,2.9765,2.9864,2.9943,3.0075,3.0177,3.0203,3.0285,3.0406,3.049,3.053,3.0585,3.0591,3.0595,3.0626,3.0656,3.0685,3.0713,3.0801,3.0879,3.0879,3.0879,3.0898,3.0898,3.0918,3.0918,3.0918,3.0918,3.0898,3.0856,3.0808,3.0746,3.0541,3.0413,3.0502,3.0546,3.051,3.0402,3.0259,3.0163,3.0026,2.9874,2.9718,2.9607,2.9551,2.9608,2.9626,2.9607,2.9588,2.9474,2.9472,2.9433,2.9355,2.9237,2.9175,2.9126,2.9079,2.1932,2.26,2.2849,2.3084,2.3275,2.3171,2.3201,2.3275,2.3157,2.3201,2.3231,2.3216,2.3304,2.3407,2.3407,2.3625,2.4094,2.4328,2.4775,2.5301,2.5513,2.577,2.597,2.6007,2.5954,2.597,2.6007,2.5934,2.5917,2.599,2.6026,2.6118,2.6349,2.6657,2.6939,2.7195,2.7444,2.7701,2.7789,2.7789,2.7979,2.8183,2.8484,2.8669,2.8797,2.898,2.9134,2.916,2.9265,2.9326,2.9365,2.9347,2.9347,2.9326,2.9344,2.9365,2.9411,2.9431,2.9493,2.9589,2.9681,2.9697,2.9834,2.9962,3.0007,3.0075,3.0196,3.026,3.0344,3.0471,3.0511,3.0511,3.0548,3.0591,3.0613,3.0647,3.0684,3.0723,3.0742,3.0781,3.082,3.0859,3.0918,3.0918,3.0918,3.0916,3.0916,3.0879,3.0817,3.0757,3.0704,3.067,3.0618,3.0613,3.0588,3.0422,3.0302,3.019,3.009,2.9924,2.9773,2.9701,2.9701,2.9701,2.972,2.9683,2.9664,2.9645,2.9645,2.9608,2.9645,2.9589,2.9531,2.9454,2.9353]}]]